     2              OBSERVATION DATA    GPS                 RINEX VERSION / TYPE
teqc 1998Mar9 19980907 20:02:22UTC                          PGM / RUN BY / DATE
                                                            COMMENT
Original Marker Name: WIDE                                  COMMENT
Campaign Name: SCEC/UCLA Landers 92                         COMMENT
4-Character Station Name: WIDE                              COMMENT
6-Character Antenna Code: TRMSST                            COMMENT
Vertical Measurement Point: TGP                             COMMENT
Vertical Offset to Rinex Ref. Point: 0.0629                 COMMENT
Radial Measurement Point: NGP                               COMMENT
Radial Offset to Rinex Ref. Point: 0.2334                   COMMENT
Antenna Height from Field Measurement: 1.3500 m             COMMENT
Original XYZ: -2356145.1047 -4745113.0911 3540390.2472      COMMENT
New XYZ position is based on association with SCEC monument COMMENT
E1D0U3V0+0011. Position of that monument is believed to be  COMMENT
valid to within 1 m horizontally; vertical accuracy         COMMENT
should be no worse than 3-times this value.                 COMMENT
                                                            COMMENT
Revised Rinex header created by UCSD GPS archive for        COMMENT
GSAC on 14-Apr-1999 (1999:104) 00:58:46 GMT                 COMMENT
For assistance contact dagnew@ucsd.edu or hjohnson@ucsd.edu COMMENT
                                                            COMMENT
WIDE                                                        MARKER NAME
UNKNOWN OBSERVER UCLA                                       OBSERVER / AGENCY
889 TRIMBLE 4000 SST NP 4.53 / SP 4.20                      REC # / TYPE / VERS
218 TR 4000SST L1/L2 GEO                                    ANT # / TYPE
 -2356149.0000 -4745123.0000  3540396.0000                  APPROX POSITION XYZ
        1.2668        0.0000        0.0000                  ANTENNA: DELTA H/E/N
     1     1     0                                          WAVELENGTH FACT L1/2
     3    C1    L1    L2                                    # / TYPES OF OBSERV
     0                                                      INTERVAL
  1992     5     5     0     0   30.000000                  TIME OF FIRST OBS
  1992     5     5    23    58   45.000000                  TIME OF LAST OBS
                                                            END OF HEADER
 92  5  5  0  0 30.0000000  0  5G13G12G24G 6G 2
  20610934.742          -0.97318
  22101276.7034         -0.06657
  22469567.4924         -0.95956
  23506420.1024         -0.32355
  23135851.5084         -0.96056
 92  5  5  0  0 45.0000000  0  5G13G12G24G 6G 2
  20610440.4384      -2606.04948
  22090617.547      -56032.554 7
  22456913.3674     -66502.72746
  23513007.234       34621.786 5
  23138808.7974      15532.30746
 92  5  5  0  1  0.0000000  0  5G13G12G24G 6G 2
  20609963.4064      -5115.83148        -0.04372
  22079971.055     -111969.970 7        -0.06632
  22444272.9454    -132922.67546
  23519612.2584      69322.12045
  23141775.133       31134.464 6
 92  5  5  0  1 15.0000000  0  5G13G12G24G 6G 2
  20609502.8524      -7533.73148     -1884.12962
  22069344.023     -167815.216 7    -43515.81721
  22431650.3914    -199261.64346        -0.14071
  23526232.4694     104097.27845        -0.07371
  23144759.0474      46799.41046        -0.16671
 92  5  5  0  1 30.0000000  0  5G13G12G24G 6G 2
  20609059.4224      -9861.81648     -3698.22262
  22058734.0704    -223569.84247    -86960.95361
  22419038.9384    -265524.98246    -51633.84361
  23532863.203      138944.831 5     27153.79421
  23147752.820       62524.863 6     12253.35821
 92  5  5  0  1 45.0000000  0  5G13G12G24G 6G 2
  20608629.6094     -12109.30248     -5449.51462
  22048139.891     -279242.211 7   -130341.99922
  22406441.6564    -331724.00246   -103217.43861
  23539505.5704     173855.96745     54357.16561
  23150752.375       78301.707 6     24546.95721
 92  5  5  0  2  0.0000000  0  5G13G12G24G 6G 2
  20608221.0004     -14272.70548     -7135.28662
  22037562.875     -334828.301 7   -173655.80622
  22393857.1334    -397855.10846   -154748.10261
  23546161.406      208833.918 5     81612.62621
  23153763.5084      94134.44446     36884.08561
 92  5  5  0  2 15.0000000  0  5G13G12G24G 6G 2
  20607824.2034     -16350.13148     -8754.06662
  22027000.1644    -390325.69547   -216900.50762
  22381285.7114    -463917.64046   -206225.33961
  23552830.469      243880.446 5    108921.52421
  23156790.102      110025.538 6     49266.68221
 92  5  5  0  2 30.0000000  0  5G13G12G24G 6G 2
  20607445.1954     -18343.51348    -10307.36062
  22016457.273     -445735.533 7   -260076.97921
  22368726.4064    -529914.83846   -257651.66861
  23559513.9454     278993.82645    136282.50261
  23159824.547      125970.859 6     61691.55221
 92  5  5  0  2 45.0000000  0  5G13G12G24G 6G 2
  20607083.6884     -20246.01948    -11789.83762
  22005930.172     -501050.495 7   -303179.52622
  22356181.9774    -595840.54446   -309022.27861
  23566207.047      314180.752 5    163700.79721
  23162868.133      141976.862 6     74163.71121
 92  5  5  0  3  0.0000000  0  5G13G12G24G 6G 2
  20606736.8674     -22060.71648    -13203.89062
  21995418.203     -556272.978 7   -346210.00721
  22343650.4224    -661700.24946   -360341.47361
  23572914.555      349437.986 5    191173.87121
  23165928.898      158040.458 6     86680.73921
 92  5  5  0  3 15.0000000  0  5G13G12G24G 6G 2
  20606406.7894     -23798.92648    -14558.34862
  21984927.313     -611413.895 7   -389176.93822
  22331126.1644    -727507.02746   -411619.41561
  23579638.1804     384754.38745    218693.05561
  23168992.0864     174149.41345     99233.11561
 92  5  5  0  3 30.0000000  0  5G13G12G24G 6G 2
  20606088.8054     -25457.66948    -15850.88062
  21974453.438     -666469.311 7   -432077.23721
  22318615.8204    -793259.09746   -462854.73461
  23586371.125      420132.828 5    246260.56621
  23172066.125      190307.245 5    111823.56521
 92  5  5  0  3 45.0000000  0  5G13G12G24G 6G 2
  20605790.2584     -27032.54048    -17078.05862
  21963991.781     -721434.424 7   -474907.17622
  22306113.6564    -858951.44146   -514043.51061
  23593113.8204     455577.69245    273879.84961
  23175157.0394     206518.66846    124455.78161
 92  5  5  0  4  0.0000000  0  5G13G12G24G 6G 2
  20605509.7584     -28512.47848    -18231.26462
  21953553.391     -776297.141 7   -517657.32722
  22293627.2814    -924569.68146   -565174.54861
  23599879.0164     491100.30145    301559.71261
  23178245.148      222794.852 6    137138.46721
 92  5  5  0  4 15.0000000  0  5G13G12G24G 6G 2
  20605240.3204     -29925.85948    -19332.60462
  21943126.938     -831085.692 7   -560349.68522
  22281147.4304    -990142.01046   -616269.80761
  23606645.664      526671.725 5    329277.60021
  23181353.617      239104.775 6    149847.43321
 92  5  5  0  4 30.0000000  0  5G13G12G24G 6G 2
  20604988.6724     -31248.04448    -20362.88462
  21932721.148     -885774.771 7   -602964.53322
  22268684.1174   -1055641.60246   -667308.38761
  23613428.0554     562316.73345    357052.83461
  23184461.8594     255470.99945    162600.28761
 92  5  5  0  4 45.0000000  0  5G13G12G24G 6G 2
  20604756.5784     -32470.62548    -21315.54962
  21922333.680     -940355.157 7   -645494.68622
  22256235.6254   -1121056.72546   -718281.15461
  23620224.4064     598044.02645    384892.19061
  23187594.2344     271900.57846    175402.48161
 92  5  5  0  5  0.0000000  0  5G13G12G24G 6G 2
  20604542.0004     -33610.25348    -22203.57862
  21911966.891     -994842.934 7   -687952.68122
  22243802.3364   -1186400.13446   -769198.03761
  23627041.922      633836.732 5    412782.50121
  23190733.695      288375.894 6    188240.34321
 92  5  5  0  5 15.0000000  0  5G13G12G24G 6G 2
  20604336.8984     -34664.99047    -23025.45762
  21901616.438    -1049235.831 7   -730336.73522
  22231381.6804   -1251667.52046   -820055.68061
  23633860.195      669696.377 5    440724.98021
  23193874.1884     304901.02846    201117.01361
 92  5  5  0  5 30.0000000  0  5G13G12G24G 6G 2
  20604153.266      -35638.412 8    -23783.97822
  21891283.953    -1103536.421 7   -772648.86822
  22218975.7424   -1316860.32746   -870855.20561
  23640698.352      705619.717 5    468717.09921
  23197028.2584     321475.83746    214032.38461
 92  5  5  0  5 45.0000000  0  5G13G12G24G 6G 2
  20603982.6644     -36532.19848    -24480.44062
  21880962.141    -1157745.661 7   -814889.81722
  22206584.9454   -1381978.17446   -921596.32761
  23647548.305      741605.256 5    496757.67321
  23200190.7344     338101.27346    226987.21361
 92  5  5  0  6  0.0000000  0  5G13G12G24G 6G 2
  20603825.1644     -37359.29648    -25124.93962
  21870669.438    -1211875.829 7   -857069.15622
  22194205.1884   -1447030.49646   -972286.38761
  23654401.4144     777639.92745    524836.54561
  23203363.0004     354765.56846    239972.31561
 92  5  5  0  6 15.0000000  0  5G13G12G24G 6G 2
  20603684.6414     -38103.11948    -25704.54962
  21860383.5084   -1265910.06947   -899173.74362
  22181842.5314   -1511997.55746  -1022910.01161
  23661272.852      813740.181 5    552966.50821
  23206549.227      371485.528 6    253000.78021
 92  5  5  0  6 30.0000000  0  5G13G12G24G 6G 2
  20603558.1334     -38771.61648    -26225.46162
  21850120.266    -1319855.565 7   -941209.17922
  22169495.9614   -1576885.68846  -1073472.13161
  23668154.3914     849898.05845    581141.37361
  23209734.9064     388254.54245    266067.47861
 92  5  5  0  6 45.0000000  0  5G13G12G24G 6G 2
  20603445.2894     -39366.44048    -26688.96962
  21839869.656    -1373713.410 7   -983176.31822
  22157162.8054   -1641694.87546  -1123972.74361
  23675046.3914     886111.71045    609359.70261
  23212934.9454     405073.09045    279172.77361
 92  5  5  0  7  0.0000000  0  5G13G12G24G 6G 2
  20603345.9694     -39874.36448    -27084.75962
  21829637.180    -1427469.587 7  -1025064.23822
  22144846.102    -1706411.856 6  -1174401.50121
  23681950.406      922394.597 5    637631.95821
  23216151.7584     421957.53045    292329.41661
 92  5  5  0  7 15.0000000  0  5G13G12G24G 6G 2
  20603267.9774     -40288.50848    -27407.47762
  21819430.922    -1481116.537 7  -1066867.04422
  22132550.7344   -1771030.28546  -1224753.46561
  23688866.0234     958753.61245    665963.56461
  23219379.391      438916.511 5    305544.12121
 92  5  5  0  7 30.0000000  0  5G13G12G24G 6G 2
  20603203.5704     -40621.80148    -27667.19262
  21809243.594    -1534666.783 7  -1108594.49322
  22120269.359    -1835565.801 6  -1275040.82321
  23695799.914      995175.611 5    694344.23721
  23222622.484      455939.820 5    318808.96421
 92  5  5  0  7 45.0000000  0  5G13G12G24G 6G 2
  20603158.4694     -40879.75348    -27868.20162
  21799064.8674   -1588125.12647  -1150250.33062
  22108003.5784   -1900024.87746  -1325268.61961
  23702742.1174    1031655.10445    722769.70361
  23225868.602      473017.369 5    332116.06221
 92  5  5  0  8  0.0000000  0  5G13G12G24G 6G 2
  20603122.6564     -41055.41048
  21788913.742    -1641484.124 7  -1191828.75622
  22095753.852    -1964401.456 6  -1375432.13521
  23709695.2584    1068198.77845    751245.19361
  23229128.234      490152.898 5    345468.34921
 92  5  5  0  8 15.0000000  0  5G13G12G24G 6G 2
  20603104.9224     -41152.66348
  21778779.328    -1694746.855 7  -1233332.16822
  22083515.805    -2028701.950 6  -1425536.36221
  23716655.766     1104803.115 5    779767.96121
  23232393.125      507339.395 5    358860.34721
 92  5  5  0  8 30.0000000  0  5G13G12G24G 6G 2
  20603101.3674     -41165.54148
  21768661.438    -1747906.832 7  -1274755.51522
  22071295.305    -2092924.552 6  -1475579.89421
  23723633.4924    1141473.85545    808342.43361
  23235676.8524     524583.97845    372297.62361
 92  5  5  0  8 45.0000000  0  5G13G12G24G 6G 2
  20603116.0554     -41096.54648
  21758566.539    -1800966.223 7  -1316100.48122
  22059089.047    -2157073.206 6  -1525565.80421
  23730626.2344    1178208.19045    836966.49861
  23238970.414      541885.996 5    385779.62721
 92  5  5  0  9  0.0000000  0  5G13G12G24G 6G 2
  20603144.9534     -40945.23548
  21748488.953    -1853923.564 7  -1357365.92622
  22046895.7424   -2221147.08446  -1575493.45161
  23737631.7034    1215006.83745    865640.64561
  23242273.297      559246.414 5    399307.13821
 92  5  5  0  9 15.0000000  0  5G13G12G24G 6G 2
  20603188.2034     -40716.85848
  21738429.945    -1906783.679 7  -1398555.61422
  22034713.445    -2285150.236 6  -1625365.98421
  23744643.039     1251864.409 5    894360.72221
  23245585.938      576662.098 5    412877.72221
 92  5  5  0  9 30.0000000  0  5G13G12G24G 6G 2
  20603242.5784     -40417.97848    -27508.43562
  21728385.781    -1959552.455 7  -1439674.12522
  22022548.805    -2349090.256 6  -1675189.33021
  23751664.5704    1288774.30445    923121.58261
  23248915.0394     594125.47346    426485.47061
 92  5  5  0  9 45.0000000  0  5G13G12G24G 6G 2
  20603310.0474     -40060.96648    -27230.24862
  21718359.563    -2012241.526 7  -1480730.53222
  22010391.742    -2412977.904 6  -1724971.86221
  23758695.672     1325724.160 5    951913.54921
  23252240.7894     611623.50145    440120.22461
 92  5  5  0  9 59.9990000  0  5G13G12G24G 6G 2
  20603397.1674     -39623.27348    -26889.19262
  21708356.589    -2064824.136 7  -1521703.98022
  21998248.362    -2476783.724 6  -1774690.63321
  23765744.175     1362734.282 5    980752.49921
  23255582.503      629177.527 5    453798.61321
 92  5  5  0 10 14.9990000  0  5G13G12G24G 6G 2
  20603493.2924     -39108.25748    -26487.88962
  21698368.362    -2117310.050 7  -1562602.08222
  21986121.565    -2540517.280 6  -1824353.09521
  23772798.5504    1399806.15945   1009639.55261
  23258931.526      646791.685 5    467523.85521
 92  5  5  0 10 29.9990000  0  5G13G12G24G 6G 2
  20603607.7304     -38504.75848    -26017.63462
  21688400.058    -2169684.206 7  -1603413.09422
  21974010.292    -2604159.573 6  -1873944.43821
  23779861.183     1436948.210 5   1038581.30321
  23262297.5344     664478.25145    481305.50461
 92  5  5  0 10 44.9990000  0  5G13G12G24G 6G 2
  20603738.8474     -37821.87548    -25485.52462
  21678452.683    -2221954.843 7  -1644143.44722
  21961915.386    -2667716.365 6  -1923469.15921
  23786948.1754    1474151.46245   1067570.72861
  23265678.0264     682231.00546    495138.74861
 92  5  5  0 10 59.9990000  0  5G13G12G24G 6G 2
  20603886.7144     -37048.50448    -24882.90362
  21668531.261    -2274110.381 7  -1684784.11022
  21949840.222    -2731174.003 6  -1972916.62321
  23794042.190     1511426.969 5   1096616.47021
  23269073.409      700058.038 6    509029.87221
 92  5  5  0 11 14.9990000  0  5G13G12G24G 6G 2
  20604047.3784     -36193.52648    -24216.69262
  21658622.698    -2326159.165 7  -1725341.58822
  21937780.448    -2794543.105 6  -2022295.09121
  23801144.8784    1548765.66245   1125711.42861
  23272476.776      717948.687 6    522970.55621
 92  5  5  0 11 29.9990000  0  5G13G12G24G 6G 2
  20604225.1444     -35260.41947    -23489.59762
  21648741.894    -2378103.921 7  -1765818.00322
  21925739.190    -2857829.039 6  -2071608.75821
  23808257.3944    1586164.17345   1154852.98961
  23275889.5424     735899.23746    536957.93161
 92  5  5  0 11 44.9990000  0  5G13G12G24G 6G 2
  20604414.5264     -34262.46047    -22711.97262
  21638872.886    -2429957.348 7  -1806223.25522
  21913706.2454   -2921045.58746  -2120868.34861
  23815385.3704    1623609.05745   1184030.70961
  23279316.9094     753895.14446    550980.63861
 92  5  5  0 11 59.9990000  0  5G13G12G24G 6G 2
  20604620.2224     -33192.25248    -21878.04862
  21629021.737    -2481711.410 7  -1846551.07422
  21901692.628    -2984185.206 6  -2170068.00221
  23822524.5584    1661107.82245   1213250.41161
  23282745.995      771945.431 5    565045.71921
 92  5  5  0 12 14.9990000  0  5G13G12G24G 6G 2
  20604837.2924     -32047.86447    -20986.32062
  21619192.573    -2533363.592 7  -1886799.50922
  21889693.308    -3047246.557 6  -2219206.66721
  23829669.3624    1698662.24645   1242513.46561
  23286197.503      790055.063 5    579157.04421
 92  5  5  0 12 29.9990000  0  5G13G12G24G 6G 2
  20605069.4874     -30821.92647    -20031.04962
  21609385.659    -2584906.059 7  -1926962.45222
  21877708.964    -3110222.764 6  -2268278.98421
  23836832.3474    1736279.64845   1271825.60561
  23289655.831      808231.447 6    593320.38621
 92  5  5  0 12 44.9990000  0  5G13G12G24G 6G 2
  20605317.8624     -29519.96447    -19016.53862
  21599597.776    -2636343.441 7  -1967043.51022
  21865740.495    -3173121.591 6  -2317291.00222
  23843995.050     1773954.663 5   1301182.62521
  23293128.565      826466.527 5    607529.48521
 92  5  5  0 12 59.9990000  0  5G13G12G24G 6G 2
  20605578.3474     -28158.20647    -17955.43062
  21589829.222    -2687691.552 7  -2007055.00322
  21853781.253    -3235961.118 6  -2366256.81321
  23851173.667     1811670.805 5   1330571.70221
  23296602.636      844743.088 5    621770.87721
 92  5  5  0 13 14.9990000  0  5G13G12G24G 6G 2
  20605848.5504     -26726.42547    -16839.76262
  21580072.901    -2738939.385 7  -2046988.36122
  21841837.847    -3298732.369 6  -2415169.42722
  23858362.6514    1849438.48445   1360000.94761
  23300097.4484     863071.74945    636052.88361
 92  5  5  0 13 29.9990000  0  5G13G12G24G 6G 2
  20606152.4094     -25134.92048    -15599.63262
  21570356.948    -2789996.700 7  -2086773.26522
  21829921.0344   -3361344.49646  -2463958.04461
  23865576.9334    1887347.18745   1389540.05761
  23303608.2064     881544.95245    650447.49961
 92  5  5  0 13 44.9990000  0  5G13G12G24G 6G 2
  20606473.6284     -23443.98048    -14282.02362
  21560665.839    -2840923.266 7  -2126456.28422
  21818028.956    -3423853.192 7  -2512666.06621
  23872804.620     1925336.648 5   1419142.09721
  23307133.5654     900102.34945    664907.73161
 92  5  5  0 13 59.9990000  0  5G13G12G24G 6G 2
  20606808.2064     -21689.16648    -12914.63562
  21550995.409    -2891754.057 7  -2166064.66922
  21806144.550    -3486290.878 6  -2561318.75821
  23880043.933     1963371.032 5   1448779.13521
  23310676.0504     918707.34145    679405.05761
 92  5  5  0 14 14.9990000  0  5G13G12G24G 6G 2
  20607148.5894     -19903.84348    -11523.47762
  21541335.151    -2942521.661 7  -2205623.82522
  21794272.183    -3548689.179 7  -2609940.76122
  23887281.7534    2001417.18745   1478425.37061
  23314222.964      937326.153 5    693913.15621
 92  5  5  0 14 29.9990000  0  5G13G12G24G 6G 2
  20607497.2304     -18074.09748    -10097.70862
  21531686.792    -2993211.671 7  -2245122.51222
  21782408.581    -3611030.770 7  -2658518.57422
  23894525.933     2039489.100 5   1508091.65921
  23317766.9564     955969.96645    708440.74261
 92  5  5  0 14 44.9990000  0  5G13G12G24G 6G 2
  20607856.5114     -16183.52448     -8624.53662
  21522059.003    -3043807.077 7  -2284547.48822
  21770559.644    -3673297.506 7  -2707038.06222
  23901778.948     2077602.933 5   1537790.61521
  23321323.1904     974652.38145    722998.40061
 92  5  5  0 14 59.9990000  0  5G13G12G24G 6G 2
  20608231.5504     -14218.57748     -7093.41762
  21512453.581    -3094293.546 7  -2323887.57322
  21758728.573    -3735472.589 7  -2755486.12322
  23909043.6204    2115772.18245   1567532.74861
  23324889.7374     993386.01245    737595.94561
 92  5  5  0 15 14.9990000  0  5G13G12G24G 6G 2
  20608614.4334     -12188.75047     -5511.73462
  21502864.597    -3144680.123 7  -2363149.81822
  21746913.214    -3797562.500 7  -2803867.82122
  23916315.7694    2153987.27945   1597310.61061
  23328459.2224    1012163.87945    752227.97361
 92  5  5  0 15 29.9990000  0  5G13G12G24G 6G 2
  20609016.4564     -10084.94748     -3872.41462
  21493297.065    -3194957.023 7  -2402326.61022
  21735116.042    -3859555.822 7  -2852174.25921
  23923601.417     2192257.478 5   1627131.38521
  23332041.6444    1030995.89445    766902.18561
 92  5  5  0 15 44.9990000  0  5G13G12G24G 6G 2
  20609431.6204      -7903.21648     -2172.36862
  21483752.081    -3245119.818 7  -2441414.48422
  21723337.425    -3921446.967 7  -2900401.07322
  23930894.394     2230586.730 5   1656998.20721
  23335641.3784    1049884.28645    781620.33761
 92  5  5  0 15 59.9990000  0  5G13G12G24G 6G 2
  20609862.1284      -5646.03248      -413.53062
  21474228.800    -3295170.125 7  -2480414.70322
  21711578.675    -3983239.610 7  -2948551.13722
  23938199.7374    2268972.29745   1686908.90061
  23339249.026     1068826.231 5    796380.22021
 92  5  5  0 16 14.9990000  0  5G13G12G24G 6G 2
  20610305.2374      -3318.26248      1400.30962
  21464725.409    -3345112.293 7  -2519330.66322
  21699836.597    -4044940.501 7  -2996629.70622
  23945507.401     2307409.213 5   1716859.59021
  23342855.956     1087817.003 5    811178.13521
 92  5  5  0 16 29.9990000  0  5G13G12G24G 6G 2
  20610761.7764       -916.21448      3272.03162
  21455241.386    -3394942.229 7  -2558159.16822
  21688113.940    -4106545.518 7  -3044633.56622
  23952834.597     2345901.419 5   1746853.38421
  23346484.0344    1106860.78245    826017.36961
 92  5  5  0 16 44.9990000  0  5G13G12G24G 6G 2
  20611231.9014       1553.76048      5196.68162
  21445779.839    -3444665.396 7  -2596904.47922
  21676408.058    -4168060.448 7  -3092567.23022
  23960166.456     2384442.399 4   1776885.16821
  23350118.605     1125953.288 5    840894.58721
 92  5  5  0 16 59.9990000  0  5G13G12G24G 6G 2
  20611715.6204       4101.57548      7181.98062
  21436340.769    -3494271.441 7  -2635558.52422
  21664722.292    -4229476.590 7  -3140423.92022
  23967513.690     2423041.887 4   1806962.55821
  23353759.8314    1145105.77045    855818.50561
 92  5  5  0 17 14.9990000  0  5G13G12G24G 6G 2
  20612214.8944       6718.39648      9221.05662
  21426922.378    -3543768.737 7  -2674127.83122
  21653050.808    -4290804.045 7  -3188211.49522
  23974870.6204    2461690.95245   1837078.56961
  23357415.3624    1164313.22545    870785.28461
 92  5  5  0 17 29.9990000  0  5G13G12G24G 6G 2
  20612726.2844       9398.96648     11309.80762
  21417520.722    -3593161.557 7  -2712615.73022
  21641395.690    -4352050.135 7  -3235935.67722
  23982237.2304    2500384.79445   1867229.44361
  23361078.409     1183571.347 5    885791.52021
 92  5  5  0 17 44.9990000  0  5G13G12G24G 6G 2
  20613248.2694      12154.03748     13456.60462
  21408142.933    -3642438.760 7  -2751013.53422
  21629759.753    -4413203.304 7  -3283587.45022
  23989610.2764    2539133.55845   1897423.14261
  23364758.792     1202888.549 5    900843.78921
 92  5  5  0 17 59.9990000  0  5G13G12G24G 6G 2
  20613786.6284      14977.43048     15656.64362
  21398786.198    -3691605.930 7  -2789325.60222
  21618140.183    -4474268.558 7  -3331170.71922
  23996998.3554    2577931.23545   1927654.94261
  23368442.3314    1222259.60645    915938.06261
 92  5  5  0 18 14.9990000  0  5G13G12G24G 6G 2
  20614337.2534      17866.60948     17907.94462
  21389450.995    -3740664.945 7  -2827553.38922
  21606535.2454   -4535246.53447  -3378685.98262
  24004384.0814    2616775.28345   1957922.89161
  23372139.300     1241682.469 5    931072.65421
 92  5  5  0 18 29.9990000  0  5G13G12G24G 6G 2
  20614897.7224      20822.43048     20211.17362
  21380135.3704   -3789614.38247  -2865695.80262
  21594950.480    -4596134.517 7  -3426131.11522
  24011782.870     2655666.583 4   1988227.64521
  23375846.401     1261159.628 5    946249.57021
 92  5  5  0 18 44.9990000  0  5G13G12G24G 6G 2
  20615473.1444      23841.44448     22563.64362
  21370844.722    -3838456.842 7  -2903754.84822
  21583379.378    -4656937.006 7  -3473509.63122
  24019194.980     2694601.756 4   2018566.60921
  23379566.1204    1280690.55245    961468.40461
 92  5  5  0 18 59.9990000  0  5G13G12G24G 6G 2
  20616060.6364      26928.24848     24968.93562
  21361567.3314   -3887187.44147  -2941726.73462
  21571825.722    -4717650.710 7  -3520818.96822
  24026614.5424    2733585.17144   2048943.12761
  23383291.9484    1300279.09945    976732.10061
 92  5  5  0 19 14.9990000  0  5G13G12G24G 6G 2
  20616658.8474      30076.17348     27421.85762
  21352317.003    -3935812.129 7  -2979616.08622
  21560286.956    -4778282.072 7  -3568064.14522
  24034036.620     2772610.095 5   2079352.00021
  23387031.597     1319918.476 5    992035.44421
 92  5  5  0 19 29.9990000  0  5G13G12G24G 6G 2
  20617271.4484      33293.91148     29929.17662
  21343083.6904   -3984321.70047  -3017415.74562
  21548766.167    -4838821.114 7  -3615237.38122
  24041474.956     2811685.058 4   2109799.87721
  23390780.8784    1339615.17845   1007383.42961
 92  5  5  0 19 44.9990000  0  5G13G12G24G 6G 2
  20617898.956       36582.273 8     32491.52322
  21333874.5974   -4032714.84247  -3055124.67762
  21537266.198    -4899265.734 7  -3662337.03622
  24048916.800     2850810.815 4   2140287.31721
  23394539.3314    1359366.09045   1022773.65761
 92  5  5  0 19 59.9990000  0  5G13G12G24G 6G 2
  20618536.2694      39933.56548     35102.91162
  21324687.1054   -4080998.36947  -3092748.19262
  21525780.230    -4959622.022 7  -3709367.87022
  24056366.2454    2889979.79444   2170808.44761
  23398306.019     1379166.263 5   1038202.28521
 92  5  5  0 20 14.9990000  0  5G13G12G24G 6G 2
  20619184.0814      43349.04948     37764.32062
  21315522.2764   -4129170.77647  -3130285.12462
  21514312.0114   -5019889.71547  -3756329.67262
  24063837.214     2929192.944 4   2201364.00121
  23402083.5504    1399018.00445   1053671.07261
 92  5  5  0 20 29.9990000  0  5G13G12G24G 6G 2
  20619859.7224      46890.70248     40524.03962
  21306389.8624   -4177169.24847  -3167686.52262
  21502869.808    -5080008.882 7  -3803175.73422
  24071315.4564    2968512.43844   2232002.38461
  23405884.7614    1418983.51645   1069228.52161
 92  5  5  0 20 44.9990000  0  5G13G12G24G 6G 2
  20620547.714       50505.277 8     43340.58122
  21297279.1514   -4225046.39847  -3204993.38362
  21491447.823    -5140033.113 7  -3849947.81722
  24078813.0504    3007885.03445   2262682.17261
  23409688.6594    1439011.07845   1084834.33161
 92  5  5  0 20 59.9990000  0  5G13G12G24G 6G 2
  20621241.9254      54168.97948     46195.41162
  21288183.0894   -4272825.27847  -3242223.66962
  21480039.948    -5199984.069 7  -3896662.81022
  24086307.5734    3047286.84844   2293384.73261
  23413509.433     1459075.555 5   1100468.88521
 92  5  5  0 21 14.9990000  0  5G13G12G24G 6G 2
  20621945.6984      57855.75448     49068.21562
  21279107.0974   -4320531.91147  -3279397.65962
  21468641.136    -5259884.107 7  -3943338.11722
  24093800.355     3086691.691 4   2324089.66421
  23417330.245     1479150.720 5   1116111.77121
 92  5  5  0 21 29.9990000  0  5G13G12G24G 6G 2
  20622674.1674      61683.97448     52051.23262
  21270065.5194   -4368046.74047  -3316422.19162
  21457274.8394   -5319612.42347  -3989879.62962
  24101328.3864    3126218.01545   2354889.21061
  23421173.487     1499355.532 5   1131855.66821
 92  5  5  0 21 44.9990000  0  5G13G12G24G 6G 2
  20623393.433       65468.510 8     55000.20922
  21261024.5194   -4415554.60547  -3353441.29762
  21445906.940    -5379355.128 7  -4036432.34622
  24108834.3084    3165680.44544   2385639.00161
  23425012.2694    1519506.01045   1147557.24461
 92  5  5  0 21 59.9990000  0  5G13G12G24G 6G 2
  20624127.8864      69324.47348     58004.84762
  21252007.9404   -4462939.67647  -3390364.71862
  21434557.175    -5438995.892 7  -4082905.62722
  24116356.378     3205194.350 4   2416428.87821
  23428859.6054    1539723.31145   1163310.89661
 92  5  5  0 22 14.9990000  0  5G13G12G24G 6G 2
  20624874.4334      73247.45248     61061.48562
  21243012.792    -4510205.876 7  -3427195.73422
  21423228.292    -5498538.477 7  -4129302.63122
  24123885.456     3244754.538 4
  23432722.1904    1560003.83045   1179113.59361
 92  5  5  0 22 29.9990000  0  5G13G12G24G 6G 2
  20625666.9954      77415.80448     64309.76662
  21234075.5344   -4557174.25847  -3463794.23962
  21411948.6284   -5557804.18047  -4175483.43462
  24131451.5344    3284540.80644
  23436619.0114    1580523.44945   1195103.02961
 92  5  5  0 22 44.9990000  0  5G13G12G24G 6G 2
  20626438.7374      81460.48648     67461.45862
  21225124.9334   -4604213.09947  -3500447.87162
  21400653.5584   -5617161.48347  -4221735.84062
  24138997.4644    3324182.72844
  23440503.011     1600914.395 5   1210991.97321
 92  5  5  0 22 59.9990000  0  4G13G12G24G 2
  20627258.2064      85776.58948     70824.87462
  21216234.089    -4650926.784 7  -3536847.90822
  21389414.8784   -5676212.98247  -4267749.73462
  23444431.800     1621570.896 5   1227088.07321
 92  5  5  0 23 14.9990000  0  5G13G12G24G 6G 2
  20628052.7454      89942.29048     74070.63562
  21207328.487    -4697736.804 7  -3573323.46022
  21378156.1364   -5735382.34447  -4313855.91462
  24154150.7534      39721.75344
  23448328.5734    1642068.14145   1243059.61161
 92  5  5  0 23 29.9990000  0  5G13G12G24G 6G 2
  20628855.3394      94167.83348     77363.26162
  21198441.370    -4744432.309 7  -3609709.55422
  21366915.0894   -5794459.28647  -4359889.85562
  24161708.534       79483.025 3
  23452241.5034    1662614.63345   1259069.75161
 92  5  5  0 23 44.9990000  0  5G13G12G24G 6G 2
  20629674.3554      98466.92648     80713.69862
  21189579.503    -4790998.757 7  -3645994.58822
  21355693.105    -5853431.739 7  -4405841.87922
  24169297.0654     119297.38744
  23456165.7454    1683224.70845   1275129.96461
 92  5  5  0 23 59.9990000  0  5G13G12G24G 6G 2
  20630504.9644     102828.33648     84111.69062
  21180740.2844   -4837446.91447  -3682188.44262
  21344488.8944   -5912312.40647  -4451723.37762
  24176881.5194     159153.52245
  23460100.3004    1703887.52845   1291230.26361
 92  5  5  0 24 14.9990000  0  5G13G12G24G 6G 2
  20631342.4254     107238.38548     87548.08262
  21171923.378    -4883789.886 7  -3718299.83522
  21333298.0654   -5971112.22247  -4497541.37662
  24184463.9334     199037.74444        -0.41671
  23464031.722     1724586.314 5   1307359.11421
 92  5  5  0 24 29.9990000  0  5G13G12G24G 6G 2
  20632239.4954     111941.13048     91212.55562
  21163169.003    -4929783.190 7  -3754138.75722
  21322169.784    -6029587.831 7  -4543106.74722
  24192106.1284     239193.81544     31289.86061
  23468028.6754    1745559.03545   1323701.38861
 92  5  5  0 24 44.9990000  0  5G13G12G24G 6G 2
  20633184.8314     116908.56848     95083.27562
  21154481.362    -4975454.092 7  -3789726.46022
  21311100.823    -6087767.889 7  -4588441.81422
  24199796.3314     279593.69844     62770.12461
  23472068.706     1766779.971 5   1340237.07821
 92  5  5  0 24 59.9990000  0  5G13G12G24G 6G 2
  20634073.581      121577.715 8     98721.56222
  21145741.1204   -5021364.92847  -3825501.12662
  21299977.2374   -6146213.80847  -4633984.05662
  24207429.901      319674.546 5     94001.78021
  23476046.1754    1787686.76145   1356527.98161
 92  5  5  0 25 14.9990000  0  5G13G12G24G 6G 2
  20634995.4804     126426.38347    102499.73562
  21137053.253    -5067037.607 7  -3861090.21122
  21288895.472    -6204446.253 7  -4679359.94822
  24215087.230      359914.114 5    125357.10321
  23480053.1904    1808756.61145   1372945.94061
 92  5  5  0 25 29.9990000  0  5G13G12G24G 6G 2
  20635974.1364     131579.22847    106514.93562
  21128430.308    -5112346.371 7  -3896395.72822
  21277880.4174   -6262339.59247  -4724471.60162
  24222790.6674     400436.98644    156933.20861
  23484116.0734    1830115.99845   1389589.51461
 92  5  5  0 25 44.9990000  0  5G13G12G24G 6G 2
  20636968.1674     136793.57148    110578.05362
  21119828.440    -5157533.736 7  -3931606.65022
  21266880.4644   -6320138.36547  -4769509.57262
  24230509.1984     441000.28844    188540.82261
  23488192.003     1851526.578 5   1406272.98421
 92  5  5  0 25 59.9990000  0  5G13G12G24G 6G 2
  20637925.2924     141826.07647    114498.97462
  21111208.745    -5202842.363 7  -3966912.56122
  21255854.3864   -6378085.89447  -4814663.95262
  24238197.347      481360.829 4    219989.87921
  23492234.4404    1872748.07945   1422808.60561
 92  5  5  0 26 14.9990000  0  5G13G12G24G 6G 2
  20638857.800      146725.679 7    118317.33522
  21102573.058    -5248222.657 7  -4002273.31322
  21244808.8154   -6436130.99947  -4859893.36562
  24245843.105      521567.280 4    251319.43121
  23496242.698     1893829.484 5   1439235.57121
 92  5  5  0 26 29.9990000  0  5G13G12G24G 6G 2
  20639858.0974     151990.20948    122419.55862
  21094017.183    -5293176.264 7  -4037302.08622
  21233839.5814   -6493773.76647  -4904809.76762
  24253562.3784     562117.55744    282916.88461
  23500324.6364    1915269.84645   1455942.25661
 92  5  5  0 26 44.9990000  0  5G13G12G24G 6G 2
  20640904.050      157482.741 7    126699.43922
  21085519.409    -5337839.555 7  -4072104.64022
  21222919.7064   -6551151.34347  -4949519.53662
  24261312.730      602874.819 3    314675.60321
  23504449.573     1936939.052 5   1472827.24521
 92  5  5  0 26 59.9990000  0  1G24
  21211981.2614   -6608639.97947  -4994315.83062
 92  5  5  0 27 14.9990000  0  5G13G12G24G 6G 2
  20642989.8784       5610.22047
  21068550.0894     -44418.75147
  21201100.4724   -6665819.74247  -5038871.45462
  24276803.6834      40832.43843
  23512688.464       21789.404 5
 92  5  5  0 27 29.9990000  0  4G13G12G24G 2
  20644070.4804      11296.51847
  21060124.401      -88697.935 7        -0.12932
  21190240.8394   -6722883.63247  -5083336.79562
  23516845.3084      43655.75745
 92  5  5  0 27 44.9990000  0  4G13G12G24G 2
  20645161.347       17042.228 7        -0.15132
  21051723.3004    -132853.10947    -34406.74762
  21179400.8624   -6779847.19747  -5127723.94862
  23521016.495       65581.690 5        -0.47731
 92  5  5  0 27 59.9990000  0  4G13G12G24G 2
  20646265.784       22840.751 7      4518.16522
  21043342.597     -176890.329 7    -68721.45322
  21168580.4724   -6836713.60647  -5172035.40462
  23525206.3004      87561.40845     17126.44761
 92  5  5  0 28 14.9990000  0  4G13G12G24G 2
  20647380.6834      28685.38747      9072.41862
  21034983.7304    -220815.83247   -102949.10562
  21157776.8784   -6893485.61047  -5216273.29162
  23529396.5344     109586.91745     34289.10261
 92  5  5  0 28 29.9990000  0  4G13G12G24G 2
  20648498.6984      34574.31247     13661.17562
  21026645.8944    -264630.96647   -137090.75662
  21146990.8394   -6950163.66847  -5260437.98062
  23533594.9484     131653.69345     51483.87061
 92  5  5  0 28 44.9990000  0  4G13G12G24G 2
  20649634.198       40542.116 7     18311.39722
  21018335.1124    -308300.15647   -171118.68762
  21136230.9954   -7006712.93547  -5304502.30962
  23537809.9724     153796.33745     68737.76961
 92  5  5  0 28 59.9990000  0  4G13G12G24G 2
  20650784.0344      46569.44647     23008.00862
  21010051.808     -351842.453 7   -205047.74022
  21125491.3234   -7063151.82347  -5348480.63362
  23542033.605      175993.108 5     86033.86321
 92  5  5  0 29 14.9990000  0  4G13G12G24G 2
  20651940.6054      52668.99547     27760.89162
  21001788.1444    -395244.50147   -238867.50762
  21114773.3234   -7119469.67647  -5392364.64262
  23546272.526      198253.967 5    103379.86221
 92  5  5  0 29 29.9990000  0  4G13G12G24G 2
  20653115.081       58830.103 7     32561.74122
  20993559.128     -438516.557 7   -272585.98322
  21104077.5894   -7175677.35847  -5436162.80462
  23550513.230      220570.600 5    120769.34921
 92  5  5  0 29 44.9990000  0  4G13G12G24G 2
  20654296.8154      65045.62747     37405.00062
  20985344.9334    -481665.20947   -306208.29762
  21093402.1674   -7231779.93347  -5479879.06362
  23554772.995      242937.057 5    138197.66321
 92  5  5  0 29 59.9980000  0  4G13G12G24G 2
  20655491.506       71314.093 7     42289.50121
  20977158.0924    -524688.14747   -339732.65862
  21082745.5454   -7287775.80647  -5523512.17662
  23559037.5534     265352.96445    155664.50361
 92  5  5  0 30 14.9980000  0  4G13G12G24G 2
  20656696.209       77643.944 7     47221.83622
  20968995.3344    -567582.58947   -373156.88762
  21072109.4754   -7343666.34847  -5567063.21962
  23563311.154      287829.146 5    173178.28221
 92  5  5  0 30 29.9980000  0  4G13G12G24G 2
  20657912.014       84028.739 8     52196.99221
  20960856.4124    -610351.37347   -406483.20362
  21061493.1704   -7399456.46147  -5610536.00062
  23567604.889      310355.229 5    190730.96621
 92  5  5  0 30 44.9980000  0  4G13G12G24G 2
  20659136.1394      90465.40547     57212.56362
  20952743.6704    -652996.85947   -439713.44462
  21050894.5374   -7455149.93047  -5653933.47862
  23571897.1474     332929.72045    208321.37961
 92  5  5  0 30 59.9980000  0  4G13G12G24G 2
  20660369.225       96952.204 7     62267.19921
  20944649.9674    -695520.53647   -472848.76862
  21040314.2484   -7510748.08747  -5697256.68662
  23576206.404      355554.363 5    225950.86721
 92  5  5  0 31 14.9980000  0  4G13G12G24G 2
  20661616.1474     103497.35747     67367.30562
  20936582.8894    -737913.47547   -505882.21862
  21029753.1314   -7566244.29247  -5740500.44762
  23580512.2794     378236.25644    243624.97961
 92  5  5  0 31 29.9980000  0  4G13G12G24G 2
  20662872.248      110106.312 7     72517.12421
  20928541.8504    -780169.96847   -538809.34962
  21019213.7874   -7621633.09747  -5783660.52562
  23584846.9284     400982.29444    261349.02961
 92  5  5  0 31 44.9980000  0  4G13G12G24G 2
  20664136.818      116745.460 8     77690.47322
  20920518.6934    -822322.66547   -571655.59562
  21008688.9284   -7676945.75447  -5826761.26462
  23589171.779      423758.691 4    279096.74821
 92  5  5  0 31 59.9980000  0  4G13G12G24G 2
  20665408.2564     123432.11248     82900.84262
  20912523.0294    -864353.65947   -604407.01262
  20998180.4514   -7732166.50447  -5869790.38762
  23593524.6004     446582.75744    296881.60761
 92  5  5  0 32 14.9980000  0  3G13G12G24
  20666675.811      130093.214 8     88091.30122
  20904533.9434    -906335.53447   -637120.15762
  20987675.6074   -7787366.76447  -5912803.54362
 92  5  5  0 32 29.9980000  0  3G13G12G24
  20667936.717      136716.899 7     93252.60221
  20896551.2094    -948279.56747   -669803.81062
  20977173.0844   -7842557.25147  -5955809.08462
 92  5  5  0 32 44.9980000  0  3G13G12G24
  20669203.1234     143373.18847     98439.30962
  20888592.0844    -990115.26747   -702403.04662
  20966685.7014   -7897666.83447  -5998751.58962
 92  5  5  0 32 59.9980000  0  1G24
  20956173.4674   -7952915.47147
 92  5  5  0 33 14.9980000  0  3G13G12G24
  20671661.6154         -0.85958
  20872637.576          -0.34017
  20945665.147          -0.09217
 92  5  5  0 33 29.9980000  0  3G13G12G24
  20672901.0294       6506.51748
  20864688.9984     -41754.90447
  20935178.287      -55108.454 7
 92  5  5  0 33 44.9980000  0  3G13G12G24
  20674159.9204      13134.33948        -0.19972
  20856781.7644     -83311.22647        -0.29072
  20924725.6004    -110042.82547        -0.42472
 92  5  5  0 33 59.9980000  0  3G13G12G24
  20675419.756       19750.019 8      5154.86321
  20848887.7874    -124801.26147    -32330.18462
  20914280.0614    -164935.47947    -42773.89362
 92  5  5  0 34 14.9980000  0  3G13G12G24
  20676676.3424      26359.74248     10305.28661
  20841005.2014    -166218.36747    -64603.23762
  20903842.6934    -219777.83147    -85508.15962
 92  5  5  0 34 29.9980000  0  3G13G12G24
  20677946.7254      33023.26348     15497.62961
  20833149.068     -207502.183 7    -96772.43522
  20893428.6234    -274508.22747   -128155.19462
 92  5  5  0 34 44.9980000  0  3G13G12G24
  20679232.2644      39780.91848     20763.32061
  20825325.732     -248611.898 7   -128805.96622
  20883042.1934    -329086.51847   -170683.69762
 92  5  5  0 34 59.9980000  0  3G13G12G24
  20680518.795       46547.296 8     26035.81022
  20817521.3344    -289632.37447   -160769.96262
  20872668.8974    -383597.14947   -213159.48162
 92  5  5  0 35 14.9980000  0  3G13G12G24
  20681825.615       53415.602 7     31387.72321
  20809749.350     -330470.133 7   -192591.58022
  20862326.9204    -437945.56747   -255508.86962
 92  5  5  0 35 29.9980000  0  3G13G12G24
  20683140.0924      60333.16247     36778.02361
  20802000.6704    -371177.18847   -224311.35462
  20852006.0064    -492184.16747   -297772.68062
 92  5  5  0 35 44.9980000  0  3G13G12G24
  20684457.5534      67246.82848     42165.28561
  20794272.9984    -411806.15547   -255970.28062
  20841694.8894    -546362.69647   -339989.69162
 92  5  5  0 35 59.9980000  0  3G13G12G24
  20685787.389       74233.811 7     47609.67321
  20786570.1704    -452279.23947   -287507.74062
  20831410.2484    -600405.54547   -382100.97262
 92  5  5  0 36 14.9980000  0  3G13G12G24
  20687119.732       81235.070 8     53065.19122
  20778885.615     -492654.977 7   -318969.34122
  20821140.7564    -654372.31847   -424152.97262
 92  5  5  0 36 29.9980000  0  3G13G12G24
  20688462.1474      88284.93248     58558.58261
  20771229.1864    -532898.35547   -350327.80862
  20810893.1074    -708228.02447   -466118.42762
 92  5  5  0 36 44.9980000  0  3G13G12G24
  20689807.943       95361.547 7     64072.80721
  20763591.8814    -573030.91647   -381599.92362
  20800661.7874    -761996.87747   -508016.20962
 92  5  5  0 36 59.9980000  0  3G13G12G24
  20691175.0614     102544.58847     69669.97661
  20755991.2254    -612972.51847   -412723.23862
  20790460.3734    -815597.86647   -549783.18662
 92  5  5  0 37 14.9980000  0  3G13G12G24
  20692546.381      109758.667 8     75291.32322
  20748412.0764    -652797.76247   -443755.88962
  20780278.7564    -869105.54347   -591477.44962
 92  5  5  0 37 29.9980000  0  3G13G12G24
  20693931.5614     117016.33248     80946.63261
  20740858.1624    -692493.69347   -474687.77362
  20770118.7094    -922506.23647   -633088.35062
 92  5  5  0 37 44.9980000  0  3G13G12G24
  20695313.990      124293.981 7     86617.51821
  20733325.1704    -732083.70547   -505537.12162
  20759971.7484    -975823.35447   -674634.12962
 92  5  5  0 37 59.9980000  0  3G13G12G24
  20696705.670      131602.617 7     92312.54921
  20725814.1474    -771556.03647   -536294.77362
  20749843.0844   -1029046.75247   -716106.87762
 92  5  5  0 38 14.9980000  0  3G13G12G24
  20698103.3654     138947.19648     98035.58961
  20718323.9674    -810905.20447   -566956.45662
  20739733.9204   -1082172.17147   -757503.27962
 92  5  5  0 38 29.9980000  0  3G13G12G24
  20699505.443      146325.426 7    103784.84721
  20710861.561     -850132.793 7   -597523.39822
  20729642.6314   -1135198.60147   -798822.54762
 92  5  5  0 38 44.9980000  0  3G13G12G24
  20700919.9434     153750.03748    109570.25561
  20703421.0064    -889225.94647   -627985.58762
  20719574.3264   -1188112.52947   -840054.15162
 92  5  5  0 38 59.9980000  0  3G13G12G24
  20702342.4124     161238.45547    115405.37262
  20696012.4514    -928166.55447   -658328.91262
  20709529.6934   -1240895.55547   -881183.75262
 92  5  5  0 39 14.9980000  0  3G13G12G24
  20703777.8424     168764.62948    121269.91761
  20688625.6234    -966980.12047   -688573.24262
  20699505.1704   -1293571.04347   -922229.55562
 92  5  5  0 39 29.9980000  0  3G13G12G24
  20705214.3344     176321.38647    127158.28761
  20681262.3264   -1005673.29947   -718723.76562
  20689499.7484   -1346146.83947   -963197.68162
 92  5  5  0 39 44.9980000  0  3G13G12G24
  20706662.8184     183926.68548    133084.49061
  20673926.1234   -1044227.76847   -748766.20362
  20679517.7254   -1398606.92547  -1004075.63662
 92  5  5  0 39 59.9980000  0  3G13G12G24
  20708116.9364     191590.06647    139055.94462
  20666616.8894   -1082633.31447   -778692.59662
  20669560.1934   -1450942.12747  -1044856.28662
 92  5  5  0 40 14.9980000  0  3G13G12G24
  20709589.6864     199313.54047    145074.22961
  20659337.7874   -1120887.65547   -808501.16862
  20659625.2954   -1503150.91447  -1085538.42662
 92  5  5  0 40 29.9980000  0  3G13G12G24
  20711075.170      207115.191 7    151153.42721
  20652089.8734   -1158972.25947   -838177.47962
  20649717.8424   -1555213.07347  -1126106.31062
 92  5  5  0 40 44.9980000  0  3G13G12G24
  20712568.2254     214968.74947    157273.07261
  20644871.8424   -1196912.67947   -867741.43862
  20639833.7794   -1607154.57647  -1166580.18162
 92  5  5  0 40 59.9980000  0  3G13G12G24
  20714075.9984     222888.10147    163443.98161
  20637680.9674   -1234694.48647   -897181.80462
  20629973.5224   -1658963.63447  -1206950.84762
 92  5  5  0 41 14.9980000  0  3G13G12G24
  20715605.4674     230932.72747    169712.51961
  20630536.0764   -1272257.71747   -926451.85362
  20620152.6234   -1710581.71947  -1247172.69962
 92  5  5  0 41 29.9980000  0  3G13G12G24
  20717151.2324     239048.75147    176036.68261
  20623417.0614   -1309655.93447   -955593.31862
  20610354.5924   -1762065.01547  -1287289.52462
 92  5  5  0 41 44.9980000  0  3G13G12G24
  20718708.1934     247226.85747    182409.22661
  20616327.2564   -1346898.13247   -984613.20862
  20600581.5454   -1813424.44247  -1327309.82862
 92  5  5  0 41 59.9980000  0  3G13G12G24
  20720270.5224     255440.00747    188809.07261
  20609268.6864   -1384010.47047  -1013531.91562
  20590826.4904   -1864686.75847  -1367254.46262
 92  5  5  0 42 14.9980000  0  3G13G12G24
  20721841.6154     263699.57347    195245.09061
  20602232.2484   -1420981.06647  -1042340.17062
  20581092.3574   -1915839.66747  -1407113.84162
 92  5  5  0 42 29.9980000  0  3G13G12G24
  20723420.857      271989.059 7    201704.41921
  20595219.7954   -1457826.23247  -1071050.68962
  20571375.2564   -1966898.82547  -1446900.16762
 92  5  5  0 42 44.9980000  0  3G13G12G24
  20725004.545      280313.934 7    208191.32121
  20588235.1394   -1494540.07947  -1099658.88062
  20561678.5064   -2017858.82247  -1486609.23262
 92  5  5  0 42 59.9980000  0  3G13G12G24
  20726595.1624     288666.58047    214699.86961
  20581271.2254   -1531129.46547  -1128170.09162
  20551998.951    -2068727.830 7  -1526247.39322
 92  5  5  0 43 14.9980000  0  3G13G12G24
  20728188.3034     297043.84547    221227.59661
  20574331.6074   -1567597.29347  -1156586.58062
  20542336.3424   -2119507.63047  -1565816.03862
 92  5  5  0 43 29.9980000  0  3G13G12G24
  20729778.2564     305411.32647    227747.70261
  20567409.8424   -1603977.29847  -1184934.63262
  20532683.5224   -2170229.52047  -1605339.56162
 92  5  5  0 43 44.9980000  0  3G13G12G24
  20731384.3734     313848.65747    234322.23661
  20560518.5374   -1640189.27547  -1213151.75962
  20523058.4904   -2220810.17947  -1644753.03262
 92  5  5  0 43 59.9980000  0  3G13G12G24
  20733002.053      322340.656 7    240939.36321
  20553656.0684   -1676248.24147  -1241249.65062
  20513456.592    -2271262.442 7  -1684066.45722
 92  5  5  0 44 14.9980000  0  3G13G12G24
  20734625.139      330869.565 7    247585.25221
  20546818.9984   -1712171.41147  -1269241.73062
  20503878.5454   -2321602.56247  -1723292.49963
 92  5  5  0 44 29.9980000  0  3G13G12G24
  20736251.404      339425.545 7    254252.23921
  20540008.3114   -1747968.44547  -1297135.52562
  20494318.6004   -2371838.27747  -1762437.18362
 92  5  5  0 44 44.9980000  0  3G13G12G24
  20737890.0064     348031.02447    260957.79361
  20533225.5764   -1783616.20847  -1324912.99762
  20484783.3574   -2421944.84047  -1801481.23162
 92  5  5  0 44 59.9980000  0  3G13G12G24
  20739536.740      356681.748 7    267698.60021
  20526468.9364   -1819118.21247  -1352576.89862
  20475271.9044   -2471924.92747  -1840426.73062
 92  5  5  0 45 14.9980000  0  3G13G12G24
  20741187.5374     365363.99647    274463.97861
  20519738.7324   -1854487.99747  -1380137.76762
  20465783.6624   -2521791.17247  -1879283.51563
 92  5  5  0 45 29.9980000  0  3G13G12G24
  20742845.154      374072.502 7    281249.81121
  20513031.4284   -1889730.06047  -1407599.11162
  20456313.826    -2571549.144 7  -1918055.93223
 92  5  5  0 45 44.9980000  0  3G13G12G24
  20744507.514      382818.206 7    288064.62921
  20506352.6234   -1924833.24847  -1434952.24162
  20446868.4434   -2621188.14747  -1956735.64763
 92  5  5  0 45 59.9980000  0  3G13G12G24
  20746179.115      391595.731 7    294904.24521
  20499696.2954   -1959802.28247  -1462200.83862
  20437442.6474   -2670717.00947  -1995329.54063
 92  5  5  0 46 14.9980000  0  3G13G12G24
  20747856.576      400401.382 7    301765.77821
  20493067.9594   -1994640.59447  -1489347.56862
  20428039.4284   -2720140.31647  -2033841.17862
 92  5  5  0 46 29.9980000  0  3G13G12G24
  20749538.014      409230.104 7    308645.28421
  20486462.1624   -2029352.88847  -1516396.10562
  20418653.2954   -2769462.58247  -2072274.09062
 92  5  5  0 46 44.9980000  0  3G13G12G24
  20751220.920      418082.383 7    315543.14721
  20479882.1474   -2063938.06847  -1543345.59362
  20409285.5844   -2818681.73847  -2110626.64862
 92  5  5  0 46 59.9980000  0  3G13G12G24
  20752911.701      426967.087 7    322466.27921
  20473324.5844   -2098387.05147  -1570188.94862
  20399941.1544   -2867789.93447  -2148892.74963
 92  5  5  0 47 14.9980000  0  3G13G12G24
  20754606.295      435882.690 7    329413.48621
  20466797.6074   -2132700.55147  -1596926.73662
  20390616.1074   -2916789.94647  -2187074.55262
 92  5  5  0 47 29.9980000  0  3G13G12G24
  20756313.5144     444845.22847    336397.26661
  20460297.4514   -2166862.19247  -1623546.19362
  20381317.389    -2965666.316 7  -2225160.00922
 92  5  5  0 47 44.9980000  0  3G13G12G24
  20758026.779      453847.734 8    343412.19021
  20453820.9124   -2200878.39647  -1650052.32062
  20372038.256    -3014426.279 7  -2263154.75922
 92  5  5  0 47 59.9980000  0  3G13G12G24
  20759747.0534     462893.00247    350460.43861
  20447376.3574   -2234746.12547  -1676442.75462
  20362782.490    -3063065.284 7  -2301055.25922
 92  5  5  0 48 14.9980000  0  3G13G12G24
  20761477.272      471977.845 7    357539.51821
  20440959.4824   -2268468.13247  -1702719.63662
  20353549.1864   -3111583.37447  -2338861.53562
 92  5  5  0 48 29.9980000  0  3G13G12G24
  20763211.475      481098.719 7    364646.67721
  20434570.3424   -2302047.50347  -1728885.37162
  20344338.967    -3159980.300 7  -2376573.39822
 92  5  5  0 48 44.9980000  0  3G13G12G24
  20764954.443      490245.798 7    371774.25821
  20428207.8814   -2335493.57847  -1754947.24262
  20335150.404    -3208266.539 7  -2414199.01423
 92  5  5  0 48 59.9980000  0  3G13G12G24
  20766700.092      499429.521 7    378930.39121
  20421868.6394   -2368795.60747  -1780896.87162
  20325985.201    -3256431.557 7  -2451730.17323
 92  5  5  0 49 14.9980000  0  3G13G12G24
  20768454.522      508650.145 7    386115.27921
  20415560.3344   -2401952.89247  -1806733.71162
  20316841.7564   -3304476.59047  -2489167.83463
 92  5  5  0 49 29.9980000  0  3G13G12G24
  20770216.826      517905.013 7    393326.85421
  20409276.1624   -2434967.84147  -1832459.64362
  20307722.1004   -3352403.18447  -2526513.20663
 92  5  5  0 49 44.9970000  0  3G13G12G24
  20771980.8374     527188.56147    400560.77861
  20403020.3534   -2467842.71247  -1858076.41962
  20298624.649    -3400211.130 7  -2563766.12622
 92  5  5  0 49 59.9970000  0  3G13G12G24
  20773755.056      536508.236 7    407822.84621
  20396793.2434   -2500574.66447  -1883581.83562
  20289548.532    -3447898.806 7  -2600925.32723
 92  5  5  0 50 14.9970000  0  3G13G12G24
  20775535.110      545849.077 7    415101.40621
  20390587.7594   -2533175.93747  -1908985.41862
  20280495.118    -3495476.652 7  -2637998.94723
 92  5  5  0 50 29.9970000  0  3G13G12G24
  20777319.446      555224.991 7    422407.30321
  20384413.1344   -2565632.23847  -1934276.04062
  20271464.126    -3542931.707 7  -2674976.88822
 92  5  5  0 50 44.9970000  0  3G13G12G24
  20779107.618      564623.804 7    429731.03921
  20378261.6424   -2597955.06247  -1959462.65462
  20262455.040    -3590279.606 7  -2711871.32723
 92  5  5  0 50 59.9970000  0  3G13G12G24
  20780903.4074     574061.56647    437085.12961
  20372138.5324   -2630128.14947  -1984532.59162
  20253469.353    -3637503.688 7  -2748669.29222
 92  5  5  0 51 14.9970000  0  3G13G12G24
  20782703.345      583537.929 7    444469.29421
  20366045.1734   -2662151.48347  -2009485.83662
  20244506.431    -3684603.838 7  -2785370.68123
 92  5  5  0 51 29.9970000  0  3G13G12G24
  20784515.048      593045.981 7    451878.14821
  20359977.3144   -2694031.43947  -2034327.35662
  20235566.399    -3731586.664 7  -2821980.65023
 92  5  5  0 51 44.9970000  0  3G13G12G24
  20786328.595      602577.581 7    459305.35821
  20353938.3604   -2725775.85347  -2059063.26162
  20226647.345    -3778458.855 7  -2858504.41123
 92  5  5  0 51 59.9970000  0  3G13G12G24
  20788147.790      612139.122 7    466755.88721
  20347922.8764   -2757377.56347  -2083687.96862
  20217748.962    -3825216.098 7  -2894938.60022
 92  5  5  0 52 14.9970000  0  3G13G12G24
  20789972.118      621727.551 7    474227.37821
  20341937.0094   -2788839.45047  -2108203.72362
  20208873.649    -3871861.949 7  -2931285.99022
 92  5  5  0 52 29.9970000  0  3G13G12G24
  20791803.1894     631341.33947    481718.63161
  20335975.4624   -2820162.77547  -2132611.50762
  20200017.392    -3918399.409 7  -2967548.92523
 92  5  5  0 52 44.9970000  0  3G13G12G24
  20793637.954      640985.192 7    489233.30321
  20330044.1654   -2851342.30147  -2156907.24262
  20191182.790    -3964824.096 7  -3003723.98323
 92  5  5  0 52 59.9970000  0  3G13G12G24
  20795480.079      650663.323 7    496774.68721
  20324138.1034   -2882373.43747  -2181087.34462
  20182370.368    -4011131.621 7  -3039807.74723
 92  5  5  0 53 14.9970000  0  3G13G12G24
  20797326.079      660367.249 7    504336.17121
  20318260.0644   -2913264.22447  -2205158.08962
  20173579.392    -4057329.383 7  -3075805.97323
 92  5  5  0 53 29.9970000  0  3G13G12G24
  20799179.165      670097.667 7    511918.29921
  20312407.8144   -2944013.74047  -2229118.74662
  20164808.853    -4103418.617 7  -3111719.64223
 92  5  5  0 53 44.9970000  0  3G13G12G24
  20801032.1344     679853.51047    519520.24261
  20306583.5954   -2974622.69947  -2252969.88062
  20156058.720    -4149398.728 7  -3147548.28123
 92  5  5  0 53 59.9970000  0  3G13G12G24
  20802897.493      689638.970 7    527145.25921
  20300785.8994   -3005086.11747  -2276707.60462
  20147329.290    -4195267.012 7  -3183289.77723
 92  5  5  0 54 14.9970000  0  3G13G12G24
  20804762.267      699443.235 7    534784.93521
  20295015.5644   -3035414.55847  -2300340.15262
  20138619.970    -4241033.754 7  -3218952.14823
 92  5  5  0 54 29.9970000  0  3G13G12G24
  20806633.532      709272.158 7    542443.81721
  20289272.0874   -3065601.75347  -2323862.63862
  20129932.720    -4286689.341 7  -3254527.91022
 92  5  5  0 54 44.9970000  0  3G13G12G24
  20808504.829      719125.111 7    550121.43121
  20283553.2744   -3095648.22047  -2347275.46762
  20121265.376    -4332234.531 7  -3290017.64822
 92  5  5  0 54 59.9970000  0  3G13G12G24
  20810386.759      729008.276 7    557822.57921
  20277864.8454   -3125547.08547  -2370573.28362
  20112621.259    -4377660.995 7  -3325414.87322
 92  5  5  0 55 14.9970000  0  3G13G12G24
  20812272.384      738914.011 7    565541.31721
  20272201.4074   -3155305.65147  -2393761.77362
  20103998.681    -4422975.728 7  -3360725.02823
 92  5  5  0 55 29.9970000  0  3G13G12G24
  20814162.814      748856.534 7    573288.71521
  20266566.1734   -3184909.50347  -2416829.70762
  20095400.868    -4468163.391 7  -3395936.17223
 92  5  5  0 55 44.9970000  0  3G13G12G24
  20816061.126      758827.710 7    581058.44521
  20260961.3374   -3214366.48147  -2439783.19362
  20086824.204    -4513231.801 7  -3431054.39323
 92  5  5  0 55 59.9970000  0  3G13G12G24
  20817965.892      768823.768 7    588847.56421
  20255383.1424   -3243679.78447  -2462624.72962
  20078269.118    -4558181.839 7  -3466080.37323
 92  5  5  0 56 14.9970000  0  3G13G12G24
  20819871.321      778846.413 7    596657.40121
  20249832.7904   -3272847.32247  -2485352.67662
  20069739.384    -4603010.545 7  -3501011.80923
 92  5  5  0 56 29.9970000  0  3G13G12G24
  20821785.087      788905.464 7    604495.60621
  20244313.1104   -3301859.02147  -2507959.19662
  20061232.712    -4647704.464 7  -3535838.22123
 92  5  5  0 56 44.9970000  0  3G13G12G24
  20823709.259      799001.990 7    612363.00721
  20238823.0324   -3330713.42447  -2530443.14562
  20052755.134    -4692263.076 7  -3570559.19323
 92  5  5  0 56 59.9970000  0  3G13G12G24
  20825632.696      809127.171 7    620252.74121
  20233358.9934   -3359419.00247  -2552811.12662
  20044300.040    -4736694.351 7  -3605180.94323
 92  5  5  0 57 14.9970000  0  3G13G12G24
  20827566.540      819281.520 7    628165.19821
  20227924.4394   -3387974.79447  -2575062.39062
  20035869.798    -4780997.226 7  -3639702.64123
 92  5  5  0 57 29.9970000  0  3G13G12G24
  20829503.587      829460.777 7    636097.06121
  20222518.7984   -3416384.42747  -2597199.76462
  20027463.767    -4825174.926 7  -3674126.80123
 92  5  5  0 57 44.9970000  0  3G13G12G24
  20831445.157      839662.564 7    644046.49121
  20217141.6734   -3444650.18347  -2619225.02862
  20019079.064    -4869229.971 7  -3708455.38223
 92  5  5  0 57 59.9970000  0  3G13G12G24
  20833389.712      849889.668 7    652015.64921
  20211788.7904   -3472768.86647  -2641135.69262
  20010719.782    -4913158.816 7  -3742685.63123
 92  5  5  0 58 14.9970000  0  3G13G12G24
  20835338.462      860125.199 7    659991.37021
  20206463.8454   -3500757.11847  -2662944.71862
  20002379.931    -4956978.490 7  -3776830.80923
 92  5  5  0 58 29.9970000  0  3G13G12G24
  20837292.899      870385.872 7    667986.67521
  20201166.3924   -3528597.76447  -2684638.72662
  19994065.017    -5000675.035 7  -3810880.04323
 92  5  5  0 58 44.9970000  0  3G13G12G24
  20839249.899      880677.462 7    676006.08521
  20195898.5794   -3556284.90047  -2706213.11662
  19985774.595    -5044245.454 7  -3844830.99523
 92  5  5  0 58 59.9970000  0  3G13G12G24
  20841212.548      890994.984 7    684045.69021
  20190657.0794   -3583822.88047  -2727671.27862
  19977505.735    -5087697.051 7  -3878689.36323
 92  5  5  0 59 14.9970000  0  3G13G12G24
  20843182.892      901343.763 7    692109.65221
  20185446.1104   -3611205.98247  -2749008.75962
  19969260.524    -5131024.704 7  -3912451.14723
 92  5  5  0 59 29.9970000  0  3G13G12G24
  20845154.993      911712.430 7    700189.10921
  20180262.2824   -3638445.61347  -2770234.44762
  19961037.603    -5174241.944 7  -3946126.89823
 92  5  5  0 59 44.9970000  0  3G13G12G24
  20847132.243      922108.437 7    708289.87621
  20175106.6264   -3665533.74647  -2791342.08362
  19952835.939    -5217340.782 7  -3979710.38523
 92  5  5  0 59 59.9970000  0  3G13G12G24
  20849116.767      932531.173 7    716411.46721
  20169982.3764   -3692470.71547  -2812331.93162
  19944657.517    -5260322.673 7  -4013202.74523
 92  5  5  1  0 14.9970000  0  3G13G12G24
  20851106.587      942987.204 7    724559.00521
  20164886.7124   -3719249.53447  -2833198.54062
  19936502.087    -5303178.209 7  -4046596.64923
 92  5  5  1  0 29.9970000  0  3G13G12G24
  20853101.6034     953472.24447    732729.13761
  20159818.8764   -3745874.47847  -2853945.24962
  19928369.759    -5345910.913 7  -4079894.83923
 92  5  5  1  0 44.9970000  0  3G13G12G24
  20855100.603      963974.966 7    740913.05921
  20154779.6574   -3772356.24847  -2874580.39362
  19920259.689    -5388528.814 7  -4113103.57223
 92  5  5  1  0 59.9970000  0  3G13G12G24
  20857102.7984     974506.11547    749119.13061
  20149769.7514   -3798683.79847  -2895095.36462
  19912174.782    -5431017.417 7  -4146211.55323
 92  5  5  1  1 14.9970000  0  3G13G12G24
  20859115.454      985064.228 7    757346.21121
  20144787.8374   -3824858.14547  -2915490.96162
  19904114.517    -5473374.009 7  -4179216.66523
 92  5  5  1  1 29.9970000  0  3G13G12G24
  20861127.0644     995651.38847    765595.92461
  20139839.1814   -3850877.06147  -2935765.44062
  19896080.657    -5515595.052 7  -4212116.15923
 92  5  5  1  1 44.9970000  0  3G13G12G24
  20863149.681     1006264.528 7    773865.88621
  20134916.7904   -3876743.13747  -2955920.82362
  19888071.290    -5557681.055 7  -4244910.42823
 92  5  5  1  1 59.9970000  0  3G13G12G24
  20865171.446     1016895.479 7    782149.72321
  20130022.9544   -3902464.05747  -2975963.09562
  19880086.899    -5599638.117 7  -4277604.22023
 92  5  5  1  2 14.9970000  0  3G13G12G24
  20867199.603     1027551.565 7    790453.14521
  20125155.4784   -3928032.58247  -2995886.61562
  19872128.040    -5641460.347 7  -4310192.94723
 92  5  5  1  2 29.9970000  0  3G13G12G24
  20869228.735     1038220.420 7    798766.51721
  20120316.6344   -3953460.65347  -3015700.69862
  19864193.767    -5683159.862 7  -4342686.05323
 92  5  5  1  2 44.9970000  0  3G13G12G24
  20871263.774     1048911.894 7    807097.51321
  20115507.0404   -3978737.87647  -3035397.23662
  19856282.564    -5724728.102 7  -4375076.86223
 92  5  5  1  2 59.9970000  0  3G13G12G24
  20873299.314     1059621.479 7    815442.63121
  20110723.3454   -4003868.70347  -3054979.69562
  19848396.243    -5766171.864 7  -4407370.67623
 92  5  5  1  3 14.9970000  0  3G13G12G24
  20875343.626     1070366.837 7    823815.61221
  20105973.5174   -4028835.10547  -3074434.03162
  19840536.642    -5807474.800 7  -4439554.75723
 92  5  5  1  3 29.9970000  0  3G13G12G24
  20877391.485     1081117.579 7    832192.79121
  20101247.1104   -4053667.21347  -3093783.72362
  19832697.689    -5848669.229 7  -4471654.29023
 92  5  5  1  3 44.9970000  0  3G13G12G24
  20879443.5644    1091901.45047    840595.78161
  20096554.4394   -4078336.87647  -3113006.83662
  19824885.024    -5889727.600 7  -4503647.80223
 92  5  5  1  3 59.9970000  0  3G13G12G24
  20881505.532     1102718.408 7    849024.55621
  20091890.1494   -4102843.83247  -3132103.16662
  19817096.149    -5930649.497 7  -4535534.97423
 92  5  5  1  4 14.9970000  0  3G13G12G24
  20883564.126     1113544.077 7    857460.12321
  20087251.7124   -4127212.07747  -3151091.40362
  19809331.564    -5971460.067 7  -4567335.39623
 92  5  5  1  4 29.9970000  0  3G13G12G24
  20885627.962     1124395.527 7    865915.77521
  20082645.2354   -4151424.48347  -3169958.21362
  19801589.196    -6012141.509 7  -4599035.20123
 92  5  5  1  4 44.9970000  0  3G13G12G24
  20887692.353     1135260.842 7    874382.23521
  20078066.7434   -4175492.44347  -3188712.46562
  19793870.462    -6052703.588 7  -4630641.99623
 92  5  5  1  4 59.9970000  0  3G13G12G24
  20889763.017     1146144.953 7    882863.35021
  20073513.9624   -4199410.84947  -3207350.18762
  19786175.946    -6093142.096 7  -4662152.50423
 92  5  5  1  5 14.9970000  0  3G13G12G24
  20891841.642     1157048.311 7    891359.45021
  20068991.4624   -4223178.90847  -3225870.75162
  19778503.946    -6133458.562 7  -4693567.91023
 92  5  5  1  5 29.9970000  0  3G13G12G24
  20893919.0014    1167965.43247    899866.28661
  20064495.9464   -4246801.70447  -3244278.12662
  19770855.110    -6173656.542 7  -4724890.99423
 92  5  5  1  5 44.9970000  0  3G13G12G24
  20895997.3924    1178892.90047    908381.17861
  20060027.0094   -4270282.79247  -3262575.07862
  19763225.610    -6213739.798 7  -4756124.67923
 92  5  5  1  5 59.9970000  0  3G13G12G24
  20898082.259     1189830.450 7    916903.93121
  20055586.3764   -4293621.86047  -3280761.36662
  19755620.360    -6253709.657 7  -4787270.00523
 92  5  5  1  6 14.9970000  0  3G13G12G24
  20900166.001     1200789.373 7    925443.34121
  20051174.1734   -4316807.25247  -3298827.90762
  19748037.954    -6293555.952 7  -4818319.04723
 92  5  5  1  6 29.9970000  0  3G13G12G24
  20902254.814     1211772.158 7    934001.34421
  20046792.0404   -4339836.35947  -3316772.66862
  19740479.821    -6333277.209 7  -4849270.65823
 92  5  5  1  6 44.9970000  0  3G13G12G24
  20904348.8534    1222777.54547    942576.96561
  20042438.1184   -4362710.06047  -3334596.33462
  19732944.048    -6372875.683 7  -4880126.59323
 92  5  5  1  6 59.9970000  0  3G13G12G24
  20906446.2284    1233800.23647    951166.06061
  20038116.1654   -4385433.46047  -3352302.88062
  19725430.259    -6412357.198 7  -4910891.39023
 92  5  5  1  7 14.9970000  0  3G13G12G24
  20908548.2904    1244849.10547    959775.55961
  20033820.7204   -4407997.13647  -3369884.97262
  19717942.274    -6451711.258 7  -4941556.87823
 92  5  5  1  7 29.9970000  0  3G13G12G24
  20910653.290     1255912.240 7    968396.17221
  20029556.3994   -4430413.03047  -3387351.90262
  19710475.564    -6490946.030 7  -4972129.40523
 92  5  5  1  7 44.9970000  0  3G13G12G24
  20912761.9854    1266999.36747    977035.48261
  20025321.2044   -4452671.16547  -3404695.90962
  19703034.126    -6530050.818 7  -5002600.64823
 92  5  5  1  7 59.9970000  0  3G13G12G24
  20914876.8454    1278101.51647    985686.49361
  20021112.2284   -4474780.13947  -3421923.68562
  19695616.735    -6569032.984 7  -5032976.34723
 92  5  5  1  8 14.9970000  0  3G13G12G24
  20916995.728     1289223.584 7    994353.02221
  20016935.5644   -4496734.88647  -3439031.28162
  19688222.649    -6607885.037 7  -5063250.65523
 92  5  5  1  8 29.9970000  0  3G13G12G24
  20919113.939     1300367.823 7   1003036.83421
  20012786.2904   -4518532.79647  -3456016.66962
  19680855.806    -6646601.941 7  -5093419.65023
 92  5  5  1  8 44.9970000  0  3G13G12G24
  20921241.415     1311530.127 7   1011734.71621
  20008669.3534   -4540178.00347  -3472883.06762
  19673514.110    -6685186.576 7  -5123485.58423
 92  5  5  1  8 59.9970000  0  3G13G12G24
  20923367.0794    1322711.95747   1020447.82261
  20004578.5174   -4561668.37947  -3489628.82062
  19666195.712    -6723634.145 7  -5153444.71123
 92  5  5  1  9 14.9960000  0  3G13G12G24
  20925498.809     1333913.114 7   1029175.98521
  20000519.0274   -4583001.86347  -3506252.31762
  19658907.879    -6761941.389 7  -5183294.49723
 92  5  5  1  9 29.9960000  0  3G13G12G24
  20927630.996     1345135.129 7   1037920.39721
  19996488.6294   -4604180.84347  -3522755.42162
  19651643.754    -6800114.537 7  -5213039.78923
 92  5  5  1  9 44.9960000  0  3G13G12G24
  20929771.754     1356373.490 7   1046677.54621
  19992486.3714   -4625207.56247  -3539139.87962
  19644403.848    -6838157.626 7  -5242683.74123
 92  5  5  1  9 59.9960000  0  3G13G12G24
  20931913.2384    1367627.86547   1055447.17861
  19988514.8874   -4646081.90047  -3555405.60262
  19637188.856    -6876070.450 7  -5272226.18323
 92  5  5  1 10 14.9960000  0  3G13G12G24
  20934060.785     1378898.857 7   1064229.75021
  19984571.9734   -4666803.40647  -3571552.23362
  19629999.668    -6913851.587 7  -5301666.01423
 92  5  5  1 10 29.9960000  0  3G13G12G24
  20936203.645     1390176.639 7   1073017.61821
  19980656.5984   -4687381.51447  -3587587.12462
  19622832.145    -6951515.754 7  -5331014.70123
 92  5  5  1 10 44.9960000  0  3G13G12G24
  20938355.137     1401474.140 7   1081820.84621
  19976768.0044   -4707802.86247  -3603499.86762
  19615690.004    -6989052.778 7  -5360264.31423
 92  5  5  1 10 59.9960000  0  3G13G12G24
  20940509.527     1412789.317 7   1090637.85721
  19972914.1134   -4728069.53447  -3619292.08462
  19608570.535    -7026464.785 7  -5389416.51223
 92  5  5  1 11 14.9960000  0  3G13G12G24
  20942661.066     1424119.599 7   1099466.64321
  19969084.9574   -4748183.61147  -3634965.39162
  19601473.996    -7063756.478 7  -5418474.95223
 92  5  5  1 11 29.9960000  0  3G13G12G24
  20944823.6134    1435462.00047   1108304.85661
  19965287.4414   -4768148.07147  -3650522.11862
  19594398.871    -7100931.519 7  -5447442.49423
 92  5  5  1 11 44.9960000  0  3G13G12G24
  20946984.863     1446816.342 7   1117152.37621
  19961516.9104   -4787962.75747  -3665962.13462
  19587347.809    -7137987.084 7  -5476316.94023
 92  5  5  1 11 59.9960000  0  3G13G12G24
  20949143.441     1458183.612 7   1126009.97521
  19957773.8484   -4807626.47347  -3681284.51562
  19580319.606    -7174922.385 7  -5505097.67923
 92  5  5  1 12 14.9960000  0  3G13G12G24
  20951314.387     1469565.000 7   1134878.56621
  19954060.7774   -4827137.94947  -3696488.26762
  19573314.973    -7211735.518 7  -5533783.21723
 92  5  5  1 12 29.9960000  0  3G13G12G24
  20953479.606     1480966.239 7   1143762.63021
  19950379.0594   -4846491.16147  -3711568.69462
  19566331.988    -7248424.436 7  -5562371.96723
 92  5  5  1 12 44.9960000  0  3G13G12G24
  20955657.684     1492387.099 7   1152661.98021
  19946726.6134   -4865685.93247  -3726525.66362
  19559373.856    -7284987.919 7  -5590862.97623
 92  5  5  1 12 59.9960000  0  3G13G12G24
  20957828.941     1503823.138 7   1161573.16121
  19943101.4104   -4884726.51847  -3741362.48662
  19552440.645    -7321425.910 7  -5619256.19823
 92  5  5  1 13 14.9960000  0  3G13G12G24
  20960006.770     1515272.186 7   1170494.48321
  19939509.2384   -4903614.84247  -3756080.66362
  19545530.121    -7357740.738 7  -5647553.45023
 92  5  5  1 13 29.9960000  0  3G13G12G24
  20962194.754     1526735.529 7   1179426.93321
  19935942.2154   -4922349.42747  -3770679.04662
  19538642.215    -7393931.669 7  -5675754.16023
 92  5  5  1 13 44.9960000  0  3G13G12G24
  20964372.902     1538211.011 7   1188368.84321
  19932407.2704   -4940932.35547  -3785159.25262
  19531779.535    -7430000.400 7  -5703859.65323
 92  5  5  1 13 59.9960000  0  3G13G12G24
  20966559.598     1549704.043 7   1197324.43621
  19928900.0664   -4959357.88847  -3799516.81662
  19524940.043    -7465942.346 7  -5731866.34023
 92  5  5  1 14 14.9960000  0  3G13G12G24
  20968753.715     1561209.360 7   1206289.59321
  19925424.9964   -4977631.42547  -3813755.93562
  19518124.316    -7501762.292 7  -5759777.97123
 92  5  5  1 14 29.9960000  0  3G13G12G24
  20970941.270     1572723.503 7   1215261.63221
  19921974.2234   -4995756.02347  -3827879.00362
  19511329.621    -7537462.695 7  -5787596.45223
 92  5  5  1 14 44.9960000  0  3G13G12G24
  20973136.363     1584251.185 7   1224244.22621
  19918555.2704   -5013726.67247  -3841882.11162
  19504560.106    -7573037.711 7  -5815317.22523
 92  5  5  1 14 59.9960000  0  3G13G12G24
  20975333.324     1595794.460 7   1233238.96721
  19915163.8404   -5031541.46547  -3855763.77062
  19497815.723    -7608483.267 7  -5842937.12323
 92  5  5  1 15 14.9960000  0  3G13G12G24
  20977528.762     1607348.104 7   1242241.78821
  19911803.9964   -5049204.95147  -3869527.52762
  19491092.871    -7643804.075 7  -5870459.81523
 92  5  5  1 15 29.9960000  0  3G13G12G24
  20979732.020     1618916.717 7   1251256.27221
  19908470.1684   -5066712.62147  -3883169.87162
  19484397.770    -7678994.865 7  -5897881.19322
 92  5  5  1 15 44.9960000  0  3G13G12G24
  20981933.066     1630497.986 7   1260280.61821
  19905169.9414   -5084066.48947  -3896692.36862
  19477725.215    -7714055.212 7  -5925200.92823
 92  5  5  1 15 59.9960000  0  3G13G12G24
  20984141.9884    1642079.54447   1269305.17661
  19901892.9414   -5101278.68347  -3910104.47062
  19471077.231    -7748996.530 7  -5952427.91523
 92  5  5  1 16 14.9960000  0  3G13G12G24
  20986347.582     1653670.979 7   1278337.43921
  19898646.7624   -5118339.29447  -3923398.45862
  19464451.395    -7783808.086 7  -5979553.78522
 92  5  5  1 16 29.9960000  0  3G13G12G24
  20988552.6684    1665277.19447   1287381.20961
  19895430.7544   -5135243.57847  -3936570.62962
  19457853.223    -7818486.705 7  -6006576.07222
 92  5  5  1 16 44.9960000  0  3G13G12G24
  20990764.059     1676892.065 7   1296431.73421
  19892243.5124   -5151997.48047  -3949625.61562
  19451277.668    -7853039.107 7  -6033500.00622
 92  5  5  1 16 59.9960000  0  3G13G12G24
  20992977.3874    1688516.83847   1305489.97261
  19889082.4654   -5168599.24447  -3962562.05662
  19444728.629    -7887461.410 7  -6060322.56522
 92  5  5  1 17 14.9960000  0  3G13G12G24
  20995193.512     1700140.148 7   1314547.08021
  19885951.5744   -5185059.85647  -3975388.51162
  19438200.027    -7921764.150 7  -6087051.95522
 92  5  5  1 17 29.9960000  0  3G13G12G24
  20997404.371     1711779.904 7   1323617.00221
  19882848.3404   -5201361.95847  -3988091.45162
  19431698.356    -7955931.049 7  -6113675.49722
 92  5  5  1 17 44.9960000  0  3G13G12G24
  20999619.8244    1723434.80047   1332698.72561
  19879776.0434   -5217506.27647  -4000671.43762
  19425221.684    -7989964.960 7  -6140195.41523
 92  5  5  1 17 59.9960000  0  3G13G12G24
  21001845.5124    1735095.21947   1341784.73261
  19876733.6134   -5233502.43247  -4013135.97762
  19418768.113    -8023877.093 7  -6166620.43823
 92  5  5  1 18 14.9960000  0  3G13G12G24
  21004059.160     1746765.733 7   1350878.63221
  19873716.6604   -5249345.59047  -4025481.30362
  19412339.301    -8057663.611 7  -6192947.57722
 92  5  5  1 18 29.9960000  0  3G13G12G24
  21006284.293     1758450.782 7   1359983.84021
  19870732.6134   -5265031.09447  -4037703.77362
  19405935.043    -8091318.886 7  -6219172.45223
 92  5  5  1 18 44.9960000  0  3G13G12G24
  21008510.176     1770141.555 7   1369093.51221
  19867776.4964   -5280567.77147  -4049810.28162
  19399553.324    -8124850.635 7  -6245301.07723
 92  5  5  1 18 59.9960000  0  3G13G12G24
  21010734.238     1781844.186 7   1378212.43321
  19864849.6294   -5295949.10947  -4061795.74662
  19393198.152    -8158248.075 7  -6271325.03922
 92  5  5  1 19 14.9960000  0  3G13G12G24
  21012966.1524    1793553.43147   1387336.49961
  19861951.2704   -5311180.17147  -4073664.10562
  19386867.090    -8191517.893 7  -6297249.55822
 92  5  5  1 19 29.9960000  0  3G13G12G24
  21015196.801     1805272.546 7   1396468.25621
  19859081.5274   -5326257.81347  -4085412.92462
  19380561.293    -8224657.518 7  -6323072.62722
 92  5  5  1 19 44.9960000  0  3G13G12G24
  21017424.410     1816992.942 7   1405601.01521
  19856241.3404   -5341190.17947  -4097048.53362
  19374277.363    -8257675.715 7  -6348801.07922
 92  5  5  1 19 59.9960000  0  3G13G12G24
  21019655.981     1828721.217 7   1414739.90721
  19853427.8634   -5355970.80547  -4108565.91662
  19368020.223    -8290563.569 7  -6374427.96322
 92  5  5  1 20 14.9960000  0  3G13G12G24
  21021892.707     1840456.333 7   1423884.12921
  19850642.6064   -5370600.52347  -4119965.70162
  19361786.027    -8323319.260 7  -6399951.86622
 92  5  5  1 20 29.9960000  0  3G13G12G24
  21024129.926     1852205.756 7   1433039.50121
  19847891.0434   -5385071.64747  -4131241.90662
  19355579.395    -8355933.504 7  -6425365.54822
 92  5  5  1 20 44.9960000  0  3G13G12G24
  21026360.879     1863961.510 7   1442199.80921
  19845166.0434   -5399391.88747  -4142400.54362
  19349398.098    -8388415.805 7  -6450676.41523
 92  5  5  1 20 59.9960000  0  3G13G12G24
  21028604.965     1875729.694 7   1451369.80121
  19842468.9264   -5413555.35447  -4153437.01962
  19343244.020    -8420760.873 7  -6475880.35022
 92  5  5  1 21 14.9960000  0  3G13G12G24
  21030844.770     1887505.414 7   1460545.67321
  19839803.2774   -5427566.49147  -4164354.79662
  19337114.004    -8452975.490 7  -6500982.63722
 92  5  5  1 21 29.9960000  0  3G13G12G24
  21033085.629     1899282.168 7   1469722.34021
  19837164.8564   -5441431.79747  -4175158.93462
  19331006.363    -8485068.908 7  -6525990.47922
 92  5  5  1 21 44.9960000  0  3G13G12G24
  21035325.574     1911067.180 7   1478905.45321
  19834554.9654   -5455143.71747  -4185843.56062
  19324923.160    -8517034.365 7  -6550898.61222
 92  5  5  1 21 59.9960000  0  3G13G12G24
  21037570.293     1922863.090 7   1488097.05421
  19831975.3244   -5468699.95647  -4196406.87062
  19318864.629    -8548870.376 7  -6575705.88022
 92  5  5  1 22 14.9960000  0  3G13G12G24
  21039823.660     1934679.181 7   1497304.38421
  19829428.3014   -5482090.84247  -4206841.33962
  19312832.926    -8580567.965 7  -6600405.28422
 92  5  5  1 22 29.9960000  0  3G13G12G24
  21042073.184     1946513.420 7   1506525.86021
  19826912.6294   -5495318.26347  -4217148.42462
  19306827.231    -8612131.865 7  -6625000.51622
 92  5  5  1 22 44.9960000  0  3G13G12G24
  21044326.684     1958351.556 7   1515750.35921
  19824422.3874   -5508396.02147  -4227338.89962
  19300843.098    -8643577.270 7  -6649503.41622
 92  5  5  1 22 59.9960000  0  3G13G12G24
  21046576.746     1970188.945 7   1524974.27721
  19821961.4184   -5521329.17147  -4237416.68462
  19294880.527    -8674908.743 8  -6673917.53922
 92  5  5  1 23 14.9960000  0  3G13G12G24
  21048832.113     1982040.313 7   1534209.09321
  19819530.0204   -5534102.67247  -4247370.07062
  19288942.637    -8706109.741 8  -6698229.99122
 92  5  5  1 23 29.9960000  0  3G13G12G24
  21051089.035     1993899.832 7   1543450.25821
  19817129.6374   -5546721.83547  -4257203.19762
  19283030.301    -8737186.398 7  -6722445.55222
 92  5  5  1 23 44.9960000  0  3G13G12G24
  21053349.2774    2005759.20547   1552691.29461
  19814757.1764   -5559195.41747  -4266922.88262
  19277138.379    -8768144.957 7  -6746569.09222
 92  5  5  1 23 59.9960000  0  3G13G12G24
  21055609.051     2017620.710 7   1561933.99721
  19812410.2234   -5571520.82147  -4276527.10162
  19271269.988    -8798981.954 7  -6770597.90622
 92  5  5  1 24 14.9960000  0  3G13G12G24
  21057863.5984    2029486.08347   1571179.72861
  19810092.7704   -5583696.35347  -4286014.53862
  19265425.527    -8829693.634 8  -6794529.07222
 92  5  5  1 24 29.9960000  0  3G13G12G24
  21060122.2774    2041355.82047   1580428.83961
  19807804.6134   -5595721.35247  -4295384.67762
  19259605.926    -8860278.899 8  -6818361.73222
 92  5  5  1 24 44.9960000  0  3G13G12G24
  21062380.535     2053238.639 7   1589688.16621
  19805546.8874   -5607587.12147  -4304630.73862
  19253811.715    -8890728.007 8  -6842088.29222
 92  5  5  1 24 59.9960000  0  3G13G12G24
  21064641.699     2065125.573 7   1598950.68621
  19803318.6994   -5619302.44647  -4313759.57262
  19248041.426    -8921047.879 8  -6865714.15122
 92  5  5  1 25 14.9960000  0  3G13G12G24
  21066906.902     2077014.819 7   1608215.01121
  19801118.3094   -5630869.04447  -4322772.51562
  19242296.246    -8951241.671 8  -6889241.76722
 92  5  5  1 25 29.9960000  0  3G13G12G24
  21069167.027     2088907.923 7   1617482.34421
  19798943.2624   -5642285.01247  -4331668.08362
  19236574.645    -8981308.233 8  -6912670.24322
 92  5  5  1 25 44.9960000  0  3G13G12G24
  21071434.0354    2100816.27747   1626761.55961
  19796803.1524   -5653539.21747  -4340437.60462
  19230879.113    -9011236.735 8  -6935991.14122
 92  5  5  1 25 59.9960000  0  3G13G12G24
  21073705.6764    2112739.12247   1636052.05261
  19794691.4574   -5664632.20847  -4349081.50262
  19225211.129    -9041027.776 8  -6959204.92322
 92  5  5  1 26 14.9960000  0  3G13G12G24
  21075973.738     2124660.433 7   1645341.36621
  19792609.0904   -5675579.80947  -4357612.10862
  19219564.356    -9070699.203 8  -6982325.50222
 92  5  5  1 26 29.9960000  0  3G13G12G24
  21078245.1764    2136583.48347   1654632.01661
  19790554.4814   -5686378.44147  -4366026.63762
  19213941.207    -9100247.180 8  -7005349.88322
 92  5  5  1 26 44.9960000  0  4G13G12G24G20
  21080507.207     2148508.956 7   1663924.57521
  19788527.4104   -5697027.48947  -4374324.60662
  19208342.637    -9129670.585 8  -7028277.19722
  22902779.7704         -0.97555
 92  5  5  1 26 59.9960000  0  4G13G12G24G20
  21082782.3164    2160446.73247   1673226.69561
  19786530.9734   -5707517.37547  -4382498.55162
  19202768.793    -9158960.747 8  -7051100.68422
  22889413.4414     -70243.33545
 92  5  5  1 27 14.9960000  0  4G13G12G24G20
  21085057.121     2172392.879 7   1682535.36321
  19784563.7544   -5717851.70747  -4390551.28662
  19197220.668    -9188121.822 8  -7073823.58322
  22876048.4654    -140479.39845
 92  5  5  1 27 29.9960000  0  4G13G12G24G20
  21087324.8014    2184328.37547   1691835.71761
  19782623.3874   -5728049.48847  -4398497.61662
  19191691.410    -9217173.285 8  -7096461.07222
  22862679.6064    -210727.68345
 92  5  5  1 27 44.9960000  0  4G13G12G24G20
  21089603.652     2196274.011 7   1701143.98021
  19780715.1524   -5738089.78847  -4406321.23562
  19186188.012    -9246092.409 8  -7118995.43722
  22849312.176     -280967.179 5
 92  5  5  1 27 59.9960000  0  4G13G12G24G20
  21091873.613     2208227.739 7   1710458.55221
  19778832.4884   -5747974.71347  -4414023.78362
  19180709.926    -9274883.450 8  -7141429.99922
  22835947.809     -351199.645 5
 92  5  5  1 28 14.9960000  0  4G13G12G24G20
  21094153.566     2220184.773 7   1719775.69121
  19776978.9884   -5757709.08047  -4421609.01262
  19175254.566    -9303551.955 8  -7163769.08222
  22822586.0204    -421429.43345        -0.29871
 92  5  5  1 28 29.9950000  0  4G13G12G24G20
  21096426.6244    2232138.86547   1729090.53661
  19775155.7884   -5767297.45347  -4429080.48162
  19169821.624    -9332099.219 8  -7186013.68722
  22809219.8984    -491656.76445    -54722.86361
 92  5  5  1 28 44.9950000  0  4G13G12G24G20
  21098701.1084    2244097.95947   1738409.28161
  19773359.8984   -5776734.64747  -4436434.14762
  19164412.280    -9360522.466 8  -7208161.66022
  22795854.9054    -561884.40145   -109445.61961
 92  5  5  1 28 59.9950000  0  4G13G12G24G20
  21100980.866     2256063.435 7   1747732.99621
  19771593.2414   -5786017.80447  -4443667.78262
  19159028.030    -9388819.162 8  -7230211.02222
  22782492.319     -632105.072 5   -164162.98221
 92  5  5  1 29 14.9950000  0  4G13G12G24G20
  21103257.3194    2268032.59947   1757059.59561
  19769855.5304   -5795149.73047  -4450783.57662
  19153666.7804   -9416991.85848  -7252163.76162
  22769133.163     -702321.230 5   -218876.82821
 92  5  5  1 29 29.9950000  0  4G13G12G24G20
  21105535.4524    2280011.17747   1766393.51461
  19768146.5384   -5804124.38247  -4457776.82262
  19148331.194    -9445033.255 8  -7274014.18522
  22755772.8584    -772526.67045   -273582.31561
 92  5  5  1 29 44.9950000  0  4G13G12G24G20
  21107814.6164    2291992.93947   1775729.91761
  19766467.6874   -5812948.21747  -4464652.54262
  19143018.476    -9472950.500 8  -7295767.86922
  22742414.569     -842727.461 5   -328284.17721
 92  5  5  1 29 59.9950000  0  4G13G12G24G20
  21110096.0154    2303971.38547   1785063.75161
  19764817.4214   -5821627.50447  -4471415.63062
  19137727.765    -9500749.121 8  -7317429.11722
  22729056.585     -912929.357 5   -382986.91021
 92  5  5  1 30 14.9950000  0  4G13G12G24G20
  21112370.890     2315944.098 7   1794393.10821
  19763191.9294   -5830164.50647  -4478067.84762
  19132461.515    -9528430.523 8  -7338999.02822
  22715694.1794    -983134.48845   -437692.17061
 92  5  5  1 30 29.9950000  0  4G13G12G24G20
  21114652.718     2327920.171 7   1803725.09121
  19761597.6404   -5838550.30047  -4484602.23862
  19127216.577    -9555982.324 8  -7360467.94922
  22702337.273    -1053333.658 5   -492392.76521
 92  5  5  1 30 44.9950000  0  4G13G12G24G20
  21116935.6324    2339907.27847   1813065.66361
  19760031.0854   -5846777.22247  -4491012.83462
  19122001.437    -9583396.527 8  -7381829.65222
  22688979.390    -1123518.787 5   -547082.42721
 92  5  5  1 30 59.9950000  0  4G13G12G24G20
  21119213.913     2351895.684 7   1822407.26421
  19758493.9684   -5854854.93547  -4497307.16362
  19116807.390    -9610683.626 8  -7403092.31122
  22675624.6944   -1193699.19445   -601768.39261
 92  5  5  1 31 14.9950000  0  4G13G12G24G20
  21121500.3124    2363898.75447   1831760.27661
  19756987.9214   -5862769.92347  -4503474.69462
  19111644.077    -9637827.525 8  -7424243.38722
  22662272.6084   -1263861.14145   -656439.99261
 92  5  5  1 31 29.9950000  0  4G13G12G24G20
  21123782.585     2375907.621 7   1841117.81121
  19755511.7414   -5870530.98447  -4509522.28362
  19106503.023    -9664836.706 8  -7445289.49022
  22648923.0234   -1334013.01745   -711103.72661
 92  5  5  1 31 44.9950000  0  4G13G12G24G20
  21126064.577     2387907.004 7   1850467.95321
  19754059.5624   -5878153.37847  -4515461.81562
  19101386.640    -9691729.772 8  -7466245.11022
  22635572.1324   -1404169.96645   -765771.42261
 92  5  5  1 31 59.9950000  0  4G13G12G24G20
  21128344.0624    2399894.85847   1859809.12161
  19752636.5854   -5885639.12947  -4521294.87962
  19096288.929    -9718508.104 8  -7487111.32722
  22622220.296    -1474333.430 5   -820444.18721
 92  5  5  1 32 14.9950000  0  4G13G12G24G20
  21130630.9834    2411885.43747   1869152.39661
  19751239.2024   -5892974.01547  -4527010.38362
  19091219.390    -9745156.983 8  -7507876.67222
  22608872.3514   -1544488.95045   -875110.77061
 92  5  5  1 32 29.9950000  0  4G13G12G24G20
  21132916.655     2423907.966 7   1878520.58821
  19749878.2494   -5900128.96847  -4532585.67862
  19086178.093    -9771647.077 8  -7528518.29122
  22595528.624    -1614607.129 5   -929748.24121
 92  5  5  1 32 44.9950000  0  4G13G12G24G20
  21135207.913     2435922.583 7   1887882.59921
  19748541.9374   -5907143.70747  -4538051.71662
  19081158.991    -9798019.907 8  -7549068.53222
  22582186.733    -1684727.239 5   -984387.24221
 92  5  5  1 32 59.9950000  0  4G13G12G24G20
  21137486.898     2447921.651 7   1897232.49621
  19747234.4214   -5914025.60247  -4543414.24262
  19076161.523    -9824283.071 8  -7569533.32022
  22568838.0074   -1754856.47645  -1039033.32561
 92  5  5  1 33 14.9950000  0  4G13G12G24G20
  21139767.0544    2459914.55147   1906577.58561
  19745950.8984   -5920765.45947  -4548666.08562
  19071186.062    -9850428.109 8  -7589906.06322
  22555495.2734   -1824985.20845  -1093679.03961
 92  5  5  1 33 29.9950000  0  4G13G12G24G20
  21142056.437     2471915.895 7   1915929.25821
  19744697.8904   -5927348.74947  -4553795.92862
  19066236.765    -9876443.130 8  -7610177.49722
  22542150.351    -1895098.328 5  -1148312.57521
 92  5  5  1 33 44.9950000  0  4G13G12G24G20
  21144345.2574    2483936.97847   1925296.31061
  19743477.6714   -5933764.08247  -4558794.90162
  19061311.648    -9902319.177 8  -7630340.63222
  22528814.0464   -1965184.35745  -1202925.00761
 92  5  5  1 33 59.9950000  0  4G13G12G24G20
  21146630.655     2495969.142 7   1934672.01821
  19742287.9684   -5940020.07747  -4563669.70962
  19056413.640    -9928061.579 8  -7650399.63822
  22515483.6244   -2035251.45745  -1257522.66961
 92  5  5  1 34 14.9950000  0  4G13G12G24G20
  21148922.1244    2508001.23547   1944047.66361
  19741123.9134   -5946128.13547  -4568429.24562
  19051538.812    -9953677.137 8  -7670359.79822
  22502149.2104   -2105310.69445  -1312114.22861
 92  5  5  1 34 29.9950000  0  5G13G12G24G20G16
  21151210.296     2520027.604 7   1953418.84221
  19739989.8124   -5952093.73747  -4573077.77362
  19046686.733    -9979171.383 8  -7690225.43322
  22488820.5694   -2175367.19845  -1366703.66961
  22883290.1014         -0.67655
 92  5  5  1 34 44.9950000  0  5G13G12G24G20G16
  21153505.6244    2532065.79347   1962799.23261
  19738884.7654   -5957898.90247  -4577601.28562
  19041862.054   -10004527.710 8  -7709983.59622
  22475493.6944   -2245403.06945  -1421276.99461
  22870525.640      -67071.552 5
 92  5  5  1 34 59.9950000  0  5G13G12G24G20G16
  21155791.968     2544102.259 7   1972178.28121
  19737807.2804   -5963557.79447  -4582010.82262
  19037061.202   -10029759.294 8  -7729644.55522
  22462165.9374   -2315431.47345  -1475844.53661
  22857767.1244    -134150.68045
 92  5  5  1 35 14.9950000  0  5G13G12G24G20G16
  21158083.874     2556141.325 7   1981559.35021
  19736760.5234   -5969065.73647  -4586302.72862
  19032282.827   -10054863.441 8  -7749206.21522
  22448842.233    -2385447.706 5  -1530402.58721
  22844996.210     -201233.241 5
 92  5  5  1 35 29.9950000  0  5G13G12G24G20G16
  21160371.108     2568177.792 7   1990938.39921
  19735740.8434   -5974427.91147  -4590481.05762
  19027529.0464  -10079846.02348  -7768673.15062
  22435521.116    -2455456.442 5  -1584954.79121
  22832227.3514    -268324.13445        -0.48171
 92  5  5  1 35 44.9950000  0  5G13G12G24G20G16
  21162662.335     2580208.604 7   2000313.04821
  19734745.4914   -5979647.27747  -4594548.10262
  19022798.905   -10104706.905 8  -7788045.25422
  22422196.905    -2525460.370 5  -1639503.23421
  22819464.499     -335420.266 5    -52283.02221
 92  5  5  1 35 59.9950000  0  5G13G12G24G20G16
  21164949.3354    2592237.59146   2009686.26261
  19733781.1084   -5984720.22947  -4598501.06162
  19018092.390   -10129438.305 8  -7807316.46322
  22408878.0384   -2595455.17545  -1694044.60961
  22806691.249     -402519.063 5   -104567.63821
 92  5  5  1 36 14.9950000  0  5G13G12G24G20G16
  21167241.866     2604273.923 7   2019065.20421
  19732845.2104   -5989637.65147  -4602332.82562
  19013411.913   -10154030.105 8  -7826478.89322
  22395564.062    -2665431.651 5  -1748571.67221
  22793929.991     -469614.258 5   -156849.41921
 92  5  5  1 36 29.9950000  0  5G13G12G24G20G16
  21169532.1714    2616308.69047   2028442.92161
  19731935.7104   -5994408.39947  -4606050.29562
  19008755.921   -10178494.795 8  -7845542.27522
  22382250.2804   -2735398.45245  -1803091.21661
  22781149.6714    -536718.27545   -209138.14161
 92  5  5  1 36 44.9950000  0  5G13G12G24G20G16
  21171817.835     2628344.755 6   2037821.66921
  19731057.7884   -5999029.74647  -4609651.35362
  19004126.0934  -10202833.62448  -7864507.58362
  22368935.187    -2805352.224 5  -1857600.58421
  22768382.960     -603829.380 5   -261432.34921
 92  5  5  1 36 59.9950000  0  5G13G12G24G20G16
  21174112.796     2640382.607 7   2047201.79921
  19730208.2024   -6003501.19647  -4613135.60362
  18999518.7024  -10227045.73648  -7883374.15362
  22355628.1244   -2875292.10745  -1912099.14361
  22755613.2334    -670946.90845   -313731.58061
 92  5  5  1 37 14.9950000  0  5G13G12G24G20G16
  21176403.655     2652425.618 6   2056585.94321
  19729384.3984   -6007819.36147  -4616500.41462
  18994936.2734  -10251126.28548  -7902138.20762
  22342321.773    -2945214.420 5  -1966584.00621
  22742838.366     -738066.069 5   -366032.07821
 92  5  5  1 37 29.9950000  0  5G13G12G24G20G16
  21178695.3124    2664471.00746   2065971.94761
  19728592.4524   -6011987.35647  -4619748.20862
  18990378.3824  -10275076.66248  -7920800.82862
  22329018.5464   -3015121.75245  -2021057.21461
  22730065.593     -805190.107 5   -418336.36421
 92  5  5  1 37 44.9950000  0  5G13G12G24G20G16
  21180989.937     2676522.253 6   2075362.50621
  19727828.6164   -6016001.44447  -4622876.07362
  18985846.273   -10298888.599 8  -7939355.57222
  22315720.6634   -3085010.22345  -2075515.70661
  22717289.960     -872314.408 5   -470640.88221
 92  5  5  1 37 59.9950000  0  5G13G12G24G20G16
  21183281.0304    2688565.06846   2084746.49561
  19727091.8664   -6019875.92147  -4625895.15862
  18981338.4834  -10322576.97448  -7957814.03462
  22302424.710    -3154893.647 5  -2129970.26821
  22704517.187     -939455.071 5   -522958.14621
 92  5  5  1 38 14.9950000  0  5G13G12G24G20G16
  21185574.7654    2700614.38647   2094135.54461
  19726384.4374   -6023596.03547  -4628793.95362
  18976857.858   -10346128.966 8  -7976166.22322
  22289128.0464   -3224756.68745  -2184408.96161
  22691735.4684   -1006603.32645   -575281.30161
 92  5  5  1 38 29.9950000  0  5G13G12G24G20G16
  21187868.069     2712656.744 7   2103519.18821
  19725703.3514   -6027175.28447  -4631582.98562
  18972397.9374  -10369560.50848  -7994424.55662
  22275836.9444   -3294612.42945  -2238841.96061
  22678959.8984   -1073769.62345   -627618.54961
 92  5  5  1 38 44.9950000  0  5G13G12G24G20G16
  21190154.452     2724694.181 6   2112898.99021
  19725049.3904   -6030611.50147  -4634260.56562
  18967962.601   -10392870.568 8  -8012588.22822
  22262543.023    -3364458.463 5  -2293267.38721
  22666171.343    -1140949.354 5   -679966.24921
 92  5  5  1 38 59.9950000  0  5G13G12G24G20G16
  21192444.3664    2736734.13646   2122280.74161
  19724422.2184   -6033897.13447  -4636820.80462
  18963551.3584  -10416050.42548  -8030650.44362
  22249254.3514   -3434287.13045  -2347679.29161
  22653390.866    -1208131.299 5   -732315.69221
 92  5  5  1 39 14.9950000  0  5G13G12G24G20G16
  21194738.718     2748771.535 6   2131660.50021
  19723824.0934   -6037037.48547  -4639267.84162
  18959165.335   -10439103.423 8  -8048613.80622
  22235966.4524   -3504102.94545  -2402081.19161
  22640601.054    -1275318.874 5   -784669.50321
 92  5  5  1 39 29.9950000  0  5G13G12G24G20G16
  21197030.5694    2760812.15646   2141042.77561
  19723256.6554   -6040026.78747  -4641597.17762
  18954802.710   -10462025.097 8  -8066474.83722
  22222688.3584   -3573899.95045  -2456468.41861
  22627817.632    -1342505.745 5   -837022.79221
 92  5  5  1 39 44.9950000  0  5G13G12G24G20G16
  21199322.874     2772852.479 7   2150424.82421
  19722714.7574   -6042868.74447  -4643811.69462
  18950464.437   -10484822.179 8  -8084238.78722
  22209403.866    -3643681.258 5  -2510843.42921
  22615026.312    -1409693.995 5   -889377.14221
 92  5  5  1 39 59.9950000  0  5G13G12G24G20G16
  21201614.0384    2784890.20247   2159804.83261
  19722202.9134   -6045565.50847  -4645913.07862
  18946149.866   -10507499.469 8  -8101909.39222
  22196129.0774   -3713448.80045  -2565207.68961
  22602247.249    -1476882.933 5   -941732.01921
 92  5  5  1 40 14.9950000  0  5G13G12G24G20G16
  21203901.663     2796921.454 6   2169179.80821
  19721715.5694   -6048121.14847  -4647904.49462
  18941855.616   -10530063.841 8  -8119492.00222
  22182858.2264   -3783206.12645  -2619564.00161
  22589458.5074   -1544078.82945   -994092.32961
 92  5  5  1 40 29.9950000  0  5G13G12G24G20G16
  21206188.6554    2808957.62446   2178558.61561
  19721258.5854   -6050524.13547  -4649776.96262
  18937585.030   -10552505.025 8  -8136978.62922
  22169586.273    -3852941.272 5  -2673903.02921
  22576678.273    -1611266.796 5  -1046446.45421
 92  5  5  1 40 44.9950000  0  5G13G12G24G20G16
  21208485.382     2820990.145 7   2187934.56521
  19720828.4764   -6052783.49347  -4651537.50862
  18933337.319   -10574831.446 8  -8154375.82822
  22156321.663    -3922662.644 5  -2728231.34021
  22563886.913    -1678452.871 5  -1098799.13221
 92  5  5  1 40 59.9950000  0  5G13G12G24G20G16
  21210771.2734    2833019.41646   2197307.98561
  19720426.702    -6054898.531 7  -4653185.60322
  18929111.148   -10597040.823 8  -8171681.82422
  22143055.124    -3992369.523 5  -2782548.32721
  22551104.780    -1745637.213 5  -1151150.42321
 92  5  5  1 41 14.9950000  0  5G13G12G24G20G16
  21213058.0074    2845047.36746   2206680.38161
  19720051.1164   -6056867.37247  -4654719.77162
  18924906.8824  -10619129.80148  -8188894.00462
  22129792.6554   -4062059.39345  -2836852.09461
  22538316.890    -1812816.926 5  -1203498.14121
 92  5  5  1 41 29.9950000  0  5G13G12G24G20G16
  21215347.655     2857080.131 6   2216056.51721
  19719705.952    -6058684.137 7  -4656135.44422
  18920727.2574  -10641092.41148  -8206007.71562
  22116536.405    -4131725.868 5  -2891137.59621
  22525537.116    -1879985.902 5  -1255837.45421
 92  5  5  1 41 44.9950000  0  5G13G12G24G20G16
  21217639.5074    2869116.45346   2225435.43261
  19719388.694    -6060350.003 7  -4657433.53322
  18916572.023   -10662929.259 8  -8223023.42722
  22103284.280    -4201370.069 5  -2945405.77321
  22512752.1084   -1947144.79745  -1308168.93861
 92  5  5  1 41 59.9950000  0  5G13G12G24G20G16
  21219922.3044    2881150.26846   2234812.39661
  19719100.8664   -6061871.56847  -4658619.17562
  18912439.0544  -10684644.64848  -8239944.50162
  22090031.7654   -4270997.91745  -2999661.19961
  22499977.562    -2014297.225 5  -1360495.38221
 92  5  5  1 42 14.9950000  0  5G13G12G24G20G16
  21222215.960     2893167.020 6   2244176.05221
  19718835.523    -6063262.831 7  -4659703.28622
  18908326.8514  -10706252.44348  -8256781.73462
  22076783.515    -4340623.044 5  -3053914.48921
  22487195.6084   -2081459.47445  -1412829.47261
 92  5  5  1 42 29.9950000  0  5G13G12G24G20G16
  21224504.640     2905184.189 6   2253540.04321
  19718599.187    -6064506.453 7  -4660672.35322
  18904239.3514  -10727734.23148  -8273520.77762
  22063539.5074   -4410227.52845  -3108151.71361
  22474413.804    -2148612.836 5  -1465156.62921
 92  5  5  1 42 44.9950000  0  5G13G12G24G20G16
  21226788.9914    2917198.26546   2262901.62561
  19718390.1714   -6065606.14747  -4661529.27162
  18900174.9834  -10749091.83748  -8290163.06162
  22050297.4764   -4479814.75045  -3162375.48061
  22461641.2494   -2215757.82545  -1517477.27161
 92  5  5  1 42 59.9950000  0  5G13G12G24G20G16
  21229073.4684    2929211.42546   2272262.48361
  19718208.5694   -6066560.03447  -4662272.56962
  18896136.1014  -10770321.11948  -8306705.35062
  22037059.851    -4549382.277 6  -3216583.88121
  22448863.5304   -2282891.97945  -1569789.48261
 92  5  5  1 43 14.9950000  0  5G13G12G24G20G16
  21231362.757     2941224.133 6   2281623.00221
  19718055.9294   -6067367.62047  -4662901.86862
  18892120.9914  -10791421.65448  -8323147.31562
  22023822.2104   -4618929.32945  -3270776.35961
  22436091.5694   -2350011.27045  -1622090.10561
 92  5  5  1 43 29.9950000  0  5G13G12G24G20G16
  21233648.3044    2953232.92446   2290980.46561
  19717926.1244   -6068032.66847  -4663420.09962
  18888127.7804  -10812398.37548  -8339492.80362
  22010594.202    -4688458.983 5  -3324955.25821
  22423319.9444   -2417117.78845  -1674380.75261
 92  5  5  1 43 44.9950000  0  5G13G12G24G20G16
  21235930.6014    2965238.13546   2300335.14661
  19717828.905    -6068554.462 7  -4663826.70522
  18884160.2104  -10833250.48148  -8355741.18862
  21997361.6484   -4757970.66545  -3379120.15961
  22410555.6794   -2484214.02145  -1726663.41361
 92  5  5  1 43 59.9950000  0  5G13G12G24G20G16
  21238217.2414    2977250.56746   2309695.44461
  19717759.827    -6068922.474 7  -4664113.48022
  18880217.4684  -10853966.90448  -8371883.84562
  21984141.257    -4827452.930 5  -3433262.14121
  22397785.9914   -2551290.05445  -1778930.33161
 92  5  5  1 44 14.9950000  0  5G13G12G24G20G16
  21240507.179     2989269.180 6   2319060.54621
  19717714.554    -6069137.790 7
  18876301.9914  -10874549.47848  -8387922.20562
  21970925.7414   -4896906.59646  -3487381.83261
  22385033.6084   -2618347.54045  -1831182.79461
 92  5  5  1 44 29.9950000  0  5G13G12G24G20G16
  21242789.3584    3001294.14346   2328430.62561
  19717705.171    -6069200.356 7
  18872411.4294  -10894996.62348  -8403855.04062
  21957714.483    -4966331.094 6  -3541478.79421
  22372273.9214   -2685388.87145  -1883422.65361
 92  5  5  1 44 44.9950000  0  5G13G12G24G20G16
  21245074.624     3013310.853 6   2337794.26721
  19717721.241    -6069124.952 7
  18868543.0074  -10915321.53148  -8419692.62062
  21944508.023    -5035740.769 6  -3595564.20821
  22359514.038    -2752428.492 5  -1935661.19521
 92  5  5  1 44 59.9950000  0  5G13G12G24G20G16
  21247361.241     3025323.741 6   2347154.92521
  19717763.851    -6068907.281 7
  18864698.780   -10935522.282 8  -8435433.45122
  21931303.476    -5105130.872 6  -3649634.36921
  22346760.015    -2819464.489 5  -1987896.91621
 92  5  5  1 45 14.9950000  0  5G13G12G24G20G16
  21249649.710     3037333.600 6   2356513.24021
  19717828.3664   -6068546.44347
  18860878.3664  -10955598.55348  -8451077.29462
  21918103.515    -5174499.906 6  -3703688.11521
  22334004.882    -2886495.903 5  -2040129.06921
 92  5  5  1 45 29.9950000  0  5G13G12G24G20G16
  21251931.765     3049335.354 6   2365865.22921
  19717924.038    -6068047.537 7  -4663431.79022
  18857080.5304  -10975556.33048  -8466628.80262
  21904905.288    -5243852.574 6  -3757729.11321
  22321250.1164   -2953530.45645  -2092363.66261
 92  5  5  1 45 44.9950000  0  5G13G12G24G20G16
  21254218.0934    3061339.82346   2375219.36461
  19718049.1324   -6067399.91847  -4662927.16362
  18853306.726   -10995384.176 8  -8482079.05522
  21891711.8744   -5313178.01146  -3811748.87061
  22308490.6944   -3020561.22245  -2144595.30161
 92  5  5  1 45 59.9950000  0  5G13G12G24G20G16
  21256504.679     3073336.947 6   2384567.74421
  19718197.671    -6066614.069 7  -4662314.82722
  18849556.3124  -11015093.01448  -8497436.58662
  21878521.304    -5382485.869 6  -3865754.94521
  22295735.265    -3087598.134 5  -2196831.75121
 92  5  5  1 46 14.9950000  0  5G13G12G24G20G16
  21258782.819     3085327.379 6   2393910.92021
  19718373.0854   -6065689.04747  -4661594.04562
  18845828.7334  -11034683.81548  -8512702.13262
  21865340.015    -5451775.042 6  -3919746.45221
  22282977.0154   -3154635.86145  -2249068.81661
 92  5  5  1 46 29.9950000  0  5G13G12G24G20G16
  21261066.7414    3097318.59846   2403254.71961
  19718578.8744   -6064617.53147  -4660759.10762
  18842124.8904  -11054149.59948  -8527870.26862
  21852157.8584   -5521037.70346  -3973717.30061
  22270222.694    -3221667.175 5  -2301300.89721
 92  5  5  1 46 44.9950000  0  5G13G12G24G20G16
  21263344.030     3109300.160 6   2412590.97821
  19718806.3124   -6063410.37147  -4659818.47462
  18838442.3664  -11073502.44248  -8542950.39462
  21838983.1404   -5590284.06746  -4027675.44361
  22257471.7884   -3288699.12945  -2353533.46861
 92  5  5  1 46 59.9950000  0  5G13G12G24G20G16
  21265625.444     3121279.697 6   2421925.67121
  19719063.327    -6062060.047 7  -4658766.28722
  18834781.8984  -11092737.95048  -8557939.09262
  21825806.2334   -5659506.26446  -4081614.75961
  22244712.757    -3355721.022 5  -2405758.21721
 92  5  5  1 47 14.9950000  0  5G13G12G24G20G16
  21267903.523     3133256.233 6   2431258.03321
  19719349.3434   -6060567.59747  -4657603.35662
  18831143.499   -11111854.718 8  -8572835.26322
  21812639.1164   -5728704.95546  -4135535.75961
  22231962.257    -3422730.046 5  -2457972.92921
 92  5  5  1 47 29.9940000  0  5G13G12G24G20G16
  21270180.861     3145232.518 6   2440590.18321
  19719659.174    -6058929.578 7  -4656326.98922
  18827530.275   -11130846.372 8  -8587633.94422
  21799479.9164   -5797871.43646  -4189431.65961
  22219213.447    -3489715.429 5  -2510169.21621
 92  5  5  1 47 44.9940000  0  5G13G12G24G20G16
  21272462.541     3157203.104 6   2449917.89421
  19719997.908    -6057153.042 7  -4654942.68722
  18823937.2294  -11149724.42148  -8602344.10262
  21786317.4324   -5867021.70346  -4243314.92161
  22206470.7214   -3556693.10945  -2562359.50261
 92  5  5  1 47 59.9940000  0  5G13G12G24G20G16
  21274739.174     3169171.449 6   2459243.86621
  19720363.3304   -6055234.10147  -4653447.42162
  18820367.4004  -11168483.11948  -8616961.25962
  21773165.3544   -5936146.61746  -4297178.43661
  22193727.604    -3623651.080 5  -2614534.43221
 92  5  5  1 48 14.9940000  0  5G13G12G24G20G16
  21277015.236     3181140.046 6   2468570.03521
  19720757.315    -6053170.187 7  -4651839.19222
  18816820.900   -11187119.517 8  -8631483.11822
  21760016.6824   -6005243.09746  -4351019.78561
  22180990.9864   -3690582.93545  -2666689.01561
 92  5  5  1 48 29.9940000  0  5G13G12G24G20G16
  21279290.2834    3193104.69946   2477893.14061
  19721176.3934   -6050965.48747  -4650121.25262
  18813298.2834  -11205634.31448  -8645910.22562
  21746872.9474   -6074314.94346  -4404841.93561
  22168259.260    -3757493.708 5  -2718827.16121
 92  5  5  1 48 44.9940000  0  5G13G12G24G20G16
  21281565.3224    3205065.84946   2487213.51961
  19721620.463    -6048619.905 7  -4648293.54122
  18809798.447   -11224025.622 8  -8660241.10222
  21733734.588    -6143361.499 6  -4458644.39021
  22155530.752    -3824383.797 5  -2770949.22021
 92  5  5  1 48 59.9940000  0  5G13G12G24G20G16
  21283848.5804    3217018.58246   2496527.31861
  19722093.463    -6046138.275 7  -4646359.81422
  18806320.963   -11242297.245 8  -8674478.71622
  21720598.8854   -6212387.18046  -4512430.57061
  22142800.7524   -3891257.36745  -2823058.36861
 92  5  5  1 49 14.9940000  0  5G13G12G24G20G16
  21286115.4324    3228966.03746   2505837.02761
  19722591.7994   -6043517.72847  -4644317.84462
  18802868.5884  -11260443.96848  -8688619.01062
  21707468.041    -6281388.725 6  -4566197.95321
  22130075.8854   -3958116.24345  -2875156.08661
 92  5  5  1 49 29.9940000  0  5G13G12G24G20G16
  21288391.0654    3240916.67846   2515149.20561
  19723119.791    -6040749.940 7  -4642161.13522
  18799440.666   -11278456.021 8  -8702654.36622
  21694340.268    -6350357.210 6  -4619939.57621
  22117367.283    -4024950.840 5  -2927234.88521
 92  5  5  1 49 44.9940000  0  5G13G12G24G20G16
  21290666.197     3252864.564 6   2524459.23721
  19723672.6274   -6037841.16247  -4639894.56462
  18796037.5574  -11296342.02148  -8716591.49762
  21681225.1744   -6419298.47546  -4673659.97761
  22104640.486    -4091770.175 5  -2979301.79221
 92  5  5  1 49 59.9940000  0  5G13G12G24G20G16
  21292935.4634    3264808.95746   2533766.54861
  19724253.8074   -6034792.16947  -4637518.74062
  18792657.6504  -11314099.91248  -8730428.80862
  21668106.9864   -6488212.76646  -4727359.37761
  22091932.791    -4158575.400 5  -3031357.69921
 92  5  5  1 50 14.9940000  0  5G13G12G24G20G16
  21295211.471     3276749.438 6   2543070.81421
  19724859.6584   -6031603.36147  -4635033.96462
  18789303.6354  -11331728.22948  -8744165.15062
  21655001.447    -6557099.934 6  -4781037.62821
  22079225.6114   -4225364.65745  -3083401.15861
 92  5  5  1 50 29.9940000  0  5G13G12G24G20G16
  21297477.049     3288678.515 6   2552366.18721
  19725491.736    -6028282.568 7  -4632446.34722
  18785971.9324  -11349233.58748  -8757805.67862
  21641900.0184   -6625967.34946  -4834700.48861
  22066520.127    -4292147.259 5  -3135439.44821
 92  5  5  1 50 44.9940000  0  5G13G12G24G20G16
  21299749.3154    3300598.00846   2561654.08561
  19726149.4084   -6024828.07247  -4629754.53862
  18782663.8224  -11366616.41448  -8771350.72962
  21628797.6824   -6694812.85846  -4888346.28661
  22053811.658    -4358922.799 5  -3187472.20621
 92  5  5  1 50 59.9940000  0  5G13G12G24G20G16
  21302015.385     3312513.319 6   2570938.74021
  19726832.4864   -6021234.70847  -4626954.52962
  18779379.6664  -11383876.09148  -8784799.82262
  21615699.213    -6763630.663 6  -4941970.49621
  22041102.674    -4425683.102 5  -3239493.11721
 92  5  5  1 51 14.9940000  0  5G13G12G24G20G16
  21304282.5254    3324422.26246   2580218.41261
  19727543.1904   -6017504.57447  -4624047.94262
  18776117.2214  -11401016.05248  -8798155.62662
  21602609.213    -6832422.433 6  -4995574.41521
  22028403.744    -4492432.056 5  -3291505.17621
 92  5  5  1 51 29.9940000  0  5G13G12G24G20G16
  21306543.3464    3336312.41446   2589483.45661
  19728276.4794   -6013650.26547  -4621044.59562
  18772876.8464  -11418049.58848  -8811428.50162
  21589519.1974   -6901200.13846  -5049167.38661
  22015696.0884   -4559179.21545  -3343515.83361
 92  5  5  1 51 44.9940000  0  5G13G12G24G20G16
  21308810.221     3348204.188 6   2598749.75021
  19729037.7524   -6009651.62247  -4617928.78262
  18769658.9084  -11434958.29248  -8824604.10662
  21576436.322    -6969943.142 6  -5102733.31221
  22003005.565    -4625900.395 5  -3395506.24621
 92  5  5  1 51 59.9940000  0  5G13G12G24G20G16
  21311066.0884    3360079.38146   2608003.13261
  19729821.8304   -6005527.02047  -4614714.82562
  18766461.510   -11451760.704 8  -8837696.88322
  21563363.596    -7038669.387 6  -5156286.17221
  21990307.6194   -4692615.70145  -3447492.08461
 92  5  5  1 52 14.9940000  0  5G13G12G24G20G16
  21313327.5494    3371955.40046   2617257.17361
  19730634.6354   -6001259.20247  -4611389.25862
  18763288.440   -11468438.911 8  -8850692.87822
  21550289.9164   -7107360.97346  -5209812.02461
  21977616.5104   -4759305.74345  -3499458.23161
 92  5  5  1 52 29.9940000  0  5G13G12G24G20G16
  21315585.830     3383828.521 6   2626508.94021
  19731472.908    -5996851.950 7  -4607955.05022
  18760136.9794  -11485000.30648  -8863597.85662
  21537224.213    -7176021.317 6  -5263313.54821
  21964932.854    -4825975.433 5  -3551408.52421
 92  5  5  1 52 44.9940000  0  5G13G12G24G20G16
  21317851.502     3395712.076 6   2635768.83521
  19732340.7364   -5992292.15247  -4604401.96862
  18757009.4794  -11501433.08948  -8876402.61062
  21524167.150    -7244636.695 6  -5316780.02021
  21952249.4404   -4892613.00545  -3603333.79761
 92  5  5  1 52 59.9940000  0  5G13G12G24G20G16
  21320103.1194    3407585.28946   2645020.67061
  19733234.604    -5987601.033 7  -4600746.56822
  18753901.3774  -11517761.45248  -8889126.00562
  21511113.299    -7313227.569 6  -5370227.40421
  21939575.2604   -4959238.47645  -3655249.62661
 92  5  5  1 53 14.9940000  0  5G13G12G24G20G16
  21322365.8224    3419444.92846   2654261.92261
  19734151.9554   -5982781.63047  -4596991.19762
  18750814.8544  -11533985.05348  -8901767.76662
  21498064.9084   -7381796.93946  -5423658.03461
  21926896.346    -5025856.971 5  -3707160.02421
 92  5  5  1 53 29.9940000  0  5G13G12G24G20G16
  21324622.455     3431297.226 6   2663497.45121
  19735093.4404   -5977828.02047  -4593131.25362
  18747750.4634  -11550094.87048  -8914320.85962
  21485025.010    -7450338.322 6  -5477066.84621
  21914218.9164   -5092461.77345  -3759059.76061
 92  5  5  1 53 44.9940000  0  5G13G12G24G20G16
  21326874.2524    3443152.29746   2672735.14961
  19736063.596    -5972730.545 7  -4589159.20822
  18744706.8694  -11566080.28948  -8926777.02462
  21471987.432    -7518841.212 6  -5530445.67021
  21901551.604    -5159040.232 5  -3810938.97121
 92  5  5  1 53 59.9940000  0  5G13G12G24G20G16
  21329126.752     3454992.569 6   2681961.30421
  19737059.7524   -5967506.58347  -4585088.60262
  18741685.9634  -11581958.58048  -8939149.71362
  21458954.869    -7587322.848 6  -5583807.93721
  21888881.3154   -5225612.45445  -3862813.30261
 92  5  5  1 54 14.9940000  0  5G13G12G24G20G16
  21331378.5724    3466826.05546   2691182.17861
  19738077.377    -5962148.263 7  -4580913.30222
  18738687.4714  -11597720.61448  -8951431.81062
  21445930.744    -7655774.612 6  -5637146.92021
  21876216.424    -5292171.279 5  -3914677.22821
 92  5  5  1 54 29.9940000  0  5G13G12G24G20G16
  21333628.6504    3478642.56446   2700389.81961
  19739120.3154   -5956666.04347  -4576641.45462
  18735706.3384  -11613377.73948  -8963632.15962
  21432907.432    -7724206.289 6  -5690470.25521
  21863549.932    -5358724.460 5  -3966536.73621
 92  5  5  1 54 44.9940000  0  5G13G12G24G20G16
  21335880.4404    3490455.28746   2709594.50661
  19740188.729    -5951046.893 7  -4572262.90722
  18732750.1354  -11628917.36348  -8975740.95162
  21419891.229    -7792604.554 6  -5743767.54621
  21850889.5964   -5425257.95845  -4018380.91161
 92  5  5  1 54 59.9940000  0  5G13G12G24G20G16
  21338121.5964    3502257.69446   2718791.16461
  19741282.674    -5945297.636 7  -4567782.98322
  18729814.5024  -11644342.47648  -8987760.51362
  21406882.486    -7860975.567 6  -5797043.61721
  21838233.0494   -5491775.84445  -4070212.93561
 92  5  5  1 55 14.9940000  0  5G13G12G24G20G16
  21340368.7834    3514060.05546   2727987.77061
  19742403.666    -5939408.249 7  -4563193.86322
  18726903.6354  -11659640.10048  -8999680.73662
  21393881.0724   -7929308.84046  -5850290.26461
  21825584.3464   -5558264.48146  -4122022.14461
 92  5  5  1 55 29.9940000  0  5G13G12G24G20G16
  21342611.3854    3525848.08646   2737173.22361
  19743550.486    -5933393.191 7  -4558506.81822
  18724015.1434  -11674822.83848  -9011511.43262
  21380877.6504   -7997618.22546  -5903518.30861
  21812931.7134   -5624733.46845  -4173816.06961
 92  5  5  1 55 44.9940000  0  5G13G12G24G20G16
  21344850.6974    3537617.83346   2746344.41861
  19744717.650    -5927256.371 7  -4553724.89622
  18721145.5804  -11689898.35648  -9023258.58562
  21367882.424    -8065907.355 6  -5956730.56821
  21800288.5104   -5691183.78845  -4225595.43461
 92  5  5  1 55 59.9940000  0  5G13G12G24G20G16
  21347092.338     3549381.521 6   2755510.89621
  19745910.385    -5920986.012 7  -4548838.91922
  18718299.0494  -11704854.95848  -9034913.07062
  21354896.9084   -8134163.56246  -6009917.18561
  21787650.049    -5757604.382 6  -4277351.65721
 92  5  5  1 56 14.9940000  0  5G13G12G24G20G16
  21349327.0334    3561136.49446   2764670.58261
  19747127.096    -5914584.885 7  -4543851.04022
  18715475.9794  -11719694.69448  -9046476.49562
  21341911.0334   -8202389.22646  -6063079.98661
  21775013.7604   -5823999.21446  -4329087.79661
 92  5  5  1 56 29.9940000  0  5G13G12G24G20G16
  21351564.1824    3572884.73846   2773825.03361
  19748370.4324   -5908051.18247  -4538759.85662
  18712673.6114  -11734418.01948  -9057949.20762
  21328934.713    -8270582.033 6  -6116217.19521
  21762379.2444   -5890364.00745  -4380800.52361
 92  5  5  1 56 44.9940000  0  5G13G12G24G20G16
  21353799.119     3584633.664 6   2782980.01821
  19749642.338    -5901377.764 7  -4533559.80622
  18709895.0414  -11749017.06648  -9069325.07962
  21315966.846    -8338734.170 6  -6169322.70321
  21749763.1434   -5956690.25946  -4432483.22961
 92  5  5  1 56 59.9940000  0  5G13G12G24G20G16
  21356035.9404    3596383.24346   2792135.48761
  19750938.744    -5894564.689 7  -4528250.93222
  18707140.5654  -11763491.42348  -9080603.79762
  21303003.5804   -8406845.16346  -6222396.17161
  21737147.479    -6022977.982 5  -4484135.90721
 92  5  5  1 57 14.9940000  0  5G13G12G24G20G16
  21358271.572     3608131.382 6   2801289.84221
  19752259.861    -5887614.318 7  -4522835.07222
  18704409.8694  -11777843.95948  -9091787.58362
  21290049.2524   -8474916.83146  -6275438.99061
  21724540.6824   -6089226.91846  -4535758.36061
 92  5  5  1 57 29.9940000  0  5G13G12G24G20G16
  21360507.822     3619882.323 6   2810446.41321
  19753609.291    -5880522.510 7  -4517309.00222
  18701701.6354  -11792073.61248  -9102875.61662
  21277109.775    -8542944.621 6  -6328447.61221
  21711939.2754   -6155434.32845  -4587348.45261
 92  5  5  1 57 44.9940000  0  5G13G12G24G20G16
  21362735.9474    3631607.32346   2819582.73961
  19754978.9004   -5873318.24147  -4511695.30162
  18699012.1274  -11806209.72748  -9113890.76762
  21264163.791    -8610956.879 6  -6381444.13021
  21699345.4004   -6221630.48546  -4638929.78961
 92  5  5  1 57 59.9940000  0  5G13G12G24G20G16
  21364972.2444    3643332.01846   2828718.83561
  19756377.049    -5865976.443 7  -4505974.43422
  18696345.3854  -11820226.34048  -9124812.80062
  21251225.7604   -8678927.84146  -6434408.48761
  21686753.8694   -6287792.37846  -4690484.42361
 92  5  5  1 58 14.9940000  0  5G13G12G24G20G16
  21367203.018     3655076.529 6   2837870.36221
  19757805.0804   -5858476.88547  -4500130.63362
  18693705.5334  -11834099.73348  -9135623.23162
  21238305.7294   -8746836.86046  -6487324.56861
  21674175.0804   -6353900.22246  -4741996.94461
 92  5  5  1 58 29.9940000  0  5G13G12G24G20G16
  21369434.283     3666813.749 6   2847016.24121
  19759257.518    -5850846.971 7  -4494185.26322
  18691087.1194  -11847858.44648  -9146344.30062
  21225394.5804   -8814710.92446  -6540213.40561
  21661600.8224   -6419979.09346  -4793486.89061
 92  5  5  1 58 44.9940000  0  5G13G12G24G20G16
  21371672.549     3678550.234 6   2856161.50721
  19760734.744    -5843080.460 7  -4488133.44922
  18688491.7684  -11861495.31248  -9156970.42562
  21212481.9554   -8882543.04246  -6593069.56461
  21649034.791    -6486019.030 6  -4844946.46821
 92  5  5  1 58 59.9940000  0  5G13G12G24G20G16
  21373902.8614    3690279.17846   2865300.93161
  19762238.596    -5835184.385 7  -4481980.67822
  18685919.0804  -11875014.72748  -9167505.02662
  21199583.1974   -8950339.75246  -6645898.13861
  21636472.8854   -6552026.86646  -4896381.05261
 92  5  5  1 59 14.9940000  0  5G13G12G24G20G16
  21376136.440     3702005.862 6   2874438.56621
  19763765.283    -5827153.438 7  -4475722.81622
  18683369.1274  -11888410.50248  -9177943.28862
  21186687.6584   -9018095.11646  -6698694.48661
  21623919.5414   -6617997.78746  -4947786.87261
 92  5  5  1 59 29.9940000  0  5G13G12G24G20G16
  21378363.0804    3713716.99146   2883564.10561
  19765317.025    -5819001.480 7  -4469370.65222
  18680842.1504  -11901696.28948  -9188295.84562
  21173801.1664   -9085822.28746  -6751468.86961
  21611367.5494   -6683949.05146  -4999177.38261
 92  5  5  1 59 44.9940000  0  5G13G12G24G20G16
  21380591.166     3725422.818 6   2892685.49621
  19766894.127    -5810718.088 7  -4462916.07622
  18678336.0724  -11914861.81148  -9198554.68362
  21160917.979    -9153510.526 6  -6804212.90721
  21598823.150    -6749871.710 6  -5050545.60221
 92  5  5  1 59 59.9940000  0  5G13G12G24G20G16
  21382817.369     3737133.507 6   2901810.69321
  19768498.127    -5802293.371 7  -4456351.37722
  18675856.6114  -11927898.19648  -9208712.90462
  21148047.8224   -9221149.44446  -6856918.52261
  21586287.666    -6815754.337 6  -5101882.62921
 92  5  5  2  0 14.9940000  0  5G13G12G24G20G16
  21385044.580     3748834.269 6   2910928.14321
  19770124.627    -5793742.646 7  -4449688.48822
  18673395.8224  -11940821.02348  -9218782.63262
  21135183.6434   -9288753.52646  -6909596.99661
  21573755.9164   -6881611.68046  -5153199.95161
 92  5  5  2  0 29.9940000  0  5G13G12G24G20G16
  21387268.0254    3760537.45846   2920047.49061
  19771777.361    -5785053.562 7  -4442917.78922
  18670960.1584  -11953620.58948  -9228756.31662
  21122328.5334   -9356309.83046  -6962238.23161
  21561228.4474   -6947430.11746  -5204486.96161
 92  5  5  2  0 44.9940000  0  5G13G12G24G20G16
  21389496.721     3772232.575 6   2929160.54721
  19773453.393    -5776236.767 7  -4436047.57622
  18668546.9084  -11966309.51348  -9238643.77962
  21109479.518    -9423828.588 6  -7014850.20721
  21548710.072    -7013221.393 6  -5255752.80221
 92  5  5  2  0 59.9940000  0  5G13G12G24G20G16
  21391723.807     3783926.759 6   2938272.87521
  19775157.994    -5767285.513 7  -4429072.58822
  18666154.3934  -11978878.90848  -9248438.10862
  21096637.4244   -9491302.21146  -7067427.02761
  21536193.033    -7078978.755 6  -5306992.23021
 92  5  5  2  1 14.9940000  0  5G13G12G24G20G16
  21393947.775     3795618.668 6   2947383.43821
  19776886.385    -5758201.403 7  -4421994.07522
  18663784.6044  -11991332.31748  -9258142.05762
  21083811.041    -9558731.930 6  -7119969.62021
  21523685.611    -7144705.582 6  -5358207.85021
 92  5  5  2  1 29.9940000  0  5G13G12G24G20G16
  21396171.6744    3807305.43846   2956489.98361
  19778639.455    -5748987.350 7  -4414814.31122
  18661436.1114  -12003674.18448  -9267759.09162
  21070983.3774   -9626120.19946  -7172479.91961
  21511186.424    -7210403.759 6  -5409401.14121
 92  5  5  2  1 44.9940000  0  5G13G12G24G20G16
  21398393.221     3818981.065 6   2965587.87121
  19780417.815    -5739649.582 7  -4407538.14722
  18659107.0724  -12015912.79748  -9277295.66962
  21058171.4474   -9693472.63146  -7224962.28661
  21498687.486    -7276076.489 6  -5460574.62521
 92  5  5  2  1 59.9940000  0  5G13G12G24G20G16
  21400613.1434    3830646.04546   2974677.46061
  19782219.354    -5730188.155 7  -4400165.62622
  18656798.4794  -12028046.86048  -9286750.77762
  21045357.213    -9760788.495 6  -7277416.16621
  21486199.8074   -7341718.76746  -5511724.36461
 92  5  5  2  2 14.9940000  0  5G13G12G24G20G16
  21402832.8074    3842307.36946   2983764.19261
  19784043.346    -5720596.033 7  -4392691.26222
  18654509.4944  -12040068.53348  -9296118.31262
  21032557.8224   -9828060.52846  -7329835.89161
  21473712.8154   -7407323.04346  -5562844.49961
 92  5  5  2  2 29.9940000  0  5G13G12G24G20G16
  21405049.6974    3853962.48946   2992846.09561
  19785891.947    -5710876.350 7  -4385117.50022
  18652244.1114  -12051978.22148  -9305398.58362
  21019763.0334   -9895290.78346  -7382223.05861
  21461239.658    -7472892.319 6  -5613937.36821
 92  5  5  2  2 44.9940000  0  5G13G12G24G20G16
  21407267.2294    3865605.81046   3001918.78361
  19787765.041    -5701034.628 7  -4377448.64222
  18649999.0334  -12063780.39148  -9314595.07662
  21006976.979    -9962484.544 6  -7434581.79021
  21448762.549    -7538430.984 6  -5665006.36921
 92  5  5  2  2 59.9940000  0  5G13G12G24G20G16
  21409483.6904    3877241.25546   3010985.37461
  19789661.924    -5691067.154 7  -4369681.79622
  18647773.4864  -12075470.01748  -9323703.87263
  20994198.275   -10029637.679 6  -7486908.86121
  21436297.643    -7603932.913 6  -5716046.75521
 92  5  5  2  3 14.9940000  0  5G13G12G24G20G16
  21411696.572     3888874.787 6   3020050.44621
  19791584.502    -5680968.315 7  -4361812.58722
  18645571.0574  -12087043.40347  -9332722.09162
  20981427.471   -10096743.599 6  -7539199.15621
  21423843.674    -7669391.805 6  -5767053.59621
 92  5  5  2  3 29.9940000  0  5G13G12G24G20G16
  21413908.3154    3900503.66346   3029111.91961
  19793530.065    -5670741.242 7  -4353843.45922
  18643389.6904  -12098504.68048  -9341652.95462
  20968667.416   -10163804.917 6  -7591454.67821
  21411393.0184   -7734809.28446  -5818028.17061
 92  5  5  2  3 44.9940000  0  5G13G12G24G20G16
  21416120.4714    3912127.36946   3038169.34561
  19795500.315    -5660386.527 7  -4345774.86522
  18641230.1664  -12109852.71148  -9350495.57163
  20955914.197   -10230821.660 6  -7643675.47721
  21398953.8774   -7800185.74046  -5868970.76461
 92  5  5  2  3 59.9940000  0  5G13G12G24G20G16
  21418330.721     3923752.325 6   3047227.75921
  19797498.096    -5649898.293 7  -4337602.23322
  18639094.2604  -12121079.00448  -9359243.33262
  20943168.4164  -10297787.26046  -7695856.41961
  21386524.268    -7865514.014 6  -5919875.83721
 92  5  5  2  4 14.9940000  0  5G13G12G24G20G16
  21420541.1274    3935377.13146   3056286.04761
  19799519.072    -5639277.971 7  -4329326.67622
  18636981.4634  -12132182.30047  -9367895.24363
  20930443.088   -10364702.660 6  -7747998.23621
  21374100.4324   -7930797.41846  -5970745.92561
 92  5  5  2  4 29.9940000  0  5G13G12G24G20G16
  21422754.588     3946996.125 6   3065339.79621
  19801562.244    -5628531.361 7  -4320952.71122
  18634891.4244  -12143166.62347  -9376454.45263
  20917715.190   -10431573.218 6  -7800105.12821
  21361682.8074   -7996042.36746  -6021586.04661
 92  5  5  2  4 44.9940000  0  5G13G12G24G20G16
  21424966.3934    3958621.91646   3074398.84761
  19803632.822    -5617646.364 7  -4312470.91322
  18632825.8384  -12154019.18047  -9384910.98162
  20904996.049   -10498385.908 6  -7852166.92021
  21349275.5804   -8061235.20546  -6072385.57161
 92  5  5  2  4 59.9940000  0  5G13G12G24G20G16
  21427174.0884    3970235.44646   3083448.35561
  19805728.471    -5606642.176 7  -4303896.23722
  18630782.4164  -12164761.75047  -9393281.81063
  20892294.580   -10565159.585 6  -7904198.31221
  21336880.697    -8126393.642 6  -6123158.29821
 92  5  5  2  5 14.9940000  0  5G13G12G24G20G16
  21429389.2444    3981851.41946   3092499.75061
  19807846.291    -5595504.370 7  -4295217.44422
  18628761.0414  -12175380.46148  -9401556.12763
  20879592.2294  -10631879.26246  -7956187.63661
  21324486.4794   -8191503.05546  -6173892.81561
 92  5  5  2  5 29.9940000  0  5G13G12G24G20G16
  21431598.4864    3993474.88746   3101557.00461
  19809993.346    -5584228.131 7  -4286430.78422
  18626765.4324  -12185867.07747  -9409727.51163
  20866911.8614  -10698539.32346  -8008130.49561
  21312108.6274   -8256557.65946  -6224584.62261
 92  5  5  2  5 44.9940000  0  5G13G12G24G20G16
  21433805.0184    4005088.86946   3110606.85161
  19812161.893    -5572830.669 7  -4277549.66321
  18624792.8074  -12196235.34047  -9417806.67263
  20854231.5964  -10765156.41246  -8060039.87661
  21299735.979    -8321572.542 6  -6275245.48921
 92  5  5  2  5 59.9940000  0  5G13G12G24G20G16
  21436013.619     4016693.083 6
  19814355.096    -5561312.508 7
  18622841.2754  -12206487.17047  -9425795.10263
  20841566.494   -10831730.560 6  -8111915.79721
  21287375.3464   -8386549.25146  -6325876.59461
 92  5  5  2  6 14.9930000  0  5G13G12G24G20G16
  21438210.661     4028227.170 6   3128636.70921
  19816558.302    -5549734.399 7  -4259552.60022
  18620901.4744  -12216682.99847  -9433739.90063
  20828890.841   -10898316.553 6  -8163800.94621
  21275006.255    -8451543.058 6  -6376521.03821
 92  5  5  2  6 29.9930000  0  5G13G12G24G20G16
  21440403.2004    4039743.84246   3137610.72361
  19818782.286    -5538043.942 7  -4250443.17122
  18618980.2474  -12226776.75247  -9441605.15463
  20816228.575   -10964871.788 6  -8215662.12521
  21262642.0604   -8516510.64346  -6427145.03761
 92  5  5  2  6 44.9930000  0  5G13G12G24G20G16
  21442592.763     4051248.899 6   3146575.71521
  19821028.200    -5526235.481 7  -4241241.79122
  18617080.6384  -12236763.90147  -9449387.33963
  20803568.4424  -11031384.78946  -8267490.39961
  21250289.153    -8581440.852 6  -6477739.91721
 92  5  5  2  6 59.9930000  0  5G13G12G24G20G16
  21444779.6384    4062751.35646   3155538.65761
  19823298.325    -5514300.088 7  -4231941.50322
  18615200.7394  -12246639.47747  -9457082.59063
  20790924.8024  -11097846.12146  -8319278.40961
  21237934.7714   -8646325.85346  -6528299.57161
 92  5  5  2  7 14.9930000  0  5G13G12G24G20G16
  21446969.9354    4074249.21146   3164497.99861
  19825597.052    -5502240.489 7  -4222544.43022
  18613342.1384  -12256405.38747  -9464692.38163
  20778285.060   -11164257.812 6  -8371027.73621
  21225600.7944   -8711166.18946  -6578824.41661
 92  5  5  2  7 29.9930000  0  5G13G12G24G20G16
  21449156.7474    4085737.89046   3173450.21561
  19827914.646    -5490061.364 7  -4213054.21422
  18611503.5834  -12266064.38147  -9472218.86563
  20765656.3964  -11230623.88346  -8422741.52061
  21213267.6384   -8775966.48246  -6629318.06761
 92  5  5  2  7 44.9930000  0  5G13G12G24G20G16
  21451336.911     4097214.803 6   3182393.24521
  19830253.325    -5477765.709 7  -4203473.20122
  18609685.4504  -12275621.75347  -9479666.16163
  20753037.497   -11296946.783 6  -8474421.65721
  21200947.0914   -8840730.00646  -6679783.06061
 92  5  5  2  7 59.9930000  0  5G13G12G24G20G16
  21453526.513     4108684.945 6   3191331.02121
  19832613.833    -5465348.503 7  -4193797.47122
  18607887.3334  -12285075.79347  -9487032.93663
  20740425.8334  -11363220.96646  -8526063.84261
  21188628.8574   -8905452.95846  -6730216.45061
 92  5  5  2  8 14.9930000  0  5G13G12G24G20G16
  21455712.0214    4120159.97846   3200272.57361
  19835001.958    -5452798.787 7  -4184018.49322
  18606109.5054  -12294414.91647  -9494310.17363
  20727827.294   -11429434.632 6  -8577658.86621
  21176322.8574   -8970122.93046  -6780608.54161
 92  5  5  2  8 29.9930000  0  5G13G12G24G20G16
  21457888.3334    4131624.54546   3209206.00661
  19837414.341    -5440132.030 7  -4174148.30522
  18604352.1774  -12303651.64147  -9501507.61563
  20715231.8334  -11495602.71946  -8629218.38161
  21164021.388    -9034751.493 6  -6830968.37421
 92  5  5  2  8 44.9930000  0  5G13G12G24G20G16
  21460065.200     4143075.188 6   3218128.54721
  19839846.802    -5427352.035 7  -4164189.88822
  18602612.7864  -12312788.75147  -9508627.43363
  20702646.8964  -11561728.43346  -8680744.86961
  21151730.903    -9099342.364 6  -6881298.84021
 92  5  5  2  8 59.9930000  0  5G13G12G24G20G16
  21462245.8724    4154535.52946   3227058.69261
  19842305.474    -5414435.356 7  -4154124.95822
  18600897.8334  -12321799.90647  -9515649.10663
  20690078.7004  -11627787.60046  -8732219.50161
  21139454.122    -9163871.912 6  -6931581.52021
 92  5  5  2  9 14.9930000  0  5G13G12G24G20G16
  21464426.544     4166002.373 6   3235993.87821
  19844787.700    -5401385.151 7  -4143955.98422
  18599207.4974  -12330684.80747  -9522572.39963
  20677522.2634  -11693782.96646  -8783644.42961
  21127184.200    -9228340.228 6  -6981816.47621
 92  5  5  2  9 29.9930000  0  5G13G12G24G20G16
  21466610.1694    4177468.09746   3244928.17761
  19847295.271    -5388209.755 7  -4133689.46222
  18597540.4424  -12339450.23447  -9529402.59663
  20664973.5754  -11759721.95946  -8835025.41661
  21114928.3724   -9292752.92346  -7032008.10461
 92  5  5  2  9 44.9930000  0  5G13G12G24G20G16
  21468793.3334    4188925.64546   3253856.12661
  19849824.755    -5374916.511 7  -4123331.10922
  18595892.5754  -12348104.54647  -9536146.21163
  20652436.0364  -11825611.39446  -8886367.80561
  21102680.771    -9357117.391 6  -7082162.15121
 92  5  5  2  9 59.9930000  0  5G13G12G24G20G16
  21470975.5444    4200373.30546   3262776.36761
  19852375.653    -5361507.513 7  -4112882.55322
  18594267.3414  -12356650.11747  -9542805.09163
  20639905.107   -11891452.736 6  -8937672.69921
  21090438.8174   -9421434.89446  -7132279.59361
 92  5  5  2 10 14.9930000  0  5G13G12G24G20G16
  21473146.3884    4211806.85646   3271685.59661
  19854948.419    -5347986.934 7  -4102347.05922
  18592661.8414  -12365088.65647  -9549380.57263
  20627384.1854  -11957249.68446  -8988943.01561
  21078209.1924   -9485705.91446  -7182360.82761
 92  5  5  2 10 29.9930000  0  5G13G12G24G20G16
  21475319.8964    4223222.46846   3280580.85861
  19857542.458    -5334359.168 7  -4091728.03821
  18591074.8884  -12373423.79247  -9555875.47963
  20614871.8414  -12023005.82246  -9040181.52661
  21065987.5754   -9549934.96346  -7232409.34761
 92  5  5  2 10 44.9930000  0  5G13G12G24G20G16
  21477493.4034    4234647.75046   3289483.64361
  19860160.263    -5320596.703 7  -4081004.05621
  18589513.1694  -12381630.48647  -9562270.30263
  20602367.7084  -12088693.16246  -9091366.42361
  21053777.5834   -9614096.98246  -7282405.63961
 92  5  5  2 10 59.9930000  0  5G13G12G24G20G16
  21479670.1924    4246069.63346   3298383.81661
  19862800.700    -5306713.094 7  -4070185.67322
  18587972.9034  -12389724.18547  -9568577.07663
  20589881.4034  -12154324.49546  -9142507.68061
  21041580.153    -9678204.288 6  -7332359.30021
 92  5  5  2 11 14.9930000  0  5G13G12G24G20G16
  21481835.0674    4257477.94146   3307273.36761
  19865467.263    -5292719.033 7  -4059281.23521
  18586451.1304  -12397718.96148  -9574806.76763
  20577401.7784  -12219909.64946  -9193612.95361
  21029387.2714   -9742265.89146  -7382277.33461
 92  5  5  2 11 29.9930000  0  5G13G12G24G20G16
  21484004.6304    4268878.32246   3316156.76161
  19868151.114    -5278608.686 7  -4048286.17522
  18584949.2084  -12405612.18548  -9580957.32963
  20564931.185   -12285442.681 6  -9244677.61021
  21017204.325    -9806276.543 6  -7432155.67921
 92  5  5  2 11 44.9930000  0  5G13G12G24G20G16
  21486175.333     4280281.042 6   3325041.98221
  19870859.778    -5264372.300 7  -4037192.90522
  18583468.6614  -12413395.75148  -9587022.44163
  20552472.7084  -12350912.82446  -9295693.27461
  21005040.294    -9870227.237 6  -7481987.29921
 92  5  5  2 11 59.9930000  0  5G13G12G24G20G16
  21488343.3884    4291673.54746   3333919.23161
  19873589.607    -5250022.830 7  -4026011.52021
  18582005.5834  -12421081.32048  -9593011.19363
  20540023.7244  -12416332.45846  -9346669.57161
  20992874.271    -9934133.296 6  -7531784.14321
 92  5  5  2 12 14.9930000  0  5G13G12G24G20G16
  21490515.263     4303067.394 6   3342797.54121
  19876343.942    -5235549.054 7  -4014733.26921
  18580563.7004  -12428656.97348  -9598914.29363
  20527587.8574  -12481689.83046  -9397597.35561
  20980725.357    -9997982.327 6  -7581536.55521
 92  5  5  2 12 29.9930000  0  5G13G12G24G20G16
  21492680.3174    4314451.38046   3351668.15761
  19879119.638    -5220962.338 7  -4003367.01621
  18579141.4274  -12436134.23348  -9604740.72163
  20515158.6774  -12546995.54546  -9448484.89061
  20968585.896   -10061785.829 6  -7631253.48421
 92  5  5  2 12 44.9930000  0  5G13G12G24G20G16
  21494843.4354    4325834.84646   3360538.37561
  19881920.091    -5206253.657 7  -3991905.72221
  18577738.1384  -12443505.74447  -9610484.75363
  20502743.067   -12612239.775 6  -9499324.50921
  20956453.614   -10125537.034 6  -7680929.66421
 92  5  5  2 12 59.9930000  0  5G13G12G24G20G16
  21497004.950     4337205.843 6   3369398.88121
  19884740.552    -5191435.569 7  -3980359.18421
  18576352.8174  -12450784.51248  -9616156.51663
  20490338.4974  -12677434.48146  -9550125.54961
  20944330.903   -10189246.129 6  -7730573.03521
 92  5  5  2 13 14.9930000  0  5G13G12G24G20G16
  21499166.966     4348546.940 6   3378236.07921
  19887575.544    -5176525.440 7  -3968740.92321
  18574983.4584  -12457985.95848  -9621768.02663
  20477934.0834  -12742596.71746  -9600901.27761
  20932211.107   -10252930.133 6  -7780196.85321
 92  5  5  2 13 29.9930000  0  5G13G12G24G20G16
  21501325.091     4359899.816 6   3387082.44721
  19890439.528    -5161481.974 7  -3957018.75821
  18573635.4584  -12465065.62548  -9627284.64363
  20465554.5134  -12807684.24946  -9651618.80361
  20920104.216   -10316547.497 6  -7829768.74321
 92  5  5  2 13 44.9930000  0  5G13G12G24G20G16
  21503489.817     4371257.296 6   3395932.42121
  19893326.567    -5146312.699 7  -3945198.56422
  18572310.5994  -12472027.31848  -9632709.33663
  20453181.630   -12872704.070 6  -9702283.56321
  20908009.005   -10380102.995 6  -7879292.43321
 92  5  5  2 13 59.9930000  0  5G13G12G24G20G16
  21505649.4744    4382600.71646   3404771.43761
  19896233.146    -5131036.525 7  -3933295.07322
  18571005.5914  -12478887.40348  -9638054.85063
  20440815.341   -12937674.345 6  -9752909.71321
  20895923.1774  -10443613.78646  -7928781.28861
 92  5  5  2 14 14.9930000  0  5G13G12G24G20G16
  21507806.5994    4393941.37046   3413608.29861
  19899162.583    -5115642.748 7  -3921299.94321
  18569722.2324  -12485634.37248  -9643312.22163
  20428465.0914  -13002583.82446  -9803488.49761
  20883849.107   -10507067.461 6  -7978225.63621
 92  5  5  2 14 29.9930000  0  5G13G12G24G20G16
  21509959.7164    4405268.29546   3422434.45861
  19902113.732    -5100142.571 7  -3909221.90521
  18568456.7864  -12492279.91348  -9648490.56263
  20416123.935   -13067443.012 6  -9854028.08521
  20871782.1924  -10570471.92646  -8027631.64461
 92  5  5  2 14 44.9930000  0  5G13G12G24G20G16
  21512110.5834    4416572.65046   3431243.03961
  19905081.513    -5084545.015 7  -3897067.98821
  18567210.8884  -12498832.85748  -9653596.74763
  20403786.0994  -13132260.14146  -9904534.91061
  20859721.036   -10633837.925 6  -8077007.67421
 92  5  5  2 14 59.9930000  0  5G13G12G24G20G16
  21514261.966     4427877.004 6   3440051.60821
  19908070.950    -5068827.811 7  -3884820.83521
  18565985.6464  -12505268.94648  -9658611.87563
  20391464.9274  -13197012.55446  -9954991.30461
  20847679.427   -10697139.919 6  -8126333.83221
 92  5  5  2 15 14.9930000  0  5G13G12G24G20G16
  21516413.3644    4439166.78946   3448848.83661
  19911082.161    -5053006.029 7  -3872492.19721
  18564779.8804  -12511599.90948  -9663545.08963
  20379153.1384  -13261714.43146 -10005408.31261
  20835643.263   -10760388.999 6  -8175618.75721
 92  5  5  2 15 29.9930000  0  5G13G12G24G20G16
  21518559.153     4450451.386 6   3457642.00921
  19914115.060    -5037070.542 7  -3860074.95621
  18563597.2324  -12517815.90148  -9668388.71163
  20366852.7164  -13326355.96946 -10055778.30761
  20823619.3334  -10823575.34046  -8224854.80261
 92  5  5  2 15 44.9930000  0  5G13G12G24G20G16
  21520703.0134    4461730.74346   3466431.11661
  19917169.591    -5021021.952 7  -3847569.58321
  18562435.8174  -12523917.89848  -9673143.50863
  20354561.7244  -13390937.08646 -10106101.22161
  20811605.8964  -10886698.86046  -8274041.89261
 92  5  5  2 15 59.9930000  0  5G13G12G24G20G16
  21522851.2324    4473006.52346   3475217.44661
  19920244.474    -5004858.690 7  -3834974.85821
  18561296.9974  -12529905.55348  -9677809.20763
  20342280.9194  -13455455.77746 -10156375.49461
  20799608.349   -10949760.014 6  -8323180.38521
 92  5  5  2 16 14.9930000  0  5G13G12G24G20G16
  21524997.255     4484278.304 6   3484000.63421
  19923343.169    -4988581.571 7  -3822291.41121
  18560179.1464  -12535780.28548  -9682386.91563
  20330019.4744  -13519911.96146 -10206601.05661
  20787617.6774  -11012760.07446  -8372271.27561
 92  5  5  2 16 29.9930000  0  5G13G12G24G20G16
  21527139.5134    4495536.43846   3492773.20261
  19926458.575    -4972200.356 7  -3809526.84521
  18559080.0604  -12541554.40648  -9686886.21863
  20317759.2394  -13584314.76146 -10256785.02461
  20775641.122   -11075707.402 6  -8421321.06621
 92  5  5  2 16 44.9930000  0  5G13G12G24G20G16
  21529276.2244    4506782.73846   3501536.55361
  19929596.841    -4955713.889 7  -3796680.27321
  18558000.8964  -12547226.69148  -9691306.17663
  20305514.388   -13648662.309 6 -10306925.93821
  20763673.4504  -11138600.57046  -8470328.66361
 92  5  5  2 16 59.9930000  0  5G13G12G24G20G16
  21531417.3104    4518010.69846   3510285.61361
  19932752.177    -4939129.084 7  -3783757.06621
  18556939.5754  -12552803.70148  -9695651.88763
  20293280.3174  -13712960.95946 -10357028.74561
  20751715.153   -11201445.351 6  -8519298.55721
 92  5  5  2 17 14.9930000  0  5G13G12G24G20G16
  21533550.9354    4529232.26146   3519029.67061
  19935929.286    -4922434.295 7  -3770748.16721
  18555898.1694  -12558275.52848  -9699915.64263
  20281060.6074  -13777198.33146 -10407083.80361
  20739766.9354  -11264229.14546  -8568220.93161
 92  5  5  2 17 29.9930000  0  5G13G12G24G20G16
  21535687.536     4540443.042 6   3527765.36621
  19939126.622    -4905634.107 7  -3757657.13321
  18554876.3494  -12563650.33448  -9704103.79563
  20268845.5524  -13841378.54046 -10457094.31761
  20727829.114   -11326960.718 6  -8617102.60221
 92  5  5  2 17 44.9930000  0  5G13G12G24G20G16
  21537816.9504    4551645.63346   3536494.63661
  19942343.724    -4888726.323 6  -3744482.26021
  18553871.6694  -12568928.51748  -9708216.65963
  20256643.9894  -13905498.56646 -10507057.94361
  20715901.0914  -11389638.83046  -8665942.62961
 92  5  5  2 17 59.9930000  0  5G13G12G24G20G16
  21539947.521     4562842.860 6   3545219.75321
  19945581.185    -4871708.479 6  -3731221.62521
  18552885.6074  -12574108.05848  -9712252.66363
  20244452.6924  -13969555.18846 -10556972.15361
  20703984.7864  -11452259.50846  -8714737.89861
 92  5  5  2 18 14.9930000  0  5G13G12G24G20G16
  21542074.4274    4574030.21646   3553937.16161
  19948841.255    -4854585.544 6  -3717879.10121
  18551917.5444  -12579195.33648  -9716216.77163
  20232276.3724  -14033552.61646 -10606840.24361
  20692076.630   -11514825.540 6  -8763490.57321
 92  5  5  2 18 29.9930000  0  5G13G12G24G20G16
  21544207.513     4585220.574 6   3562656.93021
  19952121.677    -4837344.818 6  -3704444.78921
  18550970.0994  -12584177.90348  -9720099.28663
  20220112.5834  -14097477.81346 -10656652.04961
  20680185.0674  -11577323.34446  -8812190.09561
 92  5  5  2 18 44.9930000  0  5G13G12G24G20G16
  21546331.591     4596407.370 6   3571373.90621
  19955424.583    -4819993.213 6  -3690924.08521
  18550040.0214  -12589061.51348  -9723904.69463
  20207961.4974  -14161337.08647 -10706412.48061
  20668305.427   -11639759.612 6  -8860841.66021
 92  5  5  2 18 59.9930000  0  5G13G12G24G20G16
  21548464.0444    4607600.17246   3580095.56161
  19958747.419    -4802521.737 6  -3677309.96921
  18549131.5604  -12593835.56448  -9727624.73063
  20195825.5524  -14225120.43447 -10756113.75461
  20656436.4194  -11702125.31646  -8909438.24761
 92  5  5  2 19 14.9930000  0  5G13G12G24G20G16
  21550593.888     4618788.461 6   3588813.72321
  19962093.700    -4784941.076 6  -3663610.77321
  18548240.6384  -12598512.92548  -9731269.42263
  20183696.8254  -14288838.04047 -10805763.80061
  20644578.099   -11764430.984 6  -8957988.04721
 92  5  5  2 19 29.9930000  0  5G13G12G24G20G16
  21552718.2324    4629971.58146   3597527.83961
  19965458.903    -4767252.295 6  -3649827.32421
  18547369.8884  -12603094.41548  -9734839.41263
  20171583.3254  -14352490.20246 -10855362.85561
  20632734.4274  -11826677.00046  -9006491.36361
 92  5  5  2 19 44.9930000  0  5G13G12G24G20G16
  21554851.5284    4641158.28646   3606244.75761
  19968847.692    -4749446.762 6  -3635952.90421
  18546518.5364  -12607569.94248  -9738326.83263
  20159483.8334  -14416067.76446 -10904903.77761
  20620902.0994  -11888849.40046  -9054937.32661
 92  5  5  2 19 59.9930000  0  5G13G12G24G20G16
  21556979.6774    4652348.55246   3614964.44561
  19972258.614    -4731525.005 6  -3621987.92221
  18545686.5994  -12611936.67648  -9741729.48063
  20147400.5604  -14479570.42146 -10954386.33061
  20609089.2714  -11950944.46946  -9103323.01461
 92  5  5  2 20 14.9930000  0  5G13G12G24G20G16
  21559105.6464    4663535.32946   3623681.43361
  19975689.333    -4713494.437 6  -3607938.14421
  18544875.5214  -12616198.77748  -9745050.59063
  20135328.8804  -14543004.74746 -11003815.64261
  20597285.700   -12012968.953 6  -9151653.71121
 92  5  5  2 20 29.9930000  0  5G13G12G24G20G16
  21561236.4664    4674720.89446   3632397.44161
  19979141.419    -4695353.066 6  -3593802.03021
  18544086.1694  -12620351.40448  -9748286.39963
  20123273.3804  -14606368.36747 -11053189.85861
  20585498.0054  -12074920.93146  -9199927.91561
 92  5  5  2 20 44.9930000  0  5G13G12G24G20G16
  21563366.200     4685917.946 6   3641122.44221
  19982617.5364   -4677088.87746  -3579570.20961
  18543319.7634  -12624380.02848  -9751425.58463
  20111228.5444  -14669648.32546 -11102498.88061
  20573720.997   -12136787.510 6  -9248135.56421
 92  5  5  2 20 59.9930000  0  5G13G12G24G20G16
  21565491.2554    4697103.52046   3649838.47161
  19986111.669    -4658724.886 6  -3565260.62321
  18542571.5914  -12628309.87048  -9754487.79263
  20099199.9664  -14732867.05246 -11151760.19161
  20561963.3104  -12198591.95246  -9296294.79761
 92  5  5  2 21 14.9930000  0  5G13G12G24G20G16
  21567625.3964    4708292.00446   3658556.76361
  19989627.825    -4640247.224 6  -3550862.46121
  18541844.2554  -12632127.68948  -9757462.71163
  20087184.4664  -14796010.09546 -11200962.52861
  20550214.200   -12260319.698 6  -9344394.26021
 92  5  5  2 21 29.9930000  0  5G13G12G24G20G16
  21569760.6924    4719503.81546   3667293.25861
  19993169.341    -4621635.979 6  -3536360.21121
  18541142.9034  -12635811.67447  -9760333.34363
  20075185.1924  -14859056.78846 -11250089.78861
  20538486.708   -12321949.520 6  -9392417.42421
 92  5  5  2 21 44.9930000  0  5G13G12G24G20G16
  21571887.5214    4730709.49146   3676024.96861
  19996730.997    -4602920.912 6  -3521777.05621
  18540462.6074  -12639388.32047  -9763120.33763
  20063202.5674  -14922036.19546 -11299164.61461
  20526773.497   -12383508.683 6  -9440385.52521
 92  5  5  2 21 59.9930000  0  5G13G12G24G20G16
  21574023.935     4741910.153 6   3684752.73621
  20000313.880    -4584101.026 6  -3507112.22321
  18539802.0364  -12642856.86447  -9765823.10063
  20051234.0364  -14984946.68247 -11348185.74261
  20515071.302   -12444998.884 6  -9488299.89221
 92  5  5  2 22 14.9930000  0  5G13G12G24G20G16
  21576154.646     4753116.193 6   3693484.74421
  20003915.2164   -4565166.34046  -3492357.93361
  18539164.7714  -12646208.04047  -9768434.40663
  20039275.3104  -15047777.55546 -11397144.82961
  20503384.005   -12506412.065 6  -9536154.24021
 92  5  5  2 22 29.9930000  0  5G13G12G24G20G16
  21578284.333     4764311.629 6   3702208.44221
  20007535.677    -4546133.378 6  -3477527.07321
  18538546.0914  -12649460.73947  -9770968.97663
  20027331.2394  -15110544.44546 -11446054.06161
  20491708.5754  -12567763.27746  -9583960.30361
 92  5  5  2 22 44.9930000  0  5G13G12G24G20G16
  21580414.107     4775497.678 6   3710924.87521
  20011177.8174   -4527001.15146  -3462618.85061
  18537945.6614  -12652617.17548  -9773428.53663
  20015397.0054  -15173246.00346 -11494912.38161
  20480042.732   -12629051.379 6  -9631717.19021
 92  5  5  2 22 59.9930000  0  5G13G12G24G20G16
  21582543.2324    4786681.06746   3719639.19761
  20014839.810    -4507763.136 6  -3447628.20321
  18537362.3104  -12655674.38747  -9775810.78463
  20003481.4824  -15235874.92646 -11543714.10861
  20468399.857   -12690270.043 6  -9679419.96721
 92  5  5  2 23 14.9930000  0  5G13G12G24G20G16
  21584672.8964    4797861.00946   3728350.83461
  20018518.3254   -4488420.96246  -3432556.39661
  18536801.2634  -12658633.35347  -9778116.47763
  19991576.7714  -15298431.85547 -11592459.73461
  20456761.1384  -12751418.74546  -9727068.24561
 92  5  5  2 23 29.9930000  0  5G13G12G24G20G16
  21586795.4504    4809028.30546   3737052.60261
  20022217.013    -4468983.900 6  -3417410.64821
  18536254.3024  -12661501.66947  -9780351.53363
  19979685.0604  -15360925.69447 -11641156.19761
  20445137.794   -12812503.735 6  -9774666.85821
 92  5  5  2 23 44.9930000  0  5G13G12G24G20G16
  21588916.1304    4820187.66246   3745748.20061
  20025935.521    -4449447.445 6  -3402187.45721
  18535726.8724  -12664273.54747  -9782511.44363
  19967804.7324  -15423351.17947 -11689799.39861
  20433527.5364  -12873518.97546  -9822211.13061
 92  5  5  2 23 59.9930000  0  5G13G12G24G20G16
  21591040.4664    4831339.79746   3754438.17561
  20029673.208    -4429811.454 6  -3386886.69121
  18535218.3024  -12666951.69747  -9784598.31663
  19955941.8724  -15485707.37147 -11738388.60061
  20421929.388   -12934464.632 6  -9869701.17721
 92  5  5  2 24 14.9930000  0  5G13G12G24G20G16
  21593162.7004    4842488.11546   3763125.18761
  20033428.333    -4410073.170 6  -3371506.23221
  18534726.2244  -12669534.80947  -9786611.13463
  19944086.411   -15547990.861 6 -11786921.15821
  20410345.067   -12995338.323 6  -9917135.14321
 92  5  5  2 24 29.9930000  0  5G13G12G24G20G16
  21595282.114     4853629.696 6   3771806.91821
  20037203.958    -4390235.772 6  -3356048.53521
  18534252.8644  -12672025.19847  -9788551.69963
  19932246.817   -15610204.229 6 -11835399.06521
  20398773.0524  -13056139.67846  -9964512.75861
 92  5  5  2 24 44.9930000  0  5G13G12G24G20G16
  21597400.099     4864763.917 6   3780482.94621
  20040995.661    -4370300.143 6  -3340514.29121
  18533794.4894  -12674423.16547  -9790420.24463
  19920423.2324  -15672347.57047 -11883822.41561
  20387218.091   -13116870.463 6 -10011835.36621
 92  5  5  2 24 59.9930000  0  5G13G12G24G20G16
  21599517.0284    4875892.63346   3789154.63961
  20044810.075    -4350264.791 6  -3324902.34721
  18533356.9664  -12676727.64447  -9792215.93963
  19908609.8724  -15734418.80246 -11932189.56761
  20375673.185   -13177530.247 6 -10059102.66421
 92  5  5  2 25 14.9920000  0  5G13G12G24G20G16
  21601635.063     4887016.593 6   3797822.68121
  20048640.852    -4330129.966 6  -3309212.88821
  18532938.6414  -12678935.53747  -9793936.37663
  19896815.6724  -15796411.82147 -11980495.77661
  20364143.305   -13238111.084 6 -10106308.43221
 92  5  5  2 25 29.9920000  0  5G13G12G24G20G16
  21603748.4844    4898126.55546   3806479.78861
  20052489.5394   -4309904.24546  -3293452.60161
  18532534.2344  -12681055.48047  -9795588.27763
  19885030.3054  -15858345.38147 -12028755.65461
  20352628.2504  -13298631.42746 -10153467.06861
 92  5  5  2 25 44.9920000  0  5G13G12G24G20G16
  21605860.992     4909224.741 6   3815127.70621
  20056356.891    -4289585.966 6  -3277620.19621
  18532146.9224  -12683083.22447  -9797168.33263
  19873253.7274  -15920211.85646 -12076963.26062
  20341125.328   -13359085.520 6 -10200574.07621
 92  5  5  2 25 59.9920000  0  5G13G12G24G20G16
  21607970.6494    4920316.27646   3823770.47061
  20060241.789    -4269170.722 6  -3261712.23121
  18531780.2114  -12685014.00647  -9798672.83463
  19861495.1724  -15982005.99747 -12125114.49961
  20329634.938   -13419470.181 6 -10247626.99521
 92  5  5  2 26 14.9920000  0  5G13G12G24G20G16
  21610081.0784    4931401.72446   3832408.45161
  20064144.883    -4248658.610 6  -3245728.78721
  18531432.9454  -12686847.37747  -9800101.43463
  19849752.391   -16043727.097 7 -12173208.82321
  20318159.7274  -13479784.87546 -10294625.38761
 92  5  5  2 26 29.9920000  0  5G13G12G24G20G16
  21612189.500     4942476.466 6   3841038.12021
  20068065.555    -4228054.277 6  -3229673.48121
  18531101.0164  -12688585.68147  -9801455.95663
  19838019.227   -16105379.360 7 -12221249.50521
  20306693.899   -13540031.932 6 -10341571.08721
 92  5  5  2 26 44.9920000  0  5G13G12G24G20G16
  21614295.695     4953547.455 5   3849664.84321
  20072005.422    -4207351.135 6  -3213541.18421
  18530789.9454  -12690220.85547  -9802730.11563
  19826298.781   -16166955.526 7 -12269230.89421
  20295242.2194  -13600202.61946 -10388457.28161
 92  5  5  2 26 59.9920000  0  5G13G12G24G20G16
  21616400.6094    4964615.38445   3858289.20061
  20075964.211    -4186549.154 6  -3197331.86821
  18530497.1414  -12691751.97947  -9803923.19763
  19814601.922   -16228454.605 7 -12317152.21221
  20283806.734   -13660297.322 6 -10435284.24321
 92  5  5  2 27 14.9920000  0  5G13G12G24G20G16
  21618502.524     4975673.649 5   3866906.03621
  20079939.180    -4165655.219 6  -3181050.90021
  18530225.9614  -12693185.12047  -9805039.92763
  19802909.7814  -16289882.87247 -12365018.35661
  20272386.2034  -13720320.07746 -10482055.15761
 92  5  5  2 27 29.9920000  0  5G13G12G24G20G16
  21620610.016     4986731.791 5   3875522.74521
  20083936.070    -4144659.972 6  -3164690.99421
  18529973.1414  -12694509.56447  -9806071.95963
  19791234.1414  -16351230.47747 -12412821.64861
  20260977.5944  -13780260.90646 -10528762.23361
 92  5  5  2 27 44.9920000  0  5G13G12G24G20G16
  21622714.1414    4997782.41045   3884133.58461
  20087947.125    -4123571.290 6  -3148258.27521
  18529739.6564  -12695733.37147  -9807025.57763
  19779572.5474  -16412504.34447 -12460567.48061
  20249586.1254  -13840126.80646 -10575410.91761
 92  5  5  2 27 59.9920000  0  5G13G12G24G20G16
  21624810.6024    5008819.63245   3892734.03861
  20091979.289    -4102395.547 6  -3131757.71121
  18529525.0004  -12696865.76047  -9807907.95863
  19767927.5634  -16473710.12947 -12508260.26261
  20238207.5314  -13899920.82246 -10622003.60361
 92  5  5  2 28 14.9920000  0  5G13G12G24G20G16
  21626912.9614    5019848.97745   3901328.28861
  20096024.766    -4081127.447 6  -3115185.18721
  18529329.0474  -12697904.92647  -9808717.69663
  19756296.9224  -16534841.96747 -12555895.42161
  20226842.9454  -13959635.04046 -10668534.10861
 92  5  5  2 28 29.9920000  0  5G13G12G24G20G16
  21629008.445     5030871.745 5   3909917.46921
  20100089.524    -4059766.393 6  -3098540.22721
  18529148.3834  -12698850.55547  -9809454.54963
  19744676.4534  -16595898.54647 -12603471.94161
  20215498.008   -14019267.947 6 -10715001.24621
 92  5  5  2 28 44.9920000  0  5G13G12G24G20G16
  21631106.914     5041893.442 5   3918505.75721
  20104173.406    -4038307.168 6  -3081818.76921
  18528986.7194  -12699698.79247  -9810115.51463
  19733073.3204  -16656873.87547 -12650985.14761
  20204165.8834  -14078813.19546 -10761400.08061
 92  5  5  2 28 59.9920000  0  5G13G12G24G20G16
  21633201.3204    5052903.98545   3927085.39661
  20108273.9064   -4016760.29446  -3065029.01161
  18528841.4144  -12700461.97247  -9810710.19763
  19721484.2664  -16717777.56647 -12698442.52861
  20192848.781   -14138283.883 6 -10807740.82321
 92  5  5  2 29 14.9920000  0  5G13G12G24G20G16
  21635294.2814    5063907.78745   3935659.78261
  20112391.195    -3995121.538 6  -3048167.66321
  18528712.4064  -12701138.74547  -9811237.55263
  19709909.6724  -16778604.95847 -12745840.46962
  20181547.1254  -14197675.79146 -10854020.16861
 92  5  5  2 29 29.9920000  0  5G13G12G24G20G16
  21637383.9384    5074903.72745   3944228.04561
  20116526.836    -3973392.853 6  -3031236.23921
  18528600.0944  -12701732.18547  -9811699.96963
  19698349.6254  -16839357.09347 -12793179.75661
  20170262.1334  -14256987.23446 -10900236.81761
 92  5  5  2 29 44.9920000  0  5G13G12G24G20G16
  21639480.711     5085886.003 5   3952785.63121
  20120677.859    -3951580.187 6  -3014239.37121
  18528499.7274  -12702247.33147  -9812101.37863
  19686799.7814  -16900039.48647 -12840464.70461
  20158988.1094  -14316224.64846 -10946395.76761
 92  5  5  2 29 59.9920000  0  5G13G12G24G20G16
  21641565.836     5096853.777 5   3961331.92021
  20124843.672    -3929684.892 6  -2997178.12521
  18528418.1254  -12702685.74047  -9812442.99063
  19675264.9144  -16960652.73547 -12887695.77562
  20147728.8834  -14375388.76446 -10992497.61761
 92  5  5  2 30 14.9920000  0  5G13G12G24G20G16
  21643650.3674    5107818.85745   3969876.14761
  20129028.617    -3907695.404 6  -2980043.47021
  18528350.9534  -12703036.03747  -9812715.94563
  19663746.6954  -17021184.55647 -12934863.39862
  20136485.6724  -14434471.55546 -11038536.09461
 92  5  5  2 30 29.9920000  0  5G13G12G24G20G16
  21645740.6954    5118776.17245   3978414.30961
  20133228.836    -3885617.158 6  -2962839.65421
  18528302.9384  -12703301.01047  -9812922.41163
  19652241.5784  -17081639.42347 -12981971.05462
  20125259.8054  -14493480.49746 -11084517.02661
 92  5  5  2 30 44.9920000  0  5G13G12G24G20G16
  21647822.6884    5129732.07345   3986951.38461
  20137448.789    -3863444.191 6  -2945562.04021
  18528268.1494  -12703473.59247
  19640755.1644  -17142010.81347 -13029013.66362
  20114039.8994  -14552408.10646 -11130434.59061
 92  5  5  2 30 59.9920000  0  5G13G12G24G20G16
  21649905.8364    5140681.73945   3995483.55961
  20141685.094    -3841181.695 6  -2928214.65021
  18528249.2344  -12703559.37547
  19629280.7194  -17202303.23747 -13075994.74762
  20102844.3204  -14611258.70946 -11176292.13061
 92  5  5  2 31 14.9920000  0  5G13G12G24G20G16
  21651990.5164    5151624.24245   4004010.17461
  20145938.031    -3818831.147 6  -2910798.65821
  18528250.8754  -12703559.00647
  19617823.977   -17262517.383 7 -13122914.83522
  20091658.2974  -14670035.26046 -11222091.98561
 92  5  5  2 31 29.9920000  0  5G13G12G24G20G16
  21654072.2344    5162555.11145   4012527.72561
  20150208.109    -3796397.629 6  -2893318.01121
  18528269.0634  -12703475.36947
  19606377.8914  -17322657.49147 -13169777.22662
  20080487.3994  -14728738.19146 -11267834.47161
 92  5  5  2 31 44.9920000  0  5G13G12G24G20G16
  21656148.719     5173477.530 5   4021038.70021
  20154492.969    -3773878.246 6  -2875770.45621
  18528301.805   -12703303.598 7
  19594949.9454  -17382720.08147 -13216579.21762
  20069330.789   -14787365.872 6 -11313518.31921
 92  5  5  2 31 59.9920000  0  5G13G12G24G20G16
  21658221.7814    5184390.90045   4029542.63061
  20158794.094    -3751273.784 6  -2858156.60821
  18528348.8834  -12703045.98848
  19583536.734   -17442705.314 7 -13263320.93022
  20058186.8674  -14845921.04646 -11359145.67161
 92  5  5  2 32 14.9920000  0  5G13G12G24G20G16
  21660298.6724    5195295.05245   4038039.36361
  20163110.617    -3728585.114 6  -2840477.14421
  18528416.0084  -12702704.11747  -9812457.25863
  19572136.477   -17502613.123 7 -13310002.31722
  20047060.328   -14904403.972 6 -11404716.72521
 92  5  5  2 32 29.9920000  0  5G13G12G24G20G16
  21662371.883     5206192.958 5   4046531.22321
  20167445.852    -3705809.670 6  -2822730.05921
  18528495.8284  -12702273.38147  -9812121.61863
  19560749.719   -17562440.392 7 -13356620.94222
  20035944.5084  -14962809.09946 -11450227.15961
 92  5  5  2 32 44.9920000  0  5G13G12G24G20G16
  21664443.0474    5217085.28245   4055018.77061
  20171795.406    -3682947.104 6  -2804915.08821
  18528597.5004  -12701752.43347  -9811715.68063
  19549377.547   -17622186.096 7 -13403176.01022
  20024847.344   -15021132.372 6 -11495673.80521
 92  5  5  2 32 59.9920000  0  5G13G12G24G20G16
  21666515.945     5227969.454 5   4063499.89721
  20176165.117    -3660000.178 6  -2787034.38721
  18528711.2974  -12701143.83147  -9811241.44163
  19538024.102   -17681852.299 7 -13449669.12722
  20013765.086   -15079376.506 6 -11541058.79521
 92  5  5  2 33 14.9920000  0  5G13G12G24G20G16
  21668585.180     5238847.738 5   4071976.50821
  20180546.6024   -3636967.09446  -2769086.54061
  18528845.0244  -12700443.80547  -9810695.96163
  19526687.195   -17741436.382 7 -13496098.26222
  20002696.2974  -15137541.24946 -11586381.91661
 92  5  5  2 33 29.9920000  0  5G13G12G24G20G16
  21670653.6564    5249722.04345   4080449.95861
  20184946.2194   -3613846.51346  -2751070.52161
  18528996.5004  -12699650.51447  -9810077.80863
  19515363.852   -17800936.252 7 -13542461.77122
  19991644.242   -15195620.840 6 -11631638.68621
 92  5  5  2 33 44.9920000  0  5G13G12G24G20G16
  21672721.883     5260587.934 5   4088916.91621
  20189360.039    -3590643.617 6  -2732990.36421
  18529161.7744  -12698768.90747  -9809390.83463
  19504057.984   -17860356.234 7 -13588763.03322
  19980609.305   -15253617.415 6 -11676830.77621
 92  5  5  2 33 59.9920000  0  5G13G12G24G20G16
  21674790.1564    5271446.19845   4097377.87061
  20193793.227    -3567357.673 6  -2714845.48921
  18529346.4454  -12697799.35647  -9808635.33063
  19492762.203   -17919695.113 7 -13635001.09522
  19969587.641   -15311531.261 6 -11721958.39422
 92  5  5  2 34 14.9920000  0  5G13G12G24G20G16
  21676857.5164    5282298.81045   4105834.47261
  20198238.633    -3543987.439 6  -2696634.93521
  18529550.7664  -12696738.91048  -9807809.00763
  19481491.195   -17978950.825 7 -13681174.35122
  19958580.742   -15369357.962 6 -11767018.11321
 92  5  5  2 34 29.9920000  0  5G13G12G24G20G16
  21678923.3444    5293145.27246   4114286.25461
  20202702.094    -3520533.555 6  -2678359.20121
  18529768.9144  -12695586.27847  -9806910.84463
  19470231.9224  -18038123.39647 -13727282.82062
  19947593.969   -15427096.562 6 -11812009.17821
 92  5  5  2 34 44.9920000  0  5G13G12G24G20G16
  21680983.0314    5303985.98245   4122733.54861
  20207181.477    -3496996.089 6  -2660018.33921
  18530005.1804  -12694341.71347  -9805941.05163
  19458991.5004  -18097212.04747 -13773325.90262
  19936622.289   -15484744.501 6 -11856929.61021
 92  5  5  2 34 59.9920000  0  5G13G12G24G20G16
  21683047.1024    5314820.55646   4131176.08961
  20211675.117    -3473375.817 6  -2641612.94921
  18530259.9144  -12693006.58047  -9804900.68363
  19447757.3054  -18156216.74547 -13819303.56262
  19925668.1884  -15542303.44846 -11901780.67961
 92  5  5  2 35 14.9920000  0  5G13G12G24G20G16
  21685102.0634    5325646.90245   4139612.18761
  20216186.688    -3449675.084 6  -2623144.86021
  18530530.8594  -12691584.47848  -9803792.54863
  19436543.625   -18215139.350 7 -13865217.25222
  19914735.016   -15599773.477 6 -11946562.47121
 92  5  5  2 35 29.9920000  0  5G13G12G24G20G16
  21687161.406     5336467.445 5   4148043.78721
  20220712.813    -3425892.204 6  -2604612.77021
  18530818.1094  -12690075.17548  -9802616.46163
  19425348.008   -18273977.172 7 -13911064.88022
  19903814.922   -15657150.656 6 -11991271.91821
 92  5  5  2 35 44.9920000  0  5G13G12G24G20G16
  21689219.2114    5347284.75845   4156472.87161
  20225255.086    -3402024.808 6  -2586014.81721
  18531121.1954  -12688478.51648  -9801372.30563
  19414169.3594  -18332727.34447 -13956844.21062
  19892913.2194  -15714432.23146 -12035906.84561
 92  5  5  2 35 59.9920000  0  5G13G12G24G20G16
  21691276.8134    5358093.45045   4164895.23561
  20229811.438    -3378078.843 6  -2567355.63821
  18531440.5164  -12686799.72648  -9800064.15363
  19403003.4614  -18391394.90447 -14002559.16162
  19882029.781   -15771627.305 6 -12080474.39522
 92  5  5  2 36 14.9920000  0  5G13G12G24G20G16
  21693331.2344    5368894.58245   4173311.71161
  20234384.563    -3354053.525 6  -2548634.63021
  18531777.1094  -12685036.95748  -9798690.56363
  19391857.2584  -18449978.40947 -14048208.61862
  19871164.883   -15828736.182 6 -12124974.77122
 92  5  5  2 36 29.9920000  0  5G13G12G24G20G16
  21695385.828     5379691.182 5   4181724.64821
  20238969.188    -3329946.425 6  -2529849.89421
  18532129.1254  -12683187.51848  -9797249.43563
  19380724.3364  -18508474.83447 -14093790.22062
  19860317.945   -15885756.787 7 -12169406.36421
 92  5  5  2 36 44.9920000  0  4G12G24G20G16
  20243572.133    -3305760.400 6  -2511003.65621
  18532496.3444  -12681255.77948  -9795744.17963
  19369609.7274  -18566886.32947 -14139305.64162
  19849477.1094  -15942691.25246 -12213770.84762
 92  5  5  2 36 59.9920000  0  4G12G24G20G16
  20248189.024    -3281496.231 6  -2492096.52621
  18532878.1334  -12679243.61548  -9794176.25563
  19358508.5164  -18625212.92047 -14184754.90662
  19838663.3054  -15999541.23946 -12258069.47961
 92  5  5  2 37 14.9920000  0  4G12G24G20G16
  20252823.656    -3257153.459 6  -2473128.14721
  18533275.0314  -12677151.52247  -9792546.04863
  19347428.2194  -18683453.42747 -14230137.09062
  19827861.0864  -16056305.83646 -12302301.59561
 92  5  5  2 37 29.9920000  0  5G 3G12G24G20G16
  22174736.8364         -0.13854
  20257468.992    -3232732.109 6  -2454098.54821
  18533688.4614  -12674980.27148  -9790854.16463
  19336361.8594  -18741606.97547 -14275451.51462
  19817073.4304  -16112985.55446 -12346467.56761
 92  5  5  2 37 44.9920000  0  5G 3G12G24G20G16
  22164659.1334     -52955.76744
  20262131.563    -3208226.277 6  -2435003.11021
  18534118.2344  -12672723.62647  -9789095.73863
  19325311.3524  -18799667.14547 -14320693.17462
  19806307.609   -16169576.077 6 -12390564.02721
 92  5  5  2 37 59.9920000  0  5G 3G12G24G20G16
  22154582.367     -105904.260 4        -0.30131
  20266811.5244   -3183648.87746  -2415851.90261
  18534563.1024  -12670391.34848  -9787278.37663
  19314279.2114  -18857646.05347 -14365871.51162
  19795554.0704  -16226089.49046 -12434600.40162
 92  5  5  2 38 14.9920000  0  5G 3G12G24G20G16
  22144512.6334    -158838.31744    -41247.54361
  20271501.219    -3158992.676 6  -2396639.29521
  18535024.6954  -12667973.57648  -9785394.39863
  19303260.2274  -18915535.95247 -14410980.49862
  19784814.703   -16282517.241 6 -12478570.02821
 92  5  5  2 38 29.9920000  0  5G 3G12G24G20G16
  22134441.438     -211755.233 4    -82481.42721
  20276209.024    -3134255.613 6  -2377363.68821
  18535499.7664  -12665468.55948  -9783442.43663
  19292266.5084  -18973333.79047 -14456017.74362
  19774093.3054  -16338852.51846 -12522467.59261
 92  5  5  2 38 44.9920000  0  5G 3G12G24G20G16
  22124369.680     -264665.563 4   -123710.19421
  20280930.016    -3109448.713 6  -2358033.65321
  18535990.7424  -12662888.90148  -9781432.31163
  19281280.7114  -19031049.81547 -14500991.24662
  19763390.250   -16395103.417 6 -12566299.41222
 92  5  5  2 38 59.9920000  0  5G 3G12G24G20G16
  22114302.7894    -317568.10544   -164932.88061
  20285662.625    -3084570.680 6  -2338648.19621
  18536495.7894  -12660233.08848  -9779362.84663
  19270315.1024  -19088682.16247 -14545899.54162
  19752700.844   -16451266.809 6 -12610063.04422
 92  5  5  2 39 14.9920000  0  5G 3G12G24G20G16
  22104232.680     -370460.167 4   -206147.40021
  20290412.617    -3059619.612 6  -2319205.82221
  18537016.5944  -12657497.41648  -9777231.15063
  19259363.313   -19146228.058 7 -14590740.46922
  19742029.774   -16507340.752 6 -12653756.97521
 92  5  5  2 39 29.9920000  0  5G 3G12G24G20G16
  22094173.2274    -423338.68544   -247351.35561
  20295175.602    -3034592.452 6  -2299704.16721
  18537554.8834  -12654676.64548  -9775033.14763
  19248429.7114  -19203683.88947 -14635511.21762
  19731377.828   -16563319.560 6 -12697376.77622
 92  5  5  2 39 44.9920000  0  5G 3G12G24G20G16
  22084114.563     -476200.776 4   -288542.52621
  20299952.430    -3009486.813 6  -2280141.34621
  18538108.6094  -12651767.11048  -9772765.97563
  19237515.8054  -19261046.25847 -14680209.13762
  19720744.109   -16619199.067 6 -12740919.19322
 92  5  5  2 39 59.9920000  0  5G 3G12G24G20G16
  22074060.7424    -529053.88544   -329726.71661
  20304742.609    -2984310.632 6  -2260523.56221
  18538677.7894  -12648777.28448  -9770436.24063
  19226613.914   -19318322.525 7 -14724839.97122
  19710128.031   -16674986.064 6 -12784389.52422
 92  5  5  2 40 14.9920000  0  5G 3G12G24G20G16
  22063998.125     -581899.013 3   -370904.65221
  20309547.258    -2959064.820 6  -2240851.52221
  18539260.2974  -12645709.49648  -9768045.75363
  19215730.820   -19375513.015 7 -14769403.96022
  19699529.5554  -16730679.26146 -12827786.78461
 92  5  5  2 40 29.9920000  0  5G 3G12G24G20G16
  22053944.3594    -634738.39443   -412078.13261
  20314362.438    -2933752.348 6  -2221127.53621
  18539856.6804  -12642570.98348  -9765600.15763
  19204861.461   -19432619.704 7 -14813902.65222
  19688946.711   -16786281.514 6 -12871113.17022
 92  5  5  2 40 44.9920000  0  5G 3G12G24G20G16
  22043892.4534    -687568.78044   -453244.60161
  20319194.047    -2908369.937 6  -2201349.05321
  18540467.5084  -12639360.61348  -9763098.57063
  19194016.977   -19489638.883 7 -14858333.15422
  19678384.484   -16841790.184 6 -12914366.62822
 92  5  5  2 40 59.9920000  0  5G 3G12G24G20G16
  22033842.3594    -740386.42044   -494401.11761
  20324037.109    -2882914.604 6  -2181513.74521
  18541092.7814  -12636074.38048  -9760537.86763
  19183182.016   -19546566.457 7 -14902692.27422
  19667839.352   -16897204.999 6 -12957546.95522
 92  5  5  2 41 14.9920000  0  5G 3G12G24G20G16
  22023796.266     -793191.900 4   -535548.20321
  20328896.094    -2857386.969 6  -2161622.10421
  18541733.3284  -12632713.50948  -9757919.00364
  19172368.0634  -19603402.62547 -14946980.16862
  19657311.274   -16952526.633 6 -13000654.67622
 92  5  5  2 41 29.9920000  0  5G 3G12G24G20G16
  22013745.383     -845991.614 4   -576690.72321
  20333767.094    -2831793.871 6  -2141679.44621
  18542384.3914  -12629285.29848  -9755247.66963
  19161570.781   -19660153.497 7 -14991201.60322
  19646801.109   -17007760.345 6 -13043693.87922
 92  5  5  2 41 44.9920000  0  5G 3G12G24G20G16
  22003703.789     -898776.099 4   -617821.43121
  20338650.774    -2806126.189 6  -2121678.66821
  18543052.6254  -12625781.41748  -9752517.37663
  19150786.0704  -19716809.06647 -15035348.76962
  19636309.734   -17062896.255 6 -13086656.87522
 92  5  5  2 41 59.9920000  0  5G 3G12G24G20G16
  21993654.7744    -951549.63443   -658943.59561
  20343548.125    -2780388.395 6  -2101623.26621
  18543733.0634  -12622207.42548  -9749732.44563
  19140024.7114  -19773373.24147 -15079424.72262
  19625836.047   -17117939.427 6 -13129547.61322
 92  5  5  2 42 14.9920000  0  5G 3G12G24G20G16
  21983621.984    -1004314.315 4   -700058.86021
  20348457.547    -2754583.105 6  -2081515.26021
  18544425.1254  -12618563.85948  -9746893.30163
  19129276.641   -19829847.758 7 -15123430.81622
  19615378.539   -17172893.102 7 -13172368.60922
 92  5  5  2 42 29.9920000  0  5G 3G12G24G20G16
  21973583.234    -1057065.990 4   -741163.97121
  20353381.828    -2728706.645 6  -2061351.80421
  18545133.2194  -12614844.55448  -9743995.14263
  19118547.063   -19886228.262 7 -15167363.64522
  19604937.563   -17227753.450 6 -13215116.87822
 92  5  5  2 42 44.9920000  0  5G 3G12G24G20G16
  21963545.516    -1109804.010 4   -782258.46321
  20358321.3524   -2702758.39546  -2041132.40061
  18545855.5314  -12611043.97748  -9741033.65363
  19107838.1334  -19942513.27247 -15211222.07262
  19594516.008   -17282519.287 6 -13257791.50522
 92  5  5  2 42 59.9920000  0  5G 3G12G24G20G16
  21953509.656    -1162537.997 4   -823349.80521
  20363269.484    -2676748.396 6  -2020864.89521
  18546594.2744  -12607168.20048  -9738013.56863
  19097141.984   -19998712.385 7 -15255013.56322
  19584109.891   -17337199.106 6 -13300399.11022
 92  5  5  2 43 14.9920000  0  5G 3G12G24G20G16
  21943479.508    -1215251.806 4   -864425.41221
  20368234.391    -2650660.914 6  -2000536.99821
  18547350.0704  -12603199.31148  -9734920.92563
  19086466.531   -20054808.947 7 -15298725.14222
  19573727.563   -17391773.858 7 -13342924.84222
 92  5  5  2 43 29.9920000  0  5G 3G12G24G20G16
  21933451.203    -1267955.953 4   -905493.49221
  20373212.602    -2624506.870 6  -1980157.24421
  18548121.7814  -12599147.14148  -9731763.39363
  19075808.836   -20110813.063 7 -15342364.68822
  19563359.391   -17446254.016 6 -13385376.87022
 92  5  5  2 43 44.9920000  0  5G 3G12G24G20G16
  21923426.617    -1320647.549 4   -946551.82121
  20378201.758    -2598283.677 6  -1959723.60521
  18548908.4844  -12595007.21648  -9728537.48063
  19065170.4304  -20166721.67547 -15385929.81262
  19553011.399   -17500636.570 7 -13427752.83522
 92  5  5  2 43 59.9910000  0  5G 3G12G24G20G16
  21913398.8944   -1373328.99244   -987602.19661
  20383202.472    -2571999.294 6  -1939242.28721
  18549711.6984  -12590786.64148  -9725248.72063
  19054550.394   -20222536.468 7 -15429421.83822
  19542679.081   -17554925.870 6 -13470056.14022
 92  5  5  2 44 14.9910000  0  5G 3G12G24G20G16
  21903374.2694   -1425996.33244  -1028641.60361
  20388220.464    -2545639.523 6  -1918702.22921
  18550532.9804  -12586475.13148  -9721889.10163
  19043948.566   -20278253.555 7 -15472837.72222
  19532366.370   -17609116.692 6 -13512282.70822
 92  5  5  2 44 29.9910000  0  5G 3G12G24G20G16
  21893356.441    -1478652.612 4  -1069672.41121
  20393246.495    -2519213.311 6  -1898110.38821
  18551368.8234  -12582078.57748  -9718463.21363
  19033360.995   -20333875.466 7 -15516179.44722
  19522074.214   -17663211.499 6 -13554434.46122
 92  5  5  2 44 44.9910000  0  5G 3G12G24G20G16
  21883341.9174   -1531298.78045  -1110695.29761
  20398288.886    -2492721.520 6  -1877467.45421
  18552221.2224  -12577599.40248  -9714972.94363
  19022796.3784  -20389402.48547 -15559447.22962
  19511797.511   -17717208.185 6 -13596509.75622
 92  5  5  2 44 59.9910000  0  5G 3G12G24G20G16
  21873323.1834   -1583938.00345  -1151712.83561
  20403341.730    -2466167.939 6  -1856776.37221
  18553086.4564  -12573043.13848  -9711422.60563
  19012247.847   -20444837.542 7 -15602643.35322
  19501541.956   -17771110.131 7 -13638511.23322
 92  5  5  2 45 14.9910000  0  5G 3G12G24G20G16
  21863303.370    -1636573.517 4  -1192727.42421
  20408406.698    -2439556.044 6  -1836039.84921
  18553966.6124  -12568417.01648  -9707817.83063
  19001715.401   -20500183.388 7 -15645769.96422
  19491300.480   -17824919.816 6 -13680440.82022
 92  5  5  2 45 29.9910000  0  5G 3G12G24G20G16
  21853292.339    -1689193.095 4  -1233729.59521
  20413481.7224   -2412874.23546  -1815248.85261
  18554864.8784  -12563713.85647  -9704153.02363
  18991203.901   -20555427.697 7 -15688817.45322
  19481081.151   -17878625.337 7 -13722289.22822
 92  5  5  2 45 44.9910000  0  5G 3G12G24G20G16
  21843285.526    -1741786.201 5  -1274711.19421
  20418578.855    -2386111.902 6  -1794395.10321
  18555775.7064  -12558923.17047  -9700420.02063
  18980711.191   -20610559.315 7 -15731777.13622
  19470883.284   -17932214.913 7 -13764047.29722
 92  5  5  2 45 59.9910000  0  5G 3G12G24G20G16
  21833270.6124   -1794376.63644  -1315690.64361
  20423679.206    -2359293.398 6  -1773497.58821
  18556698.0894  -12554070.31247  -9696638.56663
  18970238.675   -20665601.596 7 -15774667.20322
  19460703.620   -17985711.390 7 -13805732.81522
 92  5  5  2 46 14.9910000  0  5G 3G12G24G20G16
  21823267.698    -1846960.417 4  -1356664.93621
  20428793.933    -2332414.805 6  -1752553.24821
  18557634.6984  -12549152.68647  -9692806.64263
  18959778.581   -20720550.162 7 -15817484.24822
  19450541.628   -18039109.575 7 -13847341.74622
 92  5  5  2 46 29.9910000  0  5G 3G12G24G20G16
  21813260.433    -1899526.722 4  -1397625.62521
  20433923.386    -2305466.229 6  -1731554.37421
  18558584.9804  -12544156.50047  -9688913.50363
  18949344.362   -20775394.075 7 -15860219.74522
  19440402.3164  -18092396.36747 -13888863.88462
 92  5  5  2 46 44.9910000  0  5G 3G12G24G20G16
  21803266.105    -1952070.564 4  -1438568.79021
  20439065.862    -2278442.631 6  -1710497.04321
  18559552.5734  -12539075.51747  -9684954.29463
  18938928.355   -20830127.736 7 -15902869.32822
  19430283.8624  -18145566.25147 -13930294.92762
 92  5  5  2 46 59.9910000  0  5G 3G12G24G20G16
  21793269.159    -2004601.344 4  -1479501.79821
  20444220.003    -2251353.780 6  -1689388.86521
  18560532.4954  -12533920.99547  -9680937.78163
  18928534.331   -20884760.341 7 -15945440.16822
  19420183.597   -18198629.942 7 -13971643.21622
 92  5  5  2 47 14.9910000  0  5G 3G12G24G20G16
  21783273.1754   -2057117.15644  -1520423.09461
  20449387.034    -2224198.396 6  -1668228.84521
  18561527.5194  -12528690.49747  -9676862.06663
  18918155.925   -20939289.502 7 -15987930.40222
  19410107.6054  -18251586.35547 -14012907.91562
 92  5  5  2 47 29.9910000  0  5G 3G12G24G20G16
  21773289.9014   -2109628.93345  -1561341.30161
  20454565.5584   -2196987.41246  -1647025.50961
  18562537.0664  -12523394.67847  -9672735.45363
  18907797.159   -20993725.731 7 -16030348.22522
  19400049.870   -18304445.401 7 -14054096.74222
 92  5  5  2 47 44.9910000  0  5G 3G12G24G20G16
  21763294.972    -2162132.163 5  -1602252.83621
  20459756.245    -2169716.705 6  -1625775.61821
  18563556.6284  -12518026.90247  -9668552.77663
  18897459.230   -21048064.034 7 -16072689.74222
  19390009.0264  -18357204.17747 -14095207.43562
 92  5  5  2 47 59.9910000  0  5G 3G12G24G20G16
  21753303.3784   -2214633.91544  -1643163.20961
  20464954.003    -2142393.814 6  -1604485.07121
  18564591.3394  -12512593.43947  -9664318.90863
  18887134.472   -21102311.192 7 -16114960.23222
  19379986.370   -18409871.789 7 -14136247.08622
 92  5  5  2 48 14.9910000  0  5G 3G12G24G20G16
  21743314.308    -2267128.454 5
  20470164.2374   -2115013.36246  -1583149.67161
  18565638.3004  -12507090.23147  -9660030.69463
  18876829.519   -21156461.116 7 -16157154.95722
  19369982.894   -18462442.275 7
 92  5  5  2 48 29.9910000  0  5G 3G12G24G20G16
  21733320.855    -2319619.755 4
  20475384.2614   -2087579.55746  -1561772.69761
  18566698.0034  -12501518.87547  -9655689.38063
  18866542.214   -21210517.508 7 -16199276.80122
  19359998.362   -18514917.693 7
 92  5  5  2 48 44.9910000  0  5G 3G12G24G20G16
  21723338.1834   -2372098.28344  -1765862.49661
  20480616.964    -2060083.428 6  -1540347.16621
  18567774.1284  -12495870.75247  -9651288.24563
  18856276.245   -21264470.536 7 -16241318.10022
  19350031.8474  -18567289.34347 -14258909.97462
 92  5  5  2 48 59.9910000  0  5G 3G12G24G20G16
  21713355.331    -2424549.533 4  -1806733.51221
  20485864.081    -2032510.574 6  -1518861.83821
  18568863.9724  -12490135.70647  -9646819.38063
  18846031.448   -21318305.106 7 -16283267.09622
  19340087.269   -18619543.730 7 -14299627.63722
 92  5  5  2 49 14.9910000  0  5G 3G12G24G20G16
  21703375.4094   -2476998.32044  -1847602.63161
  20491121.261    -2004886.334 6  -1497336.47521
  18569967.4644  -12484339.45547  -9642302.82663
  18835803.964   -21372045.711 7 -16325142.87022
  19330162.7844  -18671702.59847 -14340270.87462
 92  5  5  2 49 29.9910000  0  5G 3G12G24G20G16
  21693392.183    -2529447.935 4  -1888472.36321
  20496387.839    -1977214.024 6  -1475773.66221
  18571079.9724  -12478487.27247  -9637742.68663
  18825594.378   -21425695.139 7 -16366947.60022
  19320256.5194  -18723767.54947 -14380840.92662
 92  5  5  2 49 44.9910000  0  5G 3G12G24G20G16
  21683411.8394   -2581887.90545  -1929334.62161
  20501664.941    -1949483.917 6  -1454165.80121
  18572209.0114  -12472571.71947  -9633133.16863
  18815404.550   -21479242.787 7 -16408673.02222
  19310368.8554  -18775728.17547 -14421329.69562
 92  5  5  2 49 59.9910000  0  5G 3G12G24G20G16
  21673437.3784   -2634318.51744  -1970189.57561
  20506949.964    -1921696.713 6  -1432513.45421
  18573343.8944  -12466592.69447  -9628474.19063
  18805234.089   -21532688.610 7 -16450319.09122
  19300501.9954  -18827581.84547 -14461735.11562
 92  5  5  2 50 14.9910000  0  5G 3G12G24G20G16
  21663457.034    -2686748.359 4  -2011043.89921
  20512247.886    -1893861.081 6  -1410823.37221
  18574494.9094  -12460557.26747  -9623771.25463
  18795081.409   -21586040.705 7 -16491892.13022
  19290653.6834  -18879333.48647 -14502061.03562
 92  5  5  2 50 29.9910000  0  5G 3G12G24G20G16
  21653478.7694   -2739198.85844  -2051914.37461
  20517550.691    -1865998.708 6  -1389112.44821
  18575648.7694  -12454484.69147  -9619039.37463
  18784942.464   -21639319.891 7 -16533408.35922
  19280824.5894  -18931003.15947 -14542323.08362
 92  5  5  2 50 44.9910000  0  5G 3G12G24G20G16
  21643497.0584   -2791654.85245  -2092789.08361
  20522860.987    -1838095.177 6  -1367369.46121
  18576813.0264  -12448359.88847  -9614266.79463
  18774821.089   -21692511.014 7 -16574855.96422
  19271007.894   -18982577.470 7 -14582510.81822
 92  5  5  2 50 59.9910000  0  5G 3G12G24G20G16
  21633519.081    -2844109.516 5  -2133662.77621
  20528179.769    -1810143.820 6  -1345589.20021
  18577988.3554  -12442178.95347  -9609450.47563
  18764714.995   -21745606.626 7 -16616229.14622
  19261213.925   -19034049.769 7 -14622619.05622
 92  5  5  2 51 14.9910000  0  5G 3G12G24G20G16
  21623534.3004   -2896555.32744  -2174529.57461
  20533510.4954   -1782137.23846  -1323765.92661
  18579180.3234  -12435932.62547  -9604583.20063
  18754633.284   -21798598.807 7 -16657521.72822
  19251440.198   -19085409.608 7 -14662639.66722
 92  5  5  2 51 29.9910000  0  5G 3G12G24G20G16
  21613555.6984   -2948993.92845  -2215390.74261
  20538848.401    -1754077.811 6  -1301901.45121
  18580380.1284  -12429619.89747  -9599664.19063
  18744568.2844  -21851489.00147 -16698734.84462
  19241687.0264  -19136658.94647 -14702574.18062
 92  5  5  2 51 44.9910000  0  5G 3G12G24G20G16
  21603575.8784   -3001454.38044  -2256268.95461
  20544192.237    -1725994.511 6  -1280018.37421
  18581588.3314  -12423268.14947  -9594714.76963
  18734518.589   -21904305.798 7 -16739890.76422
  19231949.6204  -19187829.86947 -14742447.59462
 92  5  5  2 51 59.9910000  0  5G 3G12G24G20G16
  21593590.769    -3053920.360 4  -2297151.48721
  20549542.901    -1697871.732 6  -1258104.54021
  18582808.3164  -12416855.21147  -9589717.67163
  18724483.4094  -21957032.43847 -16780976.43162
  19222229.0664  -19238906.40047 -14782247.44462
 92  5  5  2 52 14.9910000  0  5G 3G12G24G20G16
  21583604.9954   -3106382.29945  -2338030.82461
  20554905.620    -1669700.243 6  -1236152.75521
  18584042.7534  -12410369.90147  -9584664.17963
  18714469.980   -22009659.104 7 -16821984.19722
  19212528.3944  -19289878.18247 -14821965.68062
 92  5  5  2 52 29.9910000  0  5G 3G12G24G20G16
  21573621.3624   -3158854.73845
  20560274.933    -1641494.576 6  -1214174.32321
  18585287.4014  -12403828.41547  -9579566.91263
  18704472.542   -22062199.745 7
  19202844.5814  -19340762.16847 -14861615.50362
 92  5  5  2 52 44.9910000  0  5G 3G12G24G20G16
  21563631.386    -3211338.624 5
  20565647.316    -1613256.506 6  -1192170.66021
  18586541.1284  -12397234.62947  -9574428.89763
  18694490.214   -22114655.180 7
  19193177.816   -19391558.136 7 -14901196.73522
 92  5  5  2 52 59.9910000  0  5G 3G12G24G20G16
  21553645.5664   -3263818.96544  -2460708.57561
  20571029.589    -1584971.108 6  -1170130.10621
  18587811.6054  -12390573.55547  -9569238.45063
  18684529.4724  -22167009.95447 -16944595.17262
  19183531.941   -19442249.360 7 -14940696.34122
 92  5  5  2 53 14.9910000  0  5G 3G12G24G20G16
  21543663.4254   -3316293.20044  -2501597.51761
  20576421.9414   -1556636.25146  -1148051.02161
  18589090.9564  -12383842.66347  -9563993.59463
  18674585.4954  -22219261.22847 -16985310.42162
  19173905.730   -19492834.430 7 -14980113.23622
 92  5  5  2 53 29.9910000  0  5G 3G12G24G20G16
  21533666.886    -3368808.932 4  -2542518.79721
  20581810.675    -1528300.121 6  -1125970.94121
  18590376.0344  -12377088.48547  -9558730.59863
  18664653.6984  -22271456.29247 -17025981.87262
  19164292.519   -19543361.275 7 -15019484.76322
 92  5  5  2 53 44.9910000  0  5G 3G12G24G20G16
  21523666.761    -3421359.370 5  -2583467.14921
  20587206.394    -1499955.810 6  -1103884.49121
  18591667.6284  -12370306.60347  -9553446.01363
  18654734.2224  -22323587.67847 -17066603.70762
  19154690.5894  -19593824.72647 -15058806.89962
 92  5  5  2 53 59.9910000  0  5G 3G12G24G20G16
  21513683.2144   -3473859.58945  -2624376.33861
  20592617.206    -1471518.966 5  -1081725.93821
  18592978.9414  -12363413.08347  -9548074.43663
  18644838.2224  -22375570.41847 -17107109.71162
  19145116.9804  -19644140.64747 -15098014.07462
 92  5  5  2 54 14.9910000  0  5G 3G12G24G20G16
  21503722.823    -3526175.850 5  -2665142.20421
  20598072.3624   -1442856.15746  -1059391.31761
  18594336.6594  -12356274.88447  -9542512.19963
  18634999.456   -22427270.107 7 -17147395.16022
  19135595.2374  -19694170.77147 -15136998.55062
 92  5  5  2 54 29.9910000  0  5G 3G12G24G20G16
  21493776.3864   -3578427.99044  -2705858.10261
  20603546.495    -1414087.851 6  -1036974.47221
  18595717.1984  -12349015.00047  -9536855.14763
  18625194.066   -22478806.536 7 -17187553.39222
  19126106.8004  -19744035.30047 -15175853.99062
 92  5  5  2 54 44.9910000  0  5G 3G12G24G20G16
  21483838.9174   -3630646.62445  -2746547.84661
  20609035.3004   -1385244.79045  -1014499.39861
  18597117.1834  -12341662.99947  -9531126.31563
  18615411.0424  -22530209.99847 -17227608.00762
  19116644.7764  -19793766.04747 -15214605.18462
 92  5  5  2 54 59.9910000  0  5G 3G12G24G20G16
  21473908.026    -3682838.556 5  -2787216.86521
  20614537.0504   -1356333.99545   -991971.52761
  18598533.9874  -12334225.42147  -9525330.79763
  18605656.394   -22581486.674 7 -17267563.83522
  19107203.6284  -19843369.32347 -15253257.05262
 92  5  5  2 55 14.9910000  0  5G 3G12G24G20G16
  21463981.1754   -3735012.55345  -2827871.84061
  20620050.605    -1327364.870 5   -969398.21821
  18599964.1364  -12326711.50347  -9519475.79563
  18595920.4334  -22632645.03447 -17307427.46662
  19097784.9014  -19892855.63547 -15291817.77962
 92  5  5  2 55 29.9910000  0  5G 3G12G24G20G16
  21454057.5424   -3787168.39145  -2868512.69761
  20625572.347    -1298337.492 5   -946779.50921
  18601407.6284  -12319122.03247  -9513561.91763
  18586209.3164  -22683684.37847 -17347198.35562
  19088390.6514  -19942222.74047 -15330285.61662
 92  5  5  2 55 44.9910000  0  5G 3G12G24G20G16
  21444138.9414   -3839297.61245  -2909132.80861
  20631109.355    -1269243.634 6   -924108.98921
  18602867.7374  -12311448.31647  -9507582.39563
  18576522.2924  -22734596.14147 -17386869.82862
  19079020.2844  -19991460.96247 -15368653.02662
 92  5  5  2 55 59.9910000  0  5G 3G12G24G20G16
  21434222.948    -3891392.052 5  -2949725.81721
  20636659.9414   -1240075.53745   -901380.63161
  18604344.6514  -12303681.99847  -9501530.71663
  18566858.4564  -22785371.69347 -17426435.17062
  19069677.0504  -20040562.08147 -15406913.60562
 92  5  5  2 56 14.9910000  0  5G 3G12G24G20G16
  21424312.026    -3943466.401 5  -2990303.16721
  20642223.6834   -1210848.31945   -878606.19861
  18605837.7454  -12295836.61547  -9495417.42963
  18557219.276   -22836025.401 7 -17465905.56722
  19060356.4804  -20089538.13947 -15445076.73062
 92  5  5  2 56 29.9910000  0  5G 3G12G24G20G16
  21414407.7304   -3995525.44645  -3030868.59661
  20647794.7374   -1181566.93145   -855789.54961
  18607346.1674  -12287918.89547  -9489247.77463
  18547601.2144  -22886561.54147 -17505284.35063
  19051063.4094  -20138392.93847 -15483145.37062
 92  5  5  2 56 44.9910000  0  5G 3G12G24G20G16
  21404504.5194   -4047563.35545  -3071417.56361
  20653377.441    -1152226.230 5   -832926.69921
  18608866.3234  -12279927.48247  -9483020.69763
  18538008.386   -22936974.013 7 -17544566.77422
  19041788.4724  -20187123.76747 -15521117.42162
 92  5  5  2 56 59.9910000  0  5G 3G12G24G20G16
  21394607.9334   -4099582.03145  -3111951.49861
  20658972.8624   -1122828.29145   -810019.24661
  18610399.1124  -12271866.12147  -9476739.11363
  18528436.089   -22987264.485 7 -17583754.12922
  19032541.7064  -20235729.54347 -15558992.01762
 92  5  5  2 57 14.9910000  0  5G 3G12G24G20G16
  21384707.175    -4151594.004 5  -3152480.26821
  20664576.6674   -1093385.92445   -787077.16161
  18611944.1444  -12263747.14247  -9470412.63363
  18518885.495   -23037444.984 7 -17622855.79023
  19023314.0264  -20284220.16847 -15596776.89262
 92  5  5  2 57 29.9910000  0  5G 3G12G24G20G16
  21374810.7614   -4203598.57645  -3193003.24461
  20670185.737    -1063898.828 5   -764100.23121
  18613499.8864  -12255569.43647  -9464040.39463
  18509359.730   -23087514.590 7 -17661871.04223
  19014107.0344  -20332595.25047 -15634471.72762
 92  5  5  2 57 44.9910000  0  5G 3G12G24G20G16
  21364919.808    -4255581.454 5  -3233509.31721
  20675807.4254   -1034352.96145   -741077.51161
  18615070.9724  -12247319.56447  -9457611.91963
  18499854.097   -23137458.371 7 -17700788.25223
  19004926.1124  -20380840.45147 -15672065.35962
 92  5  5  2 57 59.9910000  0  5G 3G12G24G20G16
  21355028.4804   -4307559.07145  -3274011.29461
  20681437.948    -1004765.334 5   -718022.23721
  18616651.3944  -12239016.39847  -9451141.91663
  18490372.534   -23187292.624 7 -17739620.11422
  18995763.3554  -20428974.05747 -15709572.03562
 92  5  5  2 58 14.9910000  0  5G 3G12G24G20G16
  21345135.1124   -4359526.45244  -3314505.27161
  20687078.3624    -975131.29845   -694930.81261
  18618243.0424  -12230655.79847  -9444627.15863
  18480916.480   -23237011.937 7 -17778362.41423
  18986628.0034  -20476988.03347 -15746985.49162
 92  5  5  2 58 29.9910000  0  5G 3G12G24G20G16
  21335251.503    -4411490.461 5  -3354996.66121
  20692723.1754    -945457.99145   -671808.78061
  18619842.0584  -12222243.78947  -9438072.34263
  18471471.206   -23286622.753 7 -17817020.16923
  18977511.5504  -20524889.83147 -15784311.54062
 92  5  5  2 58 44.9910000  0  5G 3G12G24G20G16
  21325360.300    -4463460.291 5  -3395492.55221
  20698377.7064    -915755.08145   -648663.66561
  18621451.4954  -12213791.03447  -9431485.77663
  18462049.675   -23336134.259 7 -17855600.54222
  18968417.5034  -20572689.86447 -15821558.28762
 92  5  5  2 58 59.9910000  0  5G 3G12G24G20G16
  21315469.323    -4515433.843 5  -3435991.36621
  20704035.894     -886020.596 5   -625493.96921
  18623068.5194  -12205293.25747  -9424864.12863
  18452647.956   -23385543.667 7 -17894101.35823
  18959342.1514  -20620386.17747 -15858724.21562
 92  5  5  2 59 14.9910000  0  5G 3G12G24G20G16
  21305580.8704   -4567418.42445  -3476498.77661
  20709700.823     -856262.279 5   -602305.70521
  18624693.4874  -12196753.81947  -9418210.01963
  18443263.808   -23434858.171 7 -17932528.21823
  18950283.5034  -20667982.96647 -15895812.59362
 92  5  5  2 59 29.9910000  0  5G 3G12G24G20G16
  21295690.3624   -4619411.27245  -3517012.61961
  20715366.792     -826477.939 5   -579097.14721
  18626325.6124  -12188169.91847  -9411521.26063
  18433894.636   -23484074.582 7 -17970878.64722
  18941247.4564  -20715479.88647 -15932823.14862
 92  5  5  2 59 44.9910000  0  5G 3G12G24G20G16
  21285800.5194   -4671370.77645  -3557500.48061
  20721045.0504    -796626.10045   -555835.99861
  18627976.7924  -12179501.34247  -9404766.53063
  18424558.128   -23533151.025 7 -18009120.00823
  18932236.2534  -20762834.71647 -15969722.99162
 92  5  5  2 59 59.9910000  0  5G 3G12G24G20G16
  21275920.2534   -4723283.43345  -3597951.82761
  20726742.9334    -766693.58645   -532511.97361
  18629643.9014  -12170735.04547  -9397935.65063
  18415249.144   -23582073.322 7 -18047241.25422
  18923251.9804  -20810031.82147 -16006499.92662
 92  5  5  3  0 14.9910000  0  5G 3G12G24G20G16
  21266044.7694   -4775174.23745  -3638386.17761
  20732449.3554    -736706.21445   -509145.22961
  18631327.6594  -12161892.29147  -9391045.19463
  18405963.933   -23630866.522 7 -18085261.90823
  18914295.2454  -20857095.40847 -16043172.82062
 92  5  5  3  0 29.9910000  0  5G 3G12G24G20G16
  21256168.433    -4827069.019 5  -3678823.59021
  20738160.042     -706689.565 5   -485755.66321
  18633020.9484  -12152994.75447  -9384112.04863
  18396700.956   -23679555.710 7 -18123201.51423
  18905359.5194  -20904051.30047 -16079761.78462
 92  5  5  3  0 44.9910000  0  5G 3G12G24G20G16
  21246293.714    -4878977.594 5  -3719271.76621
  20743872.9874    -676654.17545   -462351.47161
  18634721.8864  -12144053.57247  -9377144.89463
  18387453.722   -23728150.519 7 -18161067.57222
  18896443.4954  -20950908.33847 -16116273.73262
 92  5  5  3  0 59.9910000  0  5G 3G12G24G20G16
  21236419.464    -4930874.263 5  -3759710.66421
  20749602.355     -646574.374 5   -438912.69621
  18636435.3944  -12135044.71647  -9370125.00463
  18378227.605   -23776624.753 7 -18198839.68423
  18887551.0894  -20997638.16747 -16152686.54662
 92  5  5  3  1 14.9910000  0  5G 3G12G24G20G16
  21226541.784    -4982730.029 4  -3800117.68421
  20755335.9094    -616421.78145   -415417.19761
  18638168.0424  -12125937.13247  -9363028.18163
  18369030.948   -23824949.238 7 -18236495.10522
  18878692.4724  -21044210.87447 -16188976.93062
 92  5  5  3  1 29.9910000  0  5G 3G12G24G20G16
  21216683.105    -5034575.946 5  -3840517.04821
  20761084.605     -586227.921 5   -391889.55421
  18639915.2764  -12116762.88447  -9355879.41563
  18359855.034   -23873154.898 7 -18274057.93823
  18869853.3474  -21090657.01547 -16225168.69262
 92  5  5  3  1 44.9910000  0  5G 3G12G24G20G16
  21206815.620    -5086417.481 5  -3880912.97621
  20766836.198     -555998.365 5   -368334.06521
  18641670.5424  -12107528.26447  -9348683.60563
  18350706.448   -23921246.496 7 -18311531.88522
  18861036.636   -21136984.138 7 -16261267.70722
 92  5  5  3  1 59.9910000  0  5G 3G12G24G20G16
  21196947.566    -5138259.900 4  -3921309.60621
  20772594.2454    -525738.84845   -344755.26361
  18643440.2304  -12098237.51447  -9341444.05963
  18341577.300   -23969229.186 7 -18348920.97323
  18852241.0344  -21183198.96547 -16297279.23562
 92  5  5  3  2 14.9910000  0  5G 3G12G24G20G16
  21187087.1364   -5190100.99745  -3961705.19361
  20778358.5264    -495447.53945   -321151.66661
  18645220.5194  -12088887.02547  -9334157.96063
  18332466.800   -24017100.382 7 -18386223.17823
  18843466.3784  -21229299.25047 -16333201.50562
 92  5  5  3  2 29.9910000  0  5G 3G12G24G20G16
  21177220.464    -5241952.020 5  -4002108.50721
  20784126.183     -465136.081 5   -297532.38521
  18647007.8394  -12079487.81147  -9326833.89563
  18323375.073   -24064871.082 7 -18423447.08123
  18834712.6124  -21275296.74547 -16369043.67562
 92  5  5  3  2 44.9900000  0  5G 3G12G24G20G16
  21167350.6394   -5293792.46545  -4042503.60261
  20789901.1624    -434789.62545   -273885.83161
  18648809.2404  -12070026.70147  -9319461.59863
  18314307.014   -24112520.467 7 -18460576.44523
  18825985.4124  -21321169.86347 -16404788.91662
 92  5  5  3  2 59.9900000  0  5G 3G12G24G20G16
  21157486.8734   -5345617.73145  -4082886.88961
  20795686.475     -404393.083 5   -250200.23621
  18650622.0224  -12060493.42647  -9312033.06863
  18305262.732   -24160043.300 7 -18497607.20322
  18817283.2254  -21366913.87347 -16440433.57362
 92  5  5  3  3 14.9900000  0  5G 3G12G24G20G16
  21147635.092    -5397407.804 5  -4123242.71521
  20801481.5534    -373932.61845   -226464.84061
  18652455.5764  -12050871.90147  -9304535.77263
  18296246.943   -24207419.508 7 -18534523.70722
  18808605.701   -21412511.624 7 -16475964.24222
 92  5  5  3  3 29.9900000  0  5G 3G12G24G20G16
  21137790.0064   -5449155.44945  -4163565.49261
  20807295.0064    -343400.76745   -202673.82761
  18654302.4594  -12041155.85047  -9296964.81663
  18287262.576   -24254641.244 7 -18571319.84222
  18799956.990   -21457955.243 7 -16511374.81522
 92  5  5  3  3 44.9900000  0  5G 3G12G24G20G16
  21127949.6474   -5500882.81145  -4203872.46161
  20813111.217     -312820.323 5   -178844.93121
  18656165.5614  -12031369.55047  -9289339.11963
  18278303.787   -24301730.496 7 -18608012.74422
  18791333.0144  -21503268.18147 -16546683.55662
 92  5  5  3  3 59.9900000  0  5G 3G12G24G20G16
  21118108.436    -5552595.079 5  -4244167.67521
  20818941.1394    -282196.85445   -154982.53261
  18658038.3654  -12021517.45047  -9281662.15663
  18269368.022   -24348692.210 7 -18644606.26522
  18782733.1624  -21548453.69347 -16581893.02262
 92  5  5  3  4 14.9900000  0  5G 3G12G24G20G16
  21108262.897    -5604306.774 5  -4284462.44421
  20824772.2644    -251545.37845   -131098.30361
  18659923.4124  -12011616.73747  -9273947.31263
  18260452.092   -24395540.477 7 -18681111.39022
  18774157.217   -21593520.315 7 -16617009.84722
 92  5  5  3  4 29.9900000  0  5G 3G12G24G20G16
  21098427.686    -5656019.873 5  -4324758.29321
  20830608.2404    -220867.97545   -107193.87161
  18661814.6154  -12001670.64347  -9266197.10263
  18251554.826   -24442276.966 7 -18717529.40522
  18765606.3654  -21638469.36447 -16652035.05162
 92  5  5  3  4 44.9900000  0  5G 3G12G24G20G16
  21088584.5614   -5707731.69245  -4365053.14961
  20836453.0454    -190162.40245    -83267.47961
  18663718.7404  -11991678.44747  -9258410.97163
  18242683.701   -24488898.546 7 -18753857.88923
  18757077.7094  -21683296.98247 -16686965.62162
 92  5  5  3  4 59.9900000  0  5G 3G12G24G20G16
  21078744.2094   -5759431.74345  -4405338.86061
  20842305.0844    -159418.73245    -59311.41061
  18665630.0144  -11981631.78747  -9250582.40263
  18233837.561   -24535394.646 7 -18790088.59522
  18748569.6004  -21727993.39947 -16721793.96262
 92  5  5  3  5 14.9900000  0  5G 3G12G24G20G16
  21068906.826    -5811125.513 5  -4445619.66021
  20848160.0684    -128642.58845    -35330.04661
  18667550.5144  -11971536.12347  -9242715.65063
  18225014.607   -24581770.287 7 -18826225.43623
  18740085.8504  -21772565.15147 -16756525.16662
 92  5  5  3  5 29.9900000  0  5G 3G12G24G20G16
  21059066.4044   -5862818.69545  -4485899.99861
  20854023.193      -97839.891 5    -11327.97321
  18669480.8264  -11961395.19147  -9234813.62363
  18216210.389   -24628030.709 7 -18862272.49622
  18731627.1074  -21817016.62247 -16791162.63962
 92  5  5  3  5 44.9900000  0  5G 3G12G24G20G16
  21049236.795    -5914514.742 5  -4526182.56921
  20859888.2564     -67014.63745     12691.68861
  18671417.9904  -11951210.88047  -9226877.79763
  18207426.998   -24674179.227 7 -18898232.36023
  18723191.6004  -21861350.92347 -16825708.81162
 92  5  5  3  5 59.9900000  0  5G 3G12G24G20G16
  21039397.951    -5966211.796 5  -4566465.94121
  20865755.0764     -36165.49245     36729.93861
  18673363.0684  -11940979.51147  -9218905.29863
  18198666.811   -24720213.591 7 -18934103.27223
  18714779.8264  -21905566.24947 -16860162.27862
 92  5  5  3  6 14.9900000  0  5G 3G12G24G20G16
  21029561.3894   -6017906.98445  -4606747.83561
  20871632.459       -5289.727 5     60788.95421
  18675321.8894  -11930699.75047  -9210895.08963
  18189928.498   -24766130.632 7 -18969882.76523
  18706389.7794  -21949657.80847 -16894519.30062
 92  5  5  3  6 29.9900000  0  5G 3G12G24G20G16
  21019719.6934   -6069606.26645  -4647032.91861
  20877513.756       25606.240 5     84863.69721
  18677285.2954  -11920376.72747  -9202851.17163
  18181213.803   -24811935.998 7 -19005575.23722
  18698018.6934  -21993636.66447 -16928788.50562
 92  5  5  3  6 44.9900000  0  5G 3G12G24G20G16
  21009883.475    -6121300.781 5  -4687314.31421
  20883394.772       56531.012 5    108960.88621
  18679261.5534  -11909997.88147  -9194763.75663
  18172523.803   -24857620.449 7 -19041173.49222
  18689670.8974  -22037496.49447 -16962964.96362
 92  5  5  3  6 59.9900000  0  5G 3G12G24G20G16
  21000044.912    -6172997.921 5  -4727597.74921
  20889288.811       87476.833 5    133074.47821
  18681246.9204  -11899569.96247  -9186638.10263
  18163849.639   -24903191.221 7 -19076683.16823
  18681346.1934  -22081244.08247 -16997053.96462
 92  5  5  3  7 14.9900000  0  5G 3G12G24G20G16
  20990229.607    -6224586.688 5  -4767796.73621
  20895199.232      118554.293 5    157290.65121
  18683259.3894  -11888982.13847  -9178387.84463
  18155216.631   -24948536.821 7 -19112017.38322
  18673066.0684  -22124770.21947 -17030970.40162
 92  5  5  3  7 29.9900000  0  5G 3G12G24G20G16
  20980423.8264   -6276109.27445  -4807944.13261
  20901129.9824     149720.86845    181576.25061
  18685299.5374  -11878276.36047  -9170045.67463
  18146624.365   -24993699.002 7 -19147208.67723
  18664819.014   -22168115.410 7 -17064745.85022
 92  5  5  3  7 44.9900000  0  5G 3G12G24G20G16
  20970619.7644   -6327625.98145  -4848086.98861
  20907068.826      180915.663 5    205883.84121
  18687345.3974  -11867513.89447  -9161659.33763
  18138052.451   -25038738.018 7 -19182303.99622
  18656593.4514  -22211337.69347 -17098425.52162
 92  5  5  3  7 59.9900000  0  5G 3G12G24G20G16
  20960816.9754   -6379138.14945  -4888226.27461
  20913006.7794     212137.35345    230212.37861
  18689404.4514  -11856696.64747  -9153230.30263
  18129509.428   -25083654.648 7 -19217303.95222
  18648389.1864  -22254437.01347 -17132009.37462
 92  5  5  3  8 14.9900000  0  5G 3G12G24G20G16
  20951022.451    -6430643.880 5  -4928360.56021
  20918953.6074     243387.24945    254562.91961
  18691471.6314  -11845824.12947  -9144758.20863
  18120983.607   -25128446.834 7 -19252206.93823
  18640210.2174  -22297409.67347 -17165494.53062
 92  5  5  3  8 29.9900000  0  5G 3G12G24G20G16
  20941215.9904   -6482147.83245  -4968493.46161
  20924904.3184     274660.47345    278931.62461
  18693551.6624  -11834900.70647  -9136246.44363
  18112482.459   -25173118.701 7 -19287016.16822
  18632057.6704  -22340261.97247 -17198885.90462
 92  5  5  3  8 44.9900000  0  5G 3G12G24G20G16
  20931412.889    -6533647.284 5  -5008622.86121
  20930862.6864     305959.07045    303320.10561
  18695640.0844  -11823922.98647  -9127692.36763
  18104002.061   -25217667.454 7 -19321729.46722
  18623930.3734  -22382991.18947 -17232181.37162
 92  5  5  3  8 59.9900000  0  5G 3G12G24G20G16
  20921620.2484   -6585143.57345  -5048749.76961
  20936822.7324     337281.60045    327727.22761
  18697738.1784  -11812894.01947  -9119098.36263
  18095552.670   -25262094.164 7 -19356347.66722
  18615821.8654  -22425594.53847 -17265378.75362
 92  5  5  3  9 14.9900000  0  5G 3G12G24G20G16
  20911820.4124   -6636635.69745  -5088873.46761
  20942790.451      368628.703 5    352153.50221
  18699848.4984  -11801815.38547  -9110465.65763
  18087120.272   -25306397.516 7 -19390869.74923
  18607737.311   -22468070.980 7 -17298477.25322
 92  5  5  3  9 29.9900000  0  5G 3G12G24G20G16
  20902022.3974   -6688124.38945  -5128994.45661
  20948760.9984     399999.08345    376597.90861
  18701963.8114  -11790688.98347  -9101795.73263
  18078713.928   -25350577.822 7 -19425295.94822
  18599675.1624  -22510420.53247 -17331476.87462
 92  5  5  3  9 44.9900000  0  5G 3G12G24G20G16
  20892227.6154   -6739606.45145  -5169110.31961
  20954733.693      431395.742 5    401062.79921
  18704090.8264  -11779508.51647  -9093083.68263
  18070329.123   -25394631.513 7 -19459623.48422
  18591642.4984  -22552638.52647 -17364373.98262
 92  5  5  3  9 59.9900000  0  5G 3G12G24G20G16
  20882426.600    -6791086.255 5  -5209224.39121
  20960711.6624     462813.95345    425544.47461
  18706228.4284  -11768276.81847  -9084331.71163
  18061968.154   -25438562.800 7 -19493855.64223
  18583634.5924  -22594730.23947 -17397172.69662
 92  5  5  3 10 14.9900000  0  5G 3G12G24G20G16
  20872633.6624   -6842560.96445  -5249334.52961
  20966692.162      494256.075 5    450044.79821
  18708378.0764  -11756989.90747  -9075536.71463
  18053633.084   -25482368.621 7 -19527990.03523
  18575651.2724  -22636694.18147 -17429871.83862
 92  5  5  3 10 29.9900000  0  5G 3G12G24G20G16
  20862838.037    -6894025.979 5  -5289437.07021
  20972683.537      525726.429 5    474567.10821
  18710536.3344  -11745646.07647  -9066697.36363
  18045323.170   -25526043.841 7 -19562022.65923
  18567688.4824  -22678526.99247 -17462468.80462
 92  5  5  3 10 44.9900000  0  5G 3G12G24G20G16
  20853046.8344   -6945484.52845  -5329534.59261
  20978676.7644     557221.28445    499108.50261
  18712704.8654  -11734248.46247  -9057816.10863
  18037037.897   -25569591.576 7 -19595955.94723
  18559751.0614  -22720230.84247 -17494965.27962
 92  5  5  3 10 59.9900000  0  5G 3G12G24G20G16
  20843252.7014   -6996941.21545  -5369630.66461
  20984672.7484     588735.96545    523665.34861
  18714882.9044  -11722804.42347  -9048898.67163
  18028774.225   -25613015.888 7 -19629793.05823
  18551839.1624  -22761807.23947 -17527362.43962
 92  5  5  3 11 14.9900000  0  5G 3G12G24G20G16
  20833460.748    -7048392.841 5  -5409722.79821
  20990672.412      620273.210 5    548239.79721
  18717070.8344  -11711313.20647  -9039944.48063
  18020532.756   -25656313.441 7 -19663531.39523
  18543953.717   -22803253.552 7 -17559658.24322
 92  5  5  3 11 29.9900000  0  5G 3G12G24G20G16
  20823674.6864   -7099838.82945  -5449810.53861
  20996685.8654     651833.04845    572831.82361
  18719265.0454  -11699775.92147  -9030954.39062
  18012316.029   -25699483.468 7 -19697170.36523
  18536093.5764  -22844569.59347 -17591852.53262
 92  5  5  3 11 44.9900000  0  5G 3G12G24G20G16
  20813886.4204   -7151276.61745  -5489891.88561
  21002691.014      683417.882 5    597443.33521
  18721470.4204  -11688189.28347  -9021925.84162
  18004129.459   -25742522.806 7 -19730707.49323
  18528254.592   -22885751.864 7 -17623942.59222
 92  5  5  3 11 59.9900000  0  5G 3G12G24G20G16
  20804096.1314   -7202717.16845  -5529975.39161
  21008703.654      715016.218 5    622065.36221
  18723681.4754  -11676564.20947  -9012867.34163
  17995963.568   -25785442.292 7 -19764151.23523
  18520438.764   -22926811.115 7 -17655936.79022
 92  5  5  3 12 14.9900000  0  5G 3G12G24G20G16
  20794308.576    -7254157.602 5  -5570058.81821
  21014719.8114     746630.64545    646699.94061
  18725902.1704  -11664899.81647  -9003778.20863
  17987817.662   -25828238.754 7 -19797499.11523
  18512651.053   -22967742.834 7 -17687831.61222
 92  5  5  3 12 29.9900000  0  5G 3G12G24G20G16
  20784517.256    -7305592.926 5  -5610138.24321
  21020736.334      778265.772 5    671350.63621
  18728130.7014  -11653192.75247  -8994655.81962
  17979696.639   -25870906.913 7 -19830747.00923
  18504889.8184  -23008541.63247 -17719622.86062
 92  5  5  3 12 44.9900000  0  5G 3G12G24G20G16
  20774733.170    -7357024.307 5  -5650214.59821
  21026760.7954     809920.10645    696016.31061
  18730365.7644  -11641444.41447  -8985501.27262
  17971599.428   -25913447.689 7 -19863895.65023
  18497151.795   -23049209.405 7 -17751312.00822
 92  5  5  3 12 59.9900000  0  5G 3G12G24G20G16
  20764944.779    -7408456.077 5  -5690291.27321
  21032793.006      841588.937 5    720693.26021
  18732607.7644  -11629658.17247  -8976317.18362
  17963530.639   -25955865.055 7 -19896948.12723
  18489434.7724  -23089749.15947 -17782901.40362
 92  5  5  3 13 14.9900000  0  5G 3G12G24G20G16
  20755160.334    -7459879.537 5  -5730361.46421
  21038821.029      873280.676 5    745388.09421
  18734857.7724  -11617826.94747  -8967098.05062
  17955485.115   -25998150.088 7 -19929897.48623
  18481742.7324  -23130154.31247 -17814385.90762
 92  5  5  3 13 29.9900000  0  5G 3G12G24G20G16
  20745374.9514   -7511302.04945  -5770430.90361
  21044853.8654     904987.44145    770094.61261
  18737117.4514  -11605953.67147  -8957846.14662
  17947459.904   -26040309.929 7 -19962749.29423
  18474080.842   -23170431.701 7 -17845770.85922
 92  5  5  3 13 44.9900000  0  5G 3G12G24G20G16
  20735588.3504   -7562726.03445  -5810501.51561
  21050892.295      936706.481 5    794810.67721
  18739386.8974  -11594034.42847  -8948558.42762
  17939460.576   -26082346.579 7 -19995505.10623
  18466443.404   -23210582.383 7 -17877057.08222
 92  5  5  3 13 59.9900000  0  5G 3G12G24G20G16
  20725805.600    -7614144.163 5  -5850567.54421
  21056930.6074     968444.88945    819541.84861
  18741665.8184  -11582059.35447  -8939227.19462
  17931487.131   -26124252.332 7 -20028158.91923
  18458825.342   -23250599.634 7 -17908239.34122
 92  5  5  3 14 14.9900000  0  5G 3G12G24G20G16
  20716018.365    -7665560.641 5  -5890632.29921
  21062971.498     1000197.941 5    844284.45721
  18743954.0534  -11570033.35247  -8929856.28762
  17923537.443   -26166031.413 7 -20060714.03023
  18451234.248   -23290488.160 7 -17939321.28522
 92  5  5  3 14 29.9900000  0  5G 3G12G24G20G16
  20706238.904    -7716974.341 5  -5930694.86521
  21069017.904     1031966.567 5    869039.17521
  18746251.8184  -11557955.88147  -8920445.26862
  17915611.701   -26207682.217 7 -20093169.18123
  18443668.350   -23330246.783 7 -17970302.00622
 92  5  5  3 14 44.9900000  0  5G 3G12G24G20G16
  20696454.131    -7768384.312 5  -5970754.56021
  21075065.8574    1063751.06945    893806.27761
  18748558.4824  -11545826.94147  -8910994.14162
  17907707.279   -26249203.641 7 -20125523.51923
  18436130.623   -23369875.413 7 -18001181.44022
 92  5  5  3 14 59.9900000  0  5G 3G12G24G20G16
  20686668.115    -7819793.696 5  -6010813.77121
  21081120.912     1095548.181 5    918583.20421
  18750879.2174  -11533648.82447  -8901504.69662
  17899831.514   -26290598.353 7 -20157779.11923
  18428614.225   -23409377.084 7 -18031961.94222
 92  5  5  3 15 14.9900000  0  5G 3G12G24G20G16
  20676885.537    -7871207.344 5  -6050876.31221
  21087168.436     1127352.589 5    943365.79521
  18753204.5614  -11521425.38947  -8891979.93762
  17891978.553   -26331870.943 7 -20189939.56123
  18421117.350   -23448756.063 7 -18062646.83822
 92  5  5  3 15 29.9900000  0  5G 3G12G24G20G16
  20667105.0764   -7922618.11545  -6090936.61261
  21093224.850     1159171.136 5    968159.42921
  18755541.4124  -11509146.29247  -8882411.80162
  17884150.193   -26373013.946 7 -20221999.02123
  18413648.256   -23488005.446 7 -18093230.75022
 92  5  5  3 15 44.9900000  0  5G 3G12G24G20G16
  20657314.6934   -7974015.41245  -6130986.43661
  21099285.7174    1191013.91045    992971.91361
  18757889.0534  -11496801.27047  -8872792.30062
  17876346.061   -26414016.605 7 -20253949.12723
  18406208.209   -23527115.470 7 -18123706.07322
 92  5  5  3 15 59.9900000  0  5G 3G12G24G20G16
  20647539.006    -8025407.396 5  -6171032.08421
  21105343.5294    1222872.68345   1017796.89861
  18760248.2484  -11484403.41947  -8863131.63362
  17868568.764   -26454886.611 7 -20285795.86423
  18398791.826   -23566094.974 7 -18154079.68922
 92  5  5  3 16 14.9900000  0  5G 3G12G24G20G16
  20637764.4284   -8076791.73045  -6211071.80261
  21111412.982     1254749.035 5   1042635.55621
  18762618.0144  -11471955.80047  -8853432.18762
  17860818.920   -26495621.684 7 -20317537.46023
  18391396.357   -23604942.201 7 -18184350.23422
 92  5  5  3 16 29.9900000  0  5G 3G12G24G20G16
  20627985.8184   -8128169.72145  -6251106.54661
  21117483.7794    1286641.64745   1067486.86961
  18764994.6004  -11459462.07347  -8843696.81562
  17853093.873   -26536222.686 7 -20349174.58623
  18384027.357   -23643656.752 7 -18214517.39622
 92  5  5  3 16 44.9900000  0  5G 3G12G24G20G16
  20618209.811    -8179543.918 5  -6291138.34821
  21123547.506     1318547.394 5   1092348.44921
  18767381.0534  -11446923.82647  -8833926.75262
  17845391.647   -26576691.871 7 -20380708.99923
  18376685.7794  -23682240.64747 -18244582.74562
 92  5  5  3 16 59.9900000  0  5G 3G12G24G20G16
  20608435.0684   -8230916.65945  -6331169.03561
  21129624.0294    1350463.54545   1117218.14061
  18769775.3814  -11434344.13147  -8824124.38862
  17837712.725   -26617031.421 7 -20412142.39523
  18369371.857   -23720696.855 7 -18274548.60022
 92  5  5  3 17 14.9900000  0  5G 3G12G24G20G16
  20598663.3424   -8282284.62345  -6371195.97961
  21135699.9754    1382393.15445   1142098.28261
  18772175.9284  -11421720.75447  -8814287.98862
  17830062.420   -26657237.783 7 -20443472.01323
  18362077.522   -23759019.059 7 -18304410.03822
 92  5  5  3 17 29.9900000  0  5G 3G12G24G20G16
  20588892.404    -8333650.092 5  -6411221.00421
  21141783.4284    1414333.29845   1166986.67161
  18774586.1004  -11409059.22447  -8804421.85762
  17822436.568   -26697313.084 7 -20474699.50323
  18354809.029   -23797206.709 7 -18334166.63222
 92  5  5  3 17 44.9900000  0  5G 3G12G24G20G16
  20579112.592    -8385018.071 5  -6451247.97121
  21147860.881     1446278.934 5   1191879.31321
  18777003.0374  -11396367.93747  -8794532.53462
  17814835.600   -26737261.779 7 -20505828.33723
  18347565.951   -23835264.073 7 -18363821.70922
 92  5  5  3 17 59.9900000  0  5G 3G12G24G20G16
  20569336.6784   -8436375.78245  -6491266.94761
  21153939.459     1478242.506 5   1216785.94821
  18779424.3814  -11383636.89247  -8784612.23362
  17807258.678   -26777070.924 7 -20536848.43423
  18340354.061   -23873175.305 7 -18393362.91222
 92  5  5  3 18 14.9900000  0  5G 3G12G24G20G16
  20559569.170    -8487730.994 5  -6531283.94421
  21160025.584     1510215.772 5   1241700.12121
  18781852.5374  -11370874.37847  -8774667.41762
  17799708.490   -26816747.999 7 -20567765.61823
  18333167.584   -23910946.804 7 -18422795.22922
 92  5  5  3 18 29.9900000  0  5G 3G12G24G20G16
  20549793.0224   -8539081.98345  -6571297.68161
  21166113.998     1542200.078 5   1266622.90221
  18784287.4754  -11358077.02747  -8764695.45062
  17792186.490   -26856291.077 7 -20598578.39123
  18326004.3574  -23948575.34347 -18452116.15962
 92  5  5  3 18 44.9900000  0  5G 3G12G24G20G16
  20540017.928    -8590428.428 5  -6611307.84921
  21172202.1314    1574195.40945   1291554.28061
  18786728.8734  -11345243.32547  -8754695.16262
  17784688.654   -26895699.346 7 -20629286.12023
  18318870.162   -23986059.409 7 -18481324.50222
 92  5  5  3 18 59.9900000  0  5G 3G12G24G20G16
  20530254.553    -8641774.651 5  -6651317.86121
  21178294.857     1606196.926 5   1316490.46921
  18789178.0144  -11332377.89847  -8744670.15262
  17777209.818   -26934977.030 7 -20659892.09123
  18311767.006   -24023404.153 7 -18510424.28322
 92  5  5  3 19 14.9900000  0  5G 3G12G24G20G16
  20520480.8504   -8693120.00745  -6691327.20361
  21184379.7564    1638205.12145   1341431.87161
  18791632.1784  -11319482.62347  -8734621.88362
  17769759.857   -26974123.333 7 -20690395.69223
  18304688.857   -24060606.680 7 -18539413.24222
 92  5  5  3 19 29.9900000  0  5G 3G12G24G20G16
  20510711.1234   -8744460.76645  -6731332.95361
  21190471.139     1670223.271 5   1366381.01821
  18794092.4984  -11306552.53247  -8724546.48162
  17762339.498   -27013134.220 7 -20720793.77023
  18297634.2724  -24097663.30947 -18568288.50762
 92  5  5  3 19 44.9900000  0  5G 3G12G24G20G16
  20500942.217    -8795802.488 5  -6771339.44021
  21196569.037     1702245.431 5   1391333.30121
  18796558.8114  -11293591.06247  -8714446.63962
  17754940.373   -27052014.849 7 -20751090.35323
  18290607.514   -24134584.541 7 -18597058.27922
 92  5  5  3 19 59.9900000  0  5G 3G12G24G20G16
  20491170.107    -8847145.096 5  -6811346.65521
  21202657.6864    1734271.36844   1416288.52961
  18799031.9674  -11280594.00947  -8704319.05762
  17747563.8574  -27090764.89947 -20781285.18563
  18283609.342   -24171372.178 7 -18625723.94422
 92  5  5  3 20 14.9900000  0  5G 3G12G24G20G16
  20481404.061    -8898486.959 5  -6851353.25821
  21208760.1154    1766302.25745   1441247.59661
  18801513.6234  -11267558.08847  -8694161.20062
  17740216.037   -27129382.692 7 -20811376.95823
  18276634.693   -24208025.739 7 -18654285.13422
 92  5  5  3 20 29.9900000  0  5G 3G12G24G20G16
  20471630.0924   -8949828.32445  -6891359.49961
  21214854.5224    1798337.60245   1466210.12361
  18804000.6074  -11254483.02547  -8683972.83762
  17732895.084   -27167868.117 7 -20841365.59123
  18269681.756   -24244547.788 7 -18682743.85922
 92  5  5  3 20 44.9900000  0  5G 3G12G24G20G16
  20461860.7174   -9001161.97645  -6931359.69061
  21220952.701     1830384.236 4   1491181.50421
  18806498.5924  -11241362.03047  -8673748.68662
  17725593.482   -27206213.578 7 -20871245.15723
  18262760.936   -24280931.735 7 -18711094.96922
 92  5  5  3 20 59.9900000  0  5G 3G12G24G20G16
  20452097.3974   -9052496.96745  -6971360.96661
  21227051.8264    1862432.65945   1516154.22261
  18809002.0224  -11228202.91647  -8663494.82762
  17718322.506   -27244428.280 7 -20901022.83823
  18255863.5454  -24317188.86347 -18739347.24962
 92  5  5  3 21 14.9900000  0  5G 3G12G24G20G16
  20442322.8264   -9103828.03345  -7011359.16661
  21233151.6074    1894487.74245   1541132.15761
  18811516.0294  -11214998.79147  -8653205.89662
  17711078.436   -27282506.464 7 -20930694.13523
  18248985.428   -24353311.835 7 -18767494.99522
 92  5  5  3 21 29.9890000  0  5G 3G12G24G20G16
  20432561.3604   -9155155.13945  -7051354.27661
  21239251.899     1926543.500 5   1566110.61221
  18814034.9784  -11201750.80847  -8642882.79162
  17703859.564   -27320448.742 7 -20960259.53423
  18242135.001   -24389304.468 7 -18795541.18022
 92  5  5  3 21 44.9890000  0  5G 3G12G24G20G16
  20422791.298    -9206484.243 5  -7091350.93821
  21245354.837     1958604.947 5   1591093.49921
  18816565.6104  -11188453.55647  -8632521.29362
  17696661.290   -27358259.056 7 -20989722.10523
  18235312.579   -24425173.093 7 -18823490.74422
 92  5  5  3 21 59.9890000  0  5G 3G12G24G20G16
  20413024.1494   -9257810.76545  -7131345.58961
  21251453.774     1990670.653 5   1616079.68721
  18819105.5484  -11175106.58647  -8622121.05962
  17689492.634   -27395933.468 7 -21019078.77723
  18228513.032   -24460911.360 7 -18851338.71922
 92  5  5  3 22 14.9890000  0  5G 3G12G24G20G16
  20403260.8844   -9309132.93245  -7171336.84961
  21257559.681     2022742.005 5   1641070.30021
  18821654.4624  -11161711.22247  -8611683.11262
  17682351.0404  -27433469.91247 -21048327.94063
  18221736.103   -24496513.930 7 -18879080.96122
 92  5  5  3 22 29.9890000  0  5G 3G12G24G20G16
  20393489.259    -9360453.477 5  -7211326.84521
  21263659.1654    2054816.03345   1666063.00961
  18824211.6494  -11148271.75947  -8601210.80262
  17675235.985   -27470870.973 7 -21077471.61323
  18214984.001   -24531982.897 7 -18906719.09722
 92  5  5  3 22 44.9890000  0  5G 3G12G24G20G16
  20383727.189    -9411770.346 5  -7251313.98121
  21269762.954     2086894.141 5   1691058.85521
  18826777.2744  -11134785.39947  -8590701.94862
  17668142.493   -27508134.225 7 -21106507.89723
  18208264.048   -24567313.207 7 -18934249.18522
 92  5  5  3 22 59.9890000  0  5G 3G12G24G20G16
  20373964.751    -9463085.123 5  -7291299.47321
  21275870.681     2118974.595 5   1716056.56421
  18829353.1574  -11121253.14047  -8580157.32462
  17661077.899   -27545261.263 7 -21135438.04323
  18201568.181   -24602504.169 7 -18961670.69722
 92  5  5  3 23 14.9890000  0  5G 3G12G24G20G16
  20364198.079    -9514404.608 5  -7331288.65821
  21281974.728     2151050.210 5   1741050.47121
  18831936.6894  -11107684.02847  -8569583.98862
  17654038.173   -27582258.604 7 -21164267.12723
  18194893.399   -24637561.950 7 -18988988.42822
 92  5  5  3 23 29.9890000  0  5G 3G12G24G20G16
  20354427.1734   -9565728.33945  -7371281.13061
  21288076.8454    2183121.01045   1766040.66761
  18834526.5094  -11094080.32747  -8558983.69962
  17647022.5954  -27619125.51347 -21192994.57663
  18188247.048   -24672487.359 7 -19016203.00822
 92  5  5  3 23 44.9890000  0  5G 3G12G24G20G16
  20344666.134    -9617048.284 5  -7411270.67021
  21294180.5244    2215194.65145   1791033.04461
  18837118.3764  -11080436.11247  -8548351.84462
  17640031.978   -27655853.601 7 -21221613.84823
  18181630.735   -24707273.625 7 -19043309.16922
 92  5  5  3 23 59.9890000  0  5G 3G12G24G20G16
  20334892.251    -9668367.118 5  -7451259.32921
  21300283.6344    2247268.22545   1816025.35961
  18839724.0714  -11066758.32647  -8537693.82662
  17633068.954   -27692445.453 7 -21250126.96523
  18175037.876   -24741919.703 7 -19070306.09622
 92  5  5  3 24 14.9890000  0  5G 3G12G24G20G16
  20325125.3374   -9719697.64745  -7491257.10561
  21306382.681     2279328.324 5   1841007.20321
  18842330.0324  -11053062.23247  -8527021.53962
  17626131.634   -27728913.705 7 -21278543.77023
  18168467.267   -24776436.018 7 -19097201.90422
 92  5  5  3 24 29.9890000  0  5G 3G12G24G20G16
  20315356.048    -9771045.276 5  -7531268.21221
  21312478.603     2311369.554 5   1865974.32921
  18844937.3684  -11039353.70047  -8516339.56262
  17619215.829   -27765263.402 7 -21306868.19523
  18161922.564   -24810830.003 7 -19124002.38822
 92  5  5  3 24 44.9890000  0  5G 3G12G24G20G16
  20305582.954    -9822385.700 5  -7571273.71721
  21318584.6494    2343415.37745   1890945.01061
  18847555.1424  -11025606.60847  -8505627.54562
  17612321.548   -27801470.080 7 -21335081.16923
  18155407.6654  -24845078.32247 -19150689.36362
 92  5  5  3 24 59.9890000  0  4G 3G24G20G16
  20295819.126    -9873724.949 5  -7611278.28121
  18850175.4854  -11011828.95747  -8494891.70462
  17605457.962   -27837539.468 7 -21363187.16923
  18148916.134   -24879188.699 7 -19177268.85422
 92  5  5  3 25 14.9890000  0  4G 3G24G20G16
  20286050.3454   -9925056.11045  -7651276.54661
  18852806.3684  -10998014.78547  -8484127.41462
  17598624.907   -27873464.746 7 -21391180.87823
  18142448.634   -24913158.037 7 -19203738.44422
 92  5  5  3 25 29.9890000  0  4G 3G24G20G16
  20276281.5874   -9976386.19345  -7691273.98561
  18855441.4624  -10984169.57447  -8473338.92962
  17591813.298   -27909252.242 7 -21419067.22323
  18136012.6184  -24946994.80147 -19230104.73063
 92  5  5  3 25 44.9890000  0  4G 3G24G20G16
  20266514.2044  -10027714.31445  -7731269.89861
  18858081.3064  -10970288.47347  -8462522.47862
  17585026.689   -27944901.040 7 -21446845.49223
  18129601.267   -24980697.022 7 -19256366.17622
 92  5  5  3 25 59.9890000  0  4G 3G24G20G16
  20256746.485   -10079039.603 5  -7771263.58421
  18860732.8534  -10956370.57747  -8451677.36062
  17578271.290   -27980410.125 7 -21474514.89123
  18123211.0174  -25014259.64047 -19282518.85262
 92  5  5  3 26 14.9890000  0  4G 3G24G20G16
  20246979.0174  -10130358.03445  -7811251.92561
  18863387.3214  -10942410.29747  -8440799.21562
  17571544.728   -28015775.471 7 -21502072.28623
  18116850.2594  -25047679.30347 -19308560.11763
 92  5  5  3 26 29.9890000  0  4G 3G24G20G16
  20237211.5954  -10181679.41845  -7851242.57461
  18866048.0244  -10928416.31947  -8429894.81362
  17564836.821   -28051006.344 7 -21529524.89823
  18110520.298   -25080966.351 7 -19334498.05322
 92  5  5  3 26 44.9890000  0  5G 3G17G24G20G16
  20227449.9154  -10233003.27445  -7891235.14461
  21142594.8144         -0.67654
  18868720.0874  -10914386.99847  -8418962.86862
  17558156.173   -28086102.205 7 -21556872.30423
  18104211.837   -25114121.934 7 -19360333.55322
 92  5  5  3 26 59.9890000  0  5G 3G17G24G20G16
  20217682.5644  -10284319.43845  -7931221.73361
  21129824.4544     -67085.53044
  18871395.2514  -10900313.58847  -8407996.56762
  17551508.767   -28121052.624 7 -21584106.38023
  18097926.204   -25147135.919 7 -19386058.71322
 92  5  5  3 27 14.9890000  0  5G 3G17G24G20G16
  20207920.8844  -10335632.39845  -7971205.80661
  21117067.2204    -134122.01444
  18874082.6654  -10886199.67647  -8396998.70462
  17544885.970   -28155862.036 7 -21611230.57923
  18091668.212   -25180012.380 7 -19411676.71323
 92  5  5  3 27 29.9890000  0  5G 3G17G24G20G16
  20198157.0644  -10386943.85846  -8011188.73761
  21104315.5644    -201111.27744
  18876776.8604  -10872045.49247  -8385969.45762
  17538287.306   -28190531.641 7 -21638245.83823
  18085441.165   -25212748.934 7 -19437185.69323
 92  5  5  3 27 44.9890000  0  5G 3G17G24G20G16
  20188392.6424  -10438249.60345  -8051167.20461
  21091581.095     -268048.052 4
  18879477.3454  -10857848.86547  -8374907.15162
  17531714.853   -28225057.237 7 -21665148.88023
  18079240.735   -25245338.248 7 -19462579.94623
 92  5  5  3 27 59.9890000  0  5G 3G17G24G20G16
  20178631.110   -10489549.397 5  -8091141.02421
  21078856.1494    -334931.66544
  18882185.4234  -10843613.59947  -8363814.72762
  17525175.110   -28259438.386 7 -21691939.36823
  18073064.439   -25277779.262 7 -19487858.64223
 92  5  5  3 28 14.9890000  0  5G 3G17G24G20G16
  20168869.6184  -10540846.49445  -8131112.74961
  21066136.6034    -401766.61244        -0.15871
  18884901.9234  -10829344.56847  -8352695.98862
  17518660.540   -28293677.916 7 -21718619.50223
  18066917.642   -25310078.105 7 -19513026.55223
 92  5  5  3 28 29.9890000  0  5G 3G17G24G20G16
  20159105.8534  -10592144.70145  -8171085.34761
  21053427.9154    -468557.55844    -52044.95461
  18887622.5954  -10815046.55047  -8341554.67562
  17512169.040   -28327779.805 7 -21745192.38723
  18060800.485   -25342240.053 7 -19538087.79422
 92  5  5  3 28 44.9890000  0  5G 3G17G24G20G16
  20149343.743   -10643442.015 5  -8211057.23221
  21040725.0954    -535303.93444   -104055.01161
  18890350.4544  -10800717.55147  -8330389.21062
  17505706.689   -28361741.516 7 -21771656.04223
  18054707.290   -25374262.196 7 -19563040.09023
 92  5  5  3 28 59.9890000  0  5G 3G17G24G20G16
  20139585.415   -10694738.891 5  -8251028.76421
  21028032.1734    -602005.41844   -156030.14661
  18893084.5644  -10786358.60647  -8319200.41362
  17499271.915   -28395563.531 7 -21798010.84223
  18048637.353   -25406145.752 7 -19587884.39723
 92  5  5  3 29 14.9890000  0  5G 3G17G24G20G16
  20129821.7284  -10746037.06545  -8291001.35361
  21015345.501     -668664.656 4   -207972.31421
  18895820.5404  -10771971.97947  -8307990.04062
  17492860.267   -28429247.399 7 -21824257.99323
  18042595.243   -25437890.706 7 -19612620.70522
 92  5  5  3 29 29.9890000  0  5G 3G17G24G20G16
  20120062.501   -10797329.342 5  -8330969.29921
  21002672.564     -735278.446 4   -259879.07421
  18898564.548   -10757548.624 7  -8296751.05622
  17486476.970   -28462785.772 7 -21850391.77323
  18036586.282   -25469489.110 7 -19637242.81822
 92  5  5  3 29 44.9890000  0  5G 3G17G24G20G16
  20110301.642   -10848622.111 6  -8370937.65221
  20990002.806     -801856.130 4   -311757.74221
  18901311.532   -10743098.250 7  -8285491.01022
  17480121.626   -28496184.685 7 -21876416.88623
  18030601.009   -25500946.496 7 -19661755.04623
 92  5  5  3 29 59.9890000  0  5G 3G17G24G20G16
  20100539.5014  -10899918.34745  -8410908.70961
  20977341.9544    -868400.37145   -363610.30661
  18904070.4464  -10728624.36747  -8274212.65962
  17473795.220   -28529447.063 7 -21902335.60523
  18024636.470   -25532269.480 7 -19686162.54622
 92  5  5  3 30 14.9890000  0  5G 3G17G24G20G16
  20090781.4464  -10951213.17046  -8450878.64561
  20964687.024     -934906.675 5   -415433.32121
  18906830.2434  -10714119.76547  -8262910.36562
  17467490.423   -28562567.919 7 -21928144.05123
  18018701.931   -25563454.009 7 -19710462.15822
 92  5  5  3 30 29.9890000  0  5G 3G17G24G20G16
  20081017.8294  -11002506.26045  -8490847.27261
  20952035.439    -1001372.203 5   -467224.57321
  18909593.9854  -10699582.27547  -8251582.44662
  17461212.728   -28595546.566 7 -21953841.68223
  18012797.485   -25594497.613 7 -19734651.95922
 92  5  5  3 30 44.9890000  0  5G 3G17G24G20G16
  20071258.3144  -11053794.96845  -8530812.44361
  20939396.4074   -1067793.13445   -518981.05061
  18912366.5794  -10685006.99147  -8240225.07762
  17454966.665   -28628380.011 7 -21979426.16923
  18006917.728   -25625394.949 7 -19758727.79522
 92  5  5  3 30 59.9890000  0  5G 3G17G24G20G16
  20061501.4464  -11105082.85146  -8570776.99461
  20926765.4854   -1134173.39745   -570705.85361
  18915147.0174  -10670398.42947  -8228841.78362
  17448748.853   -28661071.838 7 -22004900.30423
  18001061.189   -25656149.224 7 -19782692.14222
 92  5  5  3 31 14.9890000  0  5G 3G17G24G20G16
  20051737.407   -11156369.271 5  -8610740.39121
  20914144.6494   -1200512.09145   -622398.28961
  18917931.3214  -10655755.56647  -8217431.74862
  17442551.970   -28693621.358 7 -22030263.55223
  17995239.767   -25686757.665 7 -19806542.86222
 92  5  5  3 31 29.9890000  0  5G 3G17G24G20G16
  20041980.001   -11207652.460 6  -8650701.28521
  20901522.0174   -1266807.89444   -674057.27461
  18920726.9154  -10641075.19247  -8205992.50562
  17436383.415   -28726026.636 7 -22055514.40123
  17989445.642   -25717217.500 7 -19830277.77622
 92  5  5  3 31 44.9890000  0  5G 3G17G24G20G16
  20032222.5954  -11258937.79046  -8690663.83961
  20888917.743    -1333065.414 4   -725686.41621
  18923529.3454  -10626366.07447  -8194530.83762
  17430245.282   -28758292.651 7 -22080656.74023
  17983673.306   -25747534.276 7 -19853901.22222
 92  5  5  3 31 59.9890000  0  5G 3G17G24G20G16
  20022462.7824  -11310220.59146  -8730624.43361
  20876314.470    -1399277.781 5   -777280.40821
  18926331.5644  -10611625.37947  -8183044.57662
  17424134.454   -28790414.798 7 -22105686.96822
  17977930.728   -25777705.432 7 -19877411.19822
 92  5  5  3 32 14.9890000  0  5G 3G17G24G20G16
  20012706.0874  -11361502.53446  -8770584.35661
  20863723.978    -1465445.888 5   -828839.89421
  18929140.3294  -10596852.04147  -8171532.88362
  17418045.954   -28822394.382 7 -22130606.11223
  17972219.024   -25807732.333 7 -19900808.76323
 92  5  5  3 32 29.9890000  0  5G 3G17G24G20G16
  20002944.6424  -11412781.83446  -8810542.20761
  20851139.603    -1531569.892 5   -880364.99521
  18931961.3534  -10582044.43447  -8159994.49062
  17411986.876   -28854229.490 7 -22155412.67623
  17966534.618   -25837613.087 7 -19924092.44922
 92  5  5  3 32 44.9890000  0  5G 3G17G24G20G16
  19993188.0324  -11464054.37246  -8850494.79861
  20838567.9314   -1597645.59945   -931852.48561
  18934787.2674  -10567201.08347  -8148428.24162
  17405961.126   -28885915.938 7 -22180103.40223
  17960874.915   -25867345.075 7 -19947260.21822
 92  5  5  3 32 59.9890000  0  5G 3G17G24G20G16
  19983431.0564  -11515327.78545  -8890448.07661
  20826002.3144   -1663680.22445   -983307.94761
  18937616.3144  -10552330.02747  -8136840.40162
  17399958.071   -28917461.247 7 -22204684.14923
  17955241.376   -25896937.459 7 -19970319.20722
 92  5  5  3 33 14.9890000  0  5G 3G17G24G20G16
  19973674.2904  -11566601.18746  -8930401.34561
  20813446.4704   -1729671.56445  -1034729.69561
  18940450.5174  -10537432.70547  -8125232.09362
  17393979.267   -28948864.130 7 -22229153.91623
  17949640.321   -25926389.125 7 -19993268.53722
 92  5  5  3 33 29.9890000  0  5G 3G17G24G20G16
  19963920.1264  -11617872.45746  -8970352.94461
  20800895.587    -1795614.369 5  -1086113.61021
  18943293.3144  -10522508.29647  -8113602.68062
  17388030.564   -28980122.606 7 -22253511.15623
  17944063.392   -25955698.420 7 -20016106.93322
 92  5  5  3 33 44.9890000  0  5G 3G17G24G20G16
  19954160.6654  -11669141.05546  -9010302.46961
  20788356.1184   -1861506.10245  -1137457.74661
  18946135.8064  -10507558.81547  -8101953.73262
  17382112.626   -29011235.830 7 -22277755.21423
  17938510.587   -25984865.659 7 -20038834.63422
 92  5  5  3 33 59.9890000  0  5G 3G17G24G20G16
  19944407.2204  -11720410.36546  -9050252.54361
  20775822.6574   -1927349.77745  -1188764.42461
  18948987.2354  -10492587.71547  -8090287.93762
  17376219.251   -29042207.103 7 -22301888.66223
  17932984.064   -26013896.404 7 -20061455.97522
 92  5  5  3 34 14.9890000  0  5G 3G17G24G20G16
  19934647.3684  -11771677.17845  -9090200.68561
  20763306.196    -1993142.709 5  -1240031.55221
  18951837.8994  -10477588.85847  -8078600.51362
  17370350.274   -29073032.956 7 -22325908.79023
  17927491.853   -26042787.244 7 -20083968.30523
 92  5  5  3 34 29.9890000  0  5G 3G17G24G20G16
  19924896.228   -11822941.426 6  -9130146.79621
  20750794.798    -2058884.315 5  -1291258.69421
  18954699.6034  -10462562.19247  -8066891.41862
  17364511.946   -29103713.178 7 -22349815.44723
  17922019.149   -26071536.777 7 -20106370.52023
 92  5  5  3 34 44.9890000  0  5G 3G17G24G20G16
  19915137.915   -11874200.460 6  -9170088.87921
  20738299.517    -2124569.251 5  -1342441.67521
  18957563.5714  -10447508.07947  -8055160.94062
  17358705.735   -29134245.051 7 -22373606.50423
  17916573.095   -26100141.668 7 -20128660.03122
 92  5  5  3 34 59.9890000  0  5G 3G17G24G20G16
  19905384.2204  -11925459.03946  -9210030.59461
  20725807.524    -2190199.639 5  -1393582.16121
  18960432.1574  -10432431.22547  -8043412.73762
  17352923.267   -29164633.099 7 -22397285.49223
  17911156.845   -26128603.647 7 -20150838.17722
 92  5  5  3 35 14.9890000  0  5G 3G17G24G20G16
  19895628.2744  -11976715.50745  -9249970.66561
  20713325.048    -2255777.122 5  -1444681.41921
  18963303.5714  -10417328.82247  -8031644.62762
  17347165.2514  -29194875.50447 -22420850.99063
  17905771.634   -26156919.629 7 -20172902.56522
 92  5  5  3 35 29.9890000  0  5G 3G17G24G20G16
  19885876.5404  -12027971.76946  -9289910.57861
  20700863.4394   -2321306.26145  -1495742.99061
  18966182.9544  -10402204.10747  -8019859.13762
  17341438.2904  -29224974.25047 -22444304.54863
  17900410.524   -26185092.463 7 -20194855.40823
 92  5  5  3 35 44.9890000  0  5G 3G17G24G20G16
  19876126.985   -12079225.182 6  -9329848.27321
  20688398.196    -2386786.176 5  -1546766.22621
  18969068.0404  -10387051.63547  -8008052.01362
  17335739.4784  -29254926.08947 -22467643.63563
  17895073.056   -26213121.215 7 -20216695.97722
 92  5  5  3 35 59.9890000  0  5G 3G17G24G20G16
  19866372.626   -12130475.247 6  -9369783.36221
  20675945.845    -2452220.326 5  -1597753.78321
  18971959.6654  -10371868.05947  -7996220.64962
  17330068.4624  -29284730.81847 -22490868.08863
  17889767.751   -26241006.033 7 -20238424.39022
 92  5  5  3 36 14.9890000  0  5G 3G17G24G20G16
  19856619.603   -12181729.376 6  -9409721.60521
  20663501.603    -2517615.527 5  -1648710.99921
  18974853.4934  -10356659.89547  -7984370.13062
  17324420.696   -29314395.441 7 -22513983.36823
  17884490.837   -26268753.185 7 -20260045.53422
 92  5  5  3 36 29.9890000  0  5G 3G17G24G20G16
  19846864.1734  -12232983.17746  -9449659.60661
  20651062.6104   -2582965.35445  -1699632.87261
  18977749.1574  -10341424.58047  -7972498.45162
  17318804.8374  -29343915.62747 -22536986.09763
  17879238.056   -26296356.904 7 -20281554.90522
 92  5  5  3 36 44.9890000  0  5G 3G17G24G20G16
  19837110.9314  -12284241.00446  -9489600.74061
  20638640.462    -2648273.589 5  -1750522.33721
  18980653.6894  -10326166.60147  -7960609.11262
  17313215.6344  -29373295.41247 -22559879.42963
  17874008.204   -26323820.706 7 -20302955.25522
 92  5  5  3 36 59.9890000  0  5G 3G17G24G20G16
  19827354.993   -12335496.468 6  -9529540.04121
  20626222.290    -2713536.044 5  -1801376.10221
  18983560.8064  -10310878.13747  -7948696.02062
  17307653.6184  -29402528.34247 -22582658.32663
  17868810.220   -26351137.165 7 -20324240.78223
 92  5  5  3 37 14.9890000  0  5G 3G17G24G20G16
  19817606.540   -12386746.025 6  -9569474.71021
  20613807.298    -2778750.954 5  -1852192.84521
  18986478.0174  -10295553.19547  -7936754.50362
  17302114.4704  -29431610.73747 -22605319.92263
  17863644.095   -26378303.182 7 -20345409.09523
 92  5  5  3 37 29.9890000  0  5G 3G17G24G20G16
  19807855.212   -12437987.635 6  -9609403.21621
  20601409.5174   -2843916.65245  -1902971.25961
  18989402.1814  -10280191.89447  -7924784.65162
  17296609.4394  -29460540.67547 -22627862.72063
  17858503.298   -26405317.768 7 -20366459.40122
 92  5  5  3 37 44.9890000  0  5G 3G17G24G20G16
  19798103.821   -12489227.888 6  -9649330.65721
  20589013.5794   -2909036.59745  -1953713.96161
  18992332.9854  -10264801.14647  -7912791.86562
  17291135.8374  -29489324.29747 -22650291.50963
  17853386.837   -26432186.379 7 -20387395.96622
 92  5  5  3 37 59.9890000  0  5G 3G17G24G20G16
  19788353.4544  -12540468.89146  -9689258.67061
  20576640.329    -2974110.292 5  -2004420.69121
  18995266.1574  -10249382.88647  -7900777.63262
  17285685.9934  -29517963.83547 -22672608.02263
  17848300.860   -26458909.809 7 -20408219.40422
 92  5  5  3 38 14.9890000  0  5G 3G17G24G20G16
  19778602.3924  -12591712.17946  -9729188.47161
  20564261.032    -3039136.967 5  -2055090.74921
  18998203.4394  -10233941.08647  -7888745.05562
  17280259.3064  -29546460.58147 -22694813.26763
  17843248.251   -26485489.978 7 -20428931.20522
 92  5  5  3 38 29.9890000  0  5G 3G17G24G20G16
  19768847.5244  -12642949.77746  -9769113.83161
  20551896.7514   -3104108.89445  -2105718.14861
  19001148.7204  -10218469.32947  -7876689.13562
  17274865.2984  -29574806.52747 -22716901.00563
  17838216.915   -26511920.716 7 -20449526.57123
 92  5  5  3 38 44.9890000  0  5G 3G17G24G20G16
  19759100.946   -12694187.748 6  -9809039.47621
  20539543.337    -3169035.712 5  -2156310.40021
  19004096.7284  -10202972.65547  -7864613.79662
  17269500.610   -29603007.659 7 -22738875.90323
  17833212.548   -26538207.148 7 -20470009.48922
 92  5  5  3 38 59.9890000  0  5G 3G17G24G20G16
  19749353.1424  -12745424.53146  -9848964.21561
  20527189.4464   -3233916.32045  -2206866.67161
  19007048.8454  -10187448.68947  -7852517.19262
  17264163.7744  -29631062.35547 -22760736.69963
  17828237.032   -26564348.047 7 -20490379.00822
 92  5  5  3 39 14.9890000  0  5G 3G17G24G20G16
  19739600.759   -12796659.306 6  -9888887.38921
  20514856.2514   -3298748.28245  -2257385.02761
  19010008.4704  -10171897.89247  -7840399.67962
  17258850.1034  -29658969.50547 -22782482.52263
  17823293.134   -26590343.525 7 -20510635.20723
 92  5  5  3 39 29.9890000  0  5G 3G17G24G20G16
  19729853.8994  -12847889.46946  -9928806.95661
  20502526.196    -3363528.545 5  -2307863.09821
  19012971.5484  -10156320.83947  -7828261.70962
  17253567.6734  -29686726.23347 -22804111.13563
  17818375.079   -26616191.878 7 -20530776.76022
 92  5  5  3 39 44.9890000  0  5G 3G17G24G20G16
  19720106.0954  -12899113.43946  -9968721.69361
  20490213.657    -3428253.865 5  -2358298.35321
  19015942.4784  -10140715.16547  -7816101.44262
  17248317.0014  -29714331.11247 -22825621.42163
  17813483.142   -26641892.476 7 -20550803.18422
 92  5  5  3 39 59.9890000  0  5G 3G17G24G20G16
  19710355.4074  -12950338.55646 -10008637.34661
  20477905.860    -3492931.107 5  -2408696.14221
  19018917.0244  -10125085.31747  -7803922.33262
  17243092.1184  -29741791.49147 -22847019.11363
  17808615.103   -26667455.313 7 -20570722.26722
 92  5  5  3 40 14.9890000  0  5G 3G17G24G20G16
  19700609.946   -13001565.213 6 -10048554.16921
  20465604.8844   -3557561.61745  -2459057.51161
  19021896.9854  -10109430.73947  -7791723.95762
  17237892.009   -29769107.307 7 -22868304.15523
  17803780.087   -26692880.877 7 -20590534.37822
 92  5  5  3 40 29.9880000  0  5G 3G17G24G20G16
  19690863.1994  -13052783.98546 -10088464.86861
  20453321.309    -3622137.524 5  -2509376.36221
  19024883.4104  -10093747.98747  -7779503.63062
  17232720.5514  -29796270.76147 -22889470.47263
  17798973.004   -26718159.532 7 -20610232.01622
 92  5  5  3 40 44.9880000  0  5G 3G17G24G20G16
  19681112.918   -13104004.443 6 -10128376.87921
  20441040.606    -3686671.322 5  -2559662.36221
  19027871.3714  -10078038.80047  -7767262.70362
  17227581.9264  -29823288.20947 -22910523.01963
  17794186.949   -26743294.491 7 -20629817.68322
 92  5  5  3 40 59.9880000  0  5G 3G17G24G20G16
  19671371.3564  -13155219.93346 -10168285.01061
  20428767.2624   -3751152.92645  -2609907.73161
  19030866.4264  -10062302.13147  -7755000.35862
  17222471.4184  -29850154.66447 -22931457.91163
  17789429.754   -26768279.153 7 -20649286.23322
 92  5  5  3 41 14.9880000  0  5G 3G17G24G20G16
  19661619.2384  -13206440.55646 -10208197.15261
  20416504.5904   -3815589.68845  -2660118.14861
  19033864.6924  -10046548.09947  -7742724.48162
  17217386.2774  -29876879.80847 -22952282.69063
  17784703.301   -26793123.643 7 -20668645.55722
 92  5  5  3 41 29.9880000  0  5G 3G17G24G20G16
  19651874.6064  -13257654.62846 -10248104.17861
  20404257.324    -3879970.547 5  -2710284.98221
  19036867.3714  -10030765.38747  -7730426.25762
  17212327.0824  -29903451.82847 -22972988.15163
  17780007.059   -26817815.820 7 -20687886.19822
 92  5  5  3 41 44.9880000  0  5G 3G17G24G20G16
  19642130.192   -13308872.922 6 -10288014.50221
  20392010.6294   -3944304.96445  -2760415.65361
  19039871.879   -10014962.311 7  -7718112.16622
  17207298.2624  -29929881.65047 -22993582.80863
  17775335.910   -26842365.649 7 -20707015.92022
 92  5  5  3 41 59.9880000  0  5G 3G17G24G20G16
  19632382.824   -13360086.431 6 -10327921.09921
  20379776.402    -4008583.536 5  -2810502.81421
  19042884.645    -9999130.781 7  -7705775.90022
  17202299.6064  -29956159.97047 -23014059.41363
  17770690.598   -26866762.287 7 -20726026.27722
 92  5  5  3 42 14.9880000  0  5G 3G17G24G20G16
  19622639.512   -13411296.340 6 -10367824.88121
  20367557.1994   -4072809.37145  -2860548.86161
  19045903.4884   -9983274.80547  -7693420.58562
  17197328.0354  -29982288.05647 -23034418.95163
  17766076.285   -26891006.217 7 -20744917.63622
 92  5  5  3 42 29.9880000  0  5G 3G17G24G20G16
  19612892.067   -13462506.520 6 -10407728.89821
  20355345.543    -4136985.613 5  -2910556.29921
  19048923.3794   -9967400.92747  -7681051.32562
  17192381.9104  -30008269.65547 -23054664.34763
  17761492.129   -26915099.189 7 -20763691.36722
 92  5  5  3 42 44.9880000  0  5G 3G17G24G20G16
  19603148.4574  -13513716.39746 -10447632.66261
  20343140.5904   -4201109.19145  -2960522.67761
  19051948.3954   -9951507.05047  -7668666.47762
  17187464.2704  -30034103.87847 -23074794.90163
  17756938.027   -26939042.771 7 -20782348.69022
 92  5  5  3 42 59.9880000  0  5G 3G17G24G20G16
  19593403.0904  -13564926.30346 -10487536.44861
  20330952.301    -4265178.780 5  -3010446.97921
  19054975.8874   -9935591.40547  -7656264.67762
  17182576.8014  -30059791.22647 -23094811.00563
  17752409.363   -26962839.670 7 -20800891.71322
 92  5  5  3 43 14.9880000  0  5G 3G17G24G20G16
  19583659.5124  -13616134.91246 -10527439.22961
  20318767.7774   -4329191.98545  -3060327.36161
  19058011.8564   -9919650.78747  -7643843.41362
  17177719.2544  -30085330.28647 -23114711.56263
  17747904.793   -26986488.541 7 -20819319.38822
 92  5  5  3 43 29.9880000  0  5G 3G17G24G20G16
  19573918.9494  -13667337.79346 -10567337.54661
  20306597.3174   -4393145.19145  -3110160.98161
  19061046.9734   -9903681.51047  -7631399.81862
  17172888.0674  -30110716.42147 -23134492.95763
  17743435.285   -27009987.290 7 -20837630.08722
 92  5  5  3 43 44.9880000  0  5G 3G17G24G20G16
  19564172.6994  -13718546.88246 -10607240.70161
  20294439.6604   -4457051.46745  -3159958.02561
  19064093.3714   -9887695.26447  -7618942.99962
  17168080.356   -30135961.674 7 -23154164.57123
  17738992.637   -27033349.031 7 -20855834.02922
 92  5  5  3 43 59.9880000  0  5G 3G17G24G20G16
  19554428.3634  -13769752.30746 -10647140.99861
  20282290.949    -4520902.177 5  -3209711.80921
  19067138.8954   -9871684.90047  -7606467.38562
  17163304.871   -30161056.151 7 -23173718.69723
  17734575.0984  -27056567.32447 -20873926.19262
 92  5  5  3 44 14.9880000  0  5G 3G17G24G20G16
  19544684.090   -13820952.353 6 -10687037.10621
  20270148.535    -4584699.090 5  -3259423.64121
  19070187.8874   -9855648.84147  -7593971.74762
  17158561.848   -30185997.850 7 -23193153.77523
  17730180.215   -27079644.118 7 -20891908.09622
 92  5  5  3 44 29.9880000  0  5G 3G17G24G20G16
  19534936.1604  -13872153.83646 -10726934.33961
  20258015.871    -4648449.321 5  -3309099.11521
  19073245.8564   -9839592.44347  -7581460.26261
  17153844.926   -30210793.571 7 -23212475.10723
  17725813.715   -27102585.795 7 -20909784.71322
 92  5  5  3 44 44.9880000  0  5G 3G17G24G20G16
  19525200.0204  -13923350.96846 -10766828.17761
  20245896.840    -4712147.090 5  -3358733.69921
  19076308.3564   -9823510.87347  -7568929.16161
  17149152.1994  -30235437.48047 -23231678.14263
  17721476.067   -27125387.424 7 -20927552.20322
 92  5  5  3 44 59.9880000  0  5G 3G17G24G20G16
  19515457.848   -13974542.976 6 -10806718.02321
  20233780.660    -4775794.198 5  -3408328.81521
  19079369.4344   -9807403.62047  -7556378.04662
  17144489.6214  -30259928.75647 -23250762.24563
  17717166.613   -27148048.274 7 -20945209.99222
 92  5  5  3 45 14.9880000  0  5G 3G17G24G20G16
  19505713.793   -14025742.454 6 -10846613.69821
  20221679.8714   -4839404.04645  -3457894.89461
  19082437.9344   -9791285.42047  -7543818.40062
  17139857.4104  -30284279.86247 -23269737.12263
  17712878.684   -27170578.164 7 -20962765.73622
 92  5  5  3 45 29.9880000  0  5G 3G17G24G20G16
  19495972.488   -14076936.228 6 -10886504.92121
  20209581.8954   -4902964.90245  -3507422.80561
  19085511.7854   -9775145.60847  -7531241.92461
  17135254.3244  -30308477.77247 -23288592.63063
  17708616.004   -27192966.715 7 -20980211.34822
 92  5  5  3 45 44.9880000  0  5G 3G17G24G20G16
  19486231.1454  -14128125.39446 -10926392.55061
  20197497.699    -4966476.354 5  -3556912.20621
  19088584.0124   -9758986.22247  -7518650.19061
  17130681.231   -30332523.394 7 -23307329.46423
  17704380.129   -27215214.093 7 -20997546.95322
 92  5  5  3 45 59.9880000  0  5G 3G17G24G20G16
  19476488.8244  -14179313.00446 -10966278.97461
  20185420.832    -5029940.851 5  -3606365.02921
  19091663.1134   -9742812.07547  -7506046.95561
  17126132.582   -30356419.745 7 -23325949.98723
  17700174.340   -27237321.992 7 -21014773.87122
 92  5  5  3 46 14.9880000  0  5G 3G17G24G20G16
  19466752.457   -14230503.061 6 -11006167.30221
  20173349.6214   -5093362.87645  -3655784.75261
  19094742.6994   -9726627.21947  -7493435.37761
  17121611.137   -30380170.658 7 -23344457.17523
  17695994.926   -27259290.839 7 -21031892.44022
 92  5  5  3 46 29.9880000  0  5G 3G17G24G20G16
  19457009.1454  -14281692.84946 -11046055.42161
  20161296.8094   -5156737.26645  -3705167.35361
  19097825.5044   -9710428.34247  -7480812.87462
  17117117.176   -30403773.555 7 -23362849.03323
  17691845.395   -27281111.605 7 -21048895.62023
 92  5  5  3 46 44.9880000  0  5G 3G17G24G20G16
  19447267.7384  -14332881.77446 -11085942.87261
  20149241.2154   -5220061.51845  -3754510.89161
  19100913.0824   -9694215.10447  -7468179.18062
  17112653.746   -30427227.787 7 -23381125.04523
  17687720.723   -27302780.655 7 -21065780.58422
 92  5  5  3 46 59.9880000  0  5G 3G17G24G20G16
  19437525.5434  -14384068.43846 -11125828.56161
  20137199.824    -5283333.542 5  -3803813.72821
  19104000.5434   -9677983.01847  -7455530.79761
  17108221.9574  -30450531.66147 -23399283.89863
  17683625.4814  -27324296.34147 -21082546.04462
 92  5  5  3 47 14.9880000  0  5G 3G17G24G20G16
  19427787.074   -14435249.227 6 -11165709.67421
  20125171.324    -5346548.973 5  -3853072.46421
  19107090.9424   -9661727.32646  -7442864.02362
  17103817.9814  -30473681.82247 -23417322.97563
  17679559.840   -27345653.362 7 -21099187.86622
 92  5  5  3 47 29.9880000  0  5G 3G17G24G20G16
  19418048.254   -14486425.600 6 -11205587.33621
  20113153.3094   -5409707.16145  -3902286.60961
  19110190.0204   -9645450.21846  -7430180.55961
  17099441.2934  -30496679.51347 -23435243.24763
  17675524.8324  -27366854.03147 -21115707.85562
 92  5  5  3 47 44.9880000  0  5G 3G17G24G20G16
  19408310.7544  -14537602.36946 -11245465.30661
  20101147.293    -5472813.356 5  -3951460.22621
  19113290.2544   -9629158.98147  -7417486.08661
  17095091.7544  -30519529.61347 -23453048.51063
  17671519.942   -27387903.063 7 -21132109.68722
 92  5  5  3 47 59.9880000  0  5G 3G17G24G20G16
  19398569.582   -14588778.888 6 -11285343.09921
  20089143.387    -5535867.880 5  -4000593.58121
  19116394.2464   -9612852.52847  -7404779.75661
  17090769.9104  -30542231.24147 -23470738.08363
  17667546.559   -27408797.990 7 -21148391.43722
 92  5  5  3 48 14.9880000  0  5G 3G17G24G20G16
  19388833.7934  -14639953.22546 -11325219.17461
  20077159.6214   -5598871.77345  -4049687.47661
  19119497.9184   -9596529.16947  -7392060.25161
  17086477.2314  -30564782.50247 -23488310.48663
  17663600.527   -27429537.256 7 -21164551.89322
 92  5  5  3 48 29.9880000  0  5G 3G17G24G20G16
  19379093.824   -14691123.637 6 -11365092.19621
  20065180.801    -5661821.986 5  -4098739.55421
  19122610.3404   -9580184.72447  -7379324.31561
  17082218.3794  -30587181.77047 -23505764.45963
  17659683.254   -27450119.087 7 -21180589.67322
 92  5  5  3 48 44.9880000  0  5G 3G17G24G20G16
  19369361.2624  -14742280.97146 -11404955.02861
  20053209.215    -5724708.321 5  -4147741.84821
  19125727.0044   -9563809.34147  -7366564.27661
  17077988.4344  -30609419.70747 -23523092.71463
  17655794.723   -27470538.350 7 -21196500.77422
 92  5  5  3 48 59.9880000  0  5G 3G17G24G20G16
  19359627.762   -14793438.627 6 -11444818.11421
  20041252.426    -5787544.547 5  -4196705.08821
  19128844.0824   -9547417.48547  -7353791.39561
  17073784.7624  -30631509.93347 -23540305.86863
  17651936.082   -27490813.303 7 -21212299.42722
 92  5  5  3 49 14.9880000  0  5G 3G17G24G20G16
  19349891.035   -14844591.758 6 -11484677.67721
  20029308.3794   -5850325.01145  -4245624.89461
  19131967.8094   -9531005.49947  -7341002.82861
  17069607.9494  -30653447.35047 -23557399.95563
  17648108.0434  -27510939.60747 -21227982.25262
 92  5  5  3 49 29.9880000  0  5G 3G17G24G20G16
  19340158.2704  -14895742.57846 -11524535.42761
  20017367.7234   -5913051.33945  -4294502.50561
  19135093.5124   -9514579.49947  -7328203.34161
  17065460.9104  -30675234.14847 -23574376.67363
  17644308.7704  -27530920.52547 -21243551.78762
 92  5  5  3 49 44.9880000  0  5G 3G17G24G20G16
  19330426.6524  -14946888.23746 -11564389.15461
  20005437.5984   -5975722.65845  -4343337.26661
  19138226.5514   -9498135.38347  -7315389.74261
  17061344.2854  -30696867.20947 -23591233.59763
  17640532.7704  -27550753.54147 -21259006.07462
 92  5  5  3 49 59.9880000  0  5G 3G17G24G20G16
  19320693.371   -14998031.590 6 -11604241.10821
  19993530.1454   -6038343.49245  -4392132.66661
  19141358.6064   -9481670.92047  -7302560.28761
  17057258.7544  -30718349.81947 -23607973.28963
  17636784.3324  -27570441.32447 -21274347.19562
 92  5  5  3 50 14.9880000  0  5G 3G17G24G20G16
  19310960.848   -15049173.520 6 -11644091.93321
  19981623.988    -6100913.937 5  -4440888.80121
  19144492.3484   -9465182.63546  -7289712.26761
  17053200.8014  -30739682.72747 -23624596.32663
  17633064.481   -27589984.963 7 -21289575.99222
 92  5  5  3 50 29.9880000  0  5G 3G17G24G20G16
  19301234.488   -15100311.512 6 -11683939.68721
  19969723.9264   -6163429.30645  -4489602.03861
  19147634.379    -9448666.843 6  -7276842.80221
  17049168.5904  -30760863.42947 -23641100.76363
  17629373.332   -27609382.118 7 -21304690.64522
 92  5  5  3 50 44.9880000  0  5G 3G17G24G20G16
  19291499.848   -15151444.063 6 -11723783.21321
  19957836.668    -6225887.922 5  -4538271.05421
  19150784.5124   -9432120.89346  -7263949.84461
  17045164.5204  -30781890.33147 -23657485.35563
  17625712.582   -27628634.233 7 -21319692.28322
 92  5  5  3 50 59.9880000  0  5G 3G17G24G20G16
  19281770.2704  -15202570.26346 -11763621.78161
  19945962.606    -6288290.878 5  -4586896.67421
  19153939.9264   -9415544.94146  -7251033.51561
  17041192.2154  -30802762.54247 -23673749.41063
  17622077.207   -27647739.258 7 -21334579.30522
 92  5  5  3 51 14.9880000  0  5G 3G17G24G20G16
  19272043.918   -15253691.786 6 -11803456.70921
  19934096.340    -6350638.952 5  -4635479.55521
  19157100.1604   -9398941.05946  -7238095.42161
  17037249.2704  -30823481.63047 -23689894.14763
  17618470.543   -27666696.438 7 -21349351.12022
 92  5  5  3 51 29.9880000  0  5G 3G17G24G20G16
  19262313.395   -15304810.682 6 -11843289.58921
  19922238.2074   -6412934.12145  -4684021.20361
  19160263.3094   -9382311.67946  -7225137.45661
  17033338.0674  -30844049.73947 -23705921.24463
  17614890.6684  -27685504.80747 -21364006.98062
 92  5  5  3 51 44.9880000  0  5G 3G17G24G20G16
  19252587.8094  -15355931.63046 -11883124.05761
  19910404.9424   -6475182.04345  -4732526.03961
  19163429.2704   -9365662.90846  -7212164.38861
  17029452.5674  -30864471.48947 -23721834.29563
  17611335.8174  -27704170.31447 -21378551.52362
 92  5  5  3 51 59.9880000  0  5G 3G17G24G20G16
  19242859.895   -15407049.779 6 -11922956.36821
  19898563.738    -6537376.127 5  -4780988.91521
  19166603.5434   -9348990.79646  -7199173.13361
  17025597.3094  -30884742.10047 -23737629.56863
  17607811.9734  -27722688.31247 -21392981.11562
 92  5  5  3 52 14.9880000  0  5G 3G17G24G20G16
  19233128.6764  -15458164.79746 -11962786.22461
  19886737.7624   -6599513.58345  -4829407.64961
  19169780.2154   -9332299.19346  -7186166.69161
  17021767.4344  -30904861.28747 -23753306.85263
  17604316.254   -27741059.802 7 -21407296.55622
 92  5  5  3 52 29.9880000  0  5G 3G17G24G20G16
  19223407.4964  -15509271.73146 -12002609.77161
  19874926.6844   -6661587.11545  -4877776.61461
  19172962.1454   -9315587.30046  -7173144.43661
  17017966.8714  -30924824.14647 -23768862.32363
  17600850.652   -27759280.823 7 -21421494.73822
 92  5  5  3 52 44.9880000  0  5G 3G17G24G20G16
  19213682.871   -15560379.201 6 -12042433.75721
  19863128.199    -6723607.326 5  -4926103.99221
  19176141.5274   -9298866.16446  -7160114.98061
  17014194.8244  -30944639.18147 -23784302.60363
  17597410.426   -27777361.208 7 -21435583.33722
 92  5  5  3 52 59.9880000  0  5G 3G17G24G20G16
  19203956.5044  -15611478.78646 -12082251.58761
  19851329.8244   -6785563.87945  -4974381.79161
  19179323.1214   -9282129.70746  -7147073.58061
  17010452.6604  -30964298.00047 -23799621.15663
  17594000.6454  -27795290.40047 -21449554.12362
 92  5  5  3 53 14.9880000  0  5G 3G17G24G20G16
  19194231.0744  -15662575.40746 -12122067.10861
  19839559.457    -6847458.918 5  -5022611.64921
  19182515.1844   -9265386.02446  -7134026.54761
  17006742.5904  -30983805.43647 -23814821.74663
  17590615.348   -27813072.211 7 -21463410.06822
 92  5  5  3 53 29.9880000  0  5G 3G17G24G20G16
  19184509.8794  -15713672.27746 -12161882.81461
  19827795.9344   -6909295.47845  -5070795.92861
  19185700.2074   -9248637.62646  -7120975.84261
  17003060.2234  -31003164.80447 -23829906.96063
  17587257.692   -27830713.393 7 -21477156.43222
 92  5  5  3 53 44.9880000  0  5G 3G17G24G20G16
  19174790.6294  -15764764.66446 -12201695.04161
  19816036.567    -6971071.049 5  -5118932.71121
  19188891.0434   -9231880.16746  -7107918.07461
  16999406.5354  -31022371.29147 -23844873.04763
  17583925.770   -27848212.583 7 -21490792.15322
 92  5  5  3 53 59.9880000  0  5G 3G17G24G20G16
  19165065.9494  -15815852.54346 -12241503.75161
  19804286.848    -7032787.170 5  -5167023.17221
  19192078.7234   -9215112.15546  -7094852.08461
  16995780.6134  -31041424.91847 -23859720.02163
  17580621.2074  -27865571.48547 -21504318.55962
 92  5  5  3 54 14.9880000  0  5G 3G17G24G20G16
  19155344.0514  -15866936.95746 -12281309.75661
  19792558.606    -7094445.485 5  -5215068.55221
  19195273.5904   -9198331.58446  -7081776.31161
  16992183.8634  -31060326.92047 -23874448.85563
  17577346.387   -27882789.221 7 -21517734.96822
 92  5  5  3 54 29.9880000  0  5G 3G17G24G20G16
  19145627.3174  -15918016.67446 -12321112.09961
  19780835.7544   -7156047.24245  -5263069.90161
  19198468.3874   -9181532.48546  -7068686.10561
  16988616.0984  -31079075.95147 -23889058.49363
  17574095.7934  -27899864.11347 -21531040.06462
 92  5  5  3 54 44.9880000  0  5G 3G17G24G20G16
  19135905.4734  -15969095.51946 -12360913.77061
  19769126.629    -7217596.855 5  -5311030.59421
  19201671.1374   -9164717.14446  -7055583.23761
  16985074.8014  -31097675.78847 -23903551.87363
  17570874.7774  -27916798.63447 -21544235.78462
 92  5  5  3 54 59.9880000  0  5G 3G17G24G20G16
  19126184.8714  -16020171.72046 -12400713.37761
  19757419.2384   -7279090.95545  -5358948.04461
  19204870.5124   -9147884.84246  -7042467.15161
  16981562.4424  -31116124.70947 -23917927.65663
  17567680.645   -27933588.800 7 -21557319.01822
 92  5  5  3 55 14.9880000  0  5G 3G17G24G20G16
  19116465.426   -16071244.921 6 -12440510.65421
  19745730.8874   -7340528.61645  -5406821.51161
  19208080.7384   -9131035.76946  -7029338.00761
  16978079.7704  -31134422.41247 -23932185.60663
  17564513.902   -27950234.596 7 -21570289.75922
 92  5  5  3 55 29.9880000  0  5G 3G17G24G20G16
  19106750.4494  -16122316.52946 -12480306.67961
  19734050.613    -7401916.235 5  -5454655.96721
  19211287.6374   -9114170.09946  -7016195.92461
  16974626.5744  -31152570.40147 -23946326.88963
  17561375.067   -27966738.658 7 -21583150.05422
 92  5  5  3 55 44.9880000  0  5G 3G17G24G20G16
  19097030.418   -16173386.077 6 -12520101.10421
  19722369.9734   -7463254.23345  -5502451.78561
  19214501.8634   -9097285.58746  -7003039.15561
  16971200.8794  -31170568.03847 -23960351.02063
  17558261.949   -27983096.920 7 -21595896.74022
 92  5  5  3 55 59.9880000  0  5G 3G17G24G20G16
  19087310.137   -16224458.931 6 -12559898.10321
  19710712.106    -7524547.827 5  -5550212.96821
  19217714.6844   -9080391.03046  -6989874.56261
  16967805.0824  -31188420.95347 -23974262.38463
  17555176.0514  -27999309.67347 -21608530.04262
 92  5  5  3 56 14.9880000  0  5G 3G17G24G20G16
  19077596.7704  -16275522.26146 -12599687.68061
  19699053.3874   -7585782.17745  -5597928.01661
  19220937.8094   -9063473.13246  -6976691.78761
  16964437.1604  -31206116.40447 -23988051.04363
  17552120.8174  -28015362.47547 -21621038.70762
 92  5  5  3 56 29.9880000  0  5G 3G17G24G20G16
  19067874.168   -16326585.278 6 -12639477.02021
  19687418.973    -7646966.250 5  -5645603.86721
  19224158.8404   -9046542.16046  -6963498.81561
  16961098.5674  -31223663.57947 -24001724.16763
  17549093.8244  -28031266.90447 -21633431.76062
 92  5  5  3 56 44.9880000  0  5G 3G17G24G20G16
  19058160.1604  -16377640.72146 -12679260.44461
  19675788.129    -7708091.391 5  -5693233.79721
  19227380.3564   -9029595.13446  -6950293.33561
  16957789.9104  -31241055.32147 -24015276.17563
  17546096.0984  -28047017.35347 -21645704.82462
 92  5  5  3 56 59.9880000  0  5G 3G17G24G20G16
  19048447.3794  -16428690.98446 -12719039.84361
  19664162.738    -7769158.605 5  -5740818.59921
  19230609.684    -9012637.058 6  -6937079.25721
  16954511.4344  -31258293.61447 -24028708.61163
  17543126.9494  -28062616.05347 -21657859.64762
 92  5  5  3 57 14.9880000  0  5G 3G17G24G20G16
  19038734.996   -16479733.917 6 -12758813.52921
  19652557.5514   -7830168.64645  -5788358.83461
  19233838.0824   -8995666.33646  -6923855.31761
  16951260.6764  -31275376.88647 -24042020.25163
  17540186.8874  -28078060.91747 -21669894.59862
 92  5  5  3 57 29.9880000  0  5G 3G17G24G20G16
  19029022.3324  -16530780.34346 -12798589.92961
  19640951.692    -7891136.757 5  -5835866.40821
  19237070.4574   -8978692.96746  -6910629.31561
  16948036.5124  -31292315.81947 -24055219.41463
  17537273.5044  -28093364.91647 -21681819.78162
 92  5  5  3 57 44.9880000  0  5G 3G17G24G20G16
  19019305.5904  -16581825.96246 -12838365.69961
  19629359.559    -7952056.798 5  -5883336.52121
  19240300.8484   -8961710.70646  -6897396.38261
  16944842.7464  -31309106.20847 -24068302.83263
  17534389.0514  -28108523.72147 -21693631.82662
 92  5  5  3 57 59.9880000  0  5G 3G17G24G20G16
  19009595.6294  -16632863.29446 -12878135.02061
  19617778.699    -8012919.797 5  -5930762.18921
  19243534.0744   -8944712.10946  -6884150.72661
  16941677.6524  -31325740.69447 -24081264.75863
  17531532.590   -28123533.373 7 -21705327.64922
 92  5  5  3 58 14.9880000  0  5G 3G17G24G20G16
  18999883.9264  -16683898.91946 -12917903.00761
  19606203.5744   -8073731.30845  -5978147.72561
  19246771.4884   -8927702.54446  -6870896.52861
  16938539.8094  -31342225.74347 -24094110.24963
  17528703.2154  -28138405.48647 -21716916.29762
 92  5  5  3 58 29.9880000  0  5G 3G17G24G20G16
  18990170.0904  -16734932.02746 -12957669.03061
  19594635.3794   -8134491.57345  -6025493.34361
  19250013.1454   -8910677.12246  -6857629.96361
  16935431.9104  -31358560.72647 -24106838.79863
  17525899.2854  -28153140.68747 -21728398.26162
 92  5  5  3 58 44.9880000  0  5G 3G17G24G20G16
  18980461.7384  -16785958.95446 -12997430.23261
  19583089.2314   -8195196.63945  -6072795.95461
  19253255.8094   -8893634.35646  -6844349.88561
  16932351.6214  -31374741.80347 -24119447.42363
  17523122.6134  -28167732.44547 -21739768.45162
 92  5  5  3 58 59.9880000  0  5G 3G17G24G20G16
  18970752.3404  -16836981.19046 -13037187.78961
  19571551.6684   -8255848.76045  -6120057.30861
  19256501.9734   -8876574.94846  -6831056.83961
  16929300.9654  -31390770.82147 -24131937.55563
  17520373.793   -28182179.645 7 -21751026.00022
 92  5  5  3 59 14.9870000  0  5G 3G17G24G20G16
  18961041.6634  -16887994.95046 -13076938.74461
  19560020.2024   -8316444.36945  -6167274.61461
  19259749.3044   -8859500.01246  -6817751.69461
  16926279.6014  -31406646.34947 -24144308.09263
  17517653.8824  -28196480.23047 -21762169.30162
 92  5  5  3 59 29.9870000  0  5G 3G17G24G20G16
  18951337.3514  -16939008.89246 -13116689.82161
  19548493.312    -8376994.522 5  -6214456.52121
  19263002.2104   -8842409.12246  -6804434.11261
  16923286.2884  -31422372.35647 -24156562.12163
  17514959.7964  -28210637.84147 -21773201.19862
 92  5  5  3 59 44.9870000  0  5G 3G17G24G20G16
  18941629.4214  -16990018.23346 -13156437.32361
  19536987.6944   -8437490.63045  -6261596.30861
  19266257.5694   -8825300.38846  -6791102.61961
  16920321.6324  -31437946.50147 -24168697.81263
  17512292.4764  -28224651.78147 -21784121.14263
 92  5  5  3 59 59.9870000  0  5G 3G17G24G20G16
  18931920.0464  -17041023.12046 -13196181.36061
  19525479.804    -8497929.055 5  -6308691.14721
  19269515.9134   -8808175.05046  -6777758.20061
  16917386.2494  -31453368.77547 -24180715.16763
  17509653.523   -28238519.173 7 -21794926.89022
 92  5  5  4  0 14.9870000  0  5G 3G17G24G20G16
  18922216.9444  -17092025.99446 -13235923.81961
  19513993.640    -8558312.636 5  -6355743.23021
  19272779.2884   -8791038.70446  -6764405.19761
  16914480.8434  -31468641.90447 -24192616.30063
  17507042.4134  -28252242.34147 -21805620.26162
 92  5  5  4  0 29.9870000  0  5G 3G17G24G20G16
  18912511.679   -17143022.063 6 -13275660.99021
  19502512.046    -8618638.160 5  -6402750.09121
  19276041.8824   -8773887.64346  -6751040.73461
  16911603.8044  -31483761.12547 -24204397.51063
  17504460.304   -28265811.603 7 -21816193.69822
 92  5  5  4  0 44.9870000  0  5G 3G17G24G20G16
  18902809.046   -17194013.850 6 -13315394.80721
  19491049.616    -8678907.435 5  -6449713.10721
  19279310.2964   -8756726.32746  -6737668.27861
  16908755.0694  -31498728.95247 -24216060.74663
  17501907.2574  -28279228.16847 -21826648.15662
 92  5  5  4  0 59.9870000  0  5G 3G17G24G20G16
  18893110.507   -17244994.335 6 -13355119.83021
  19479586.569    -8739113.651 5  -6496627.00221
  19282574.4764   -8739551.51046  -6724285.30261
  16905937.5074  -31513538.79447 -24227600.87563
  17499384.1714  -28292488.59847 -21836980.94662
 92  5  5  4  1 14.9870000  0  5G 3G17G24G20G16
  18883406.5544  -17295973.67846 -13394843.95761
  19468140.921    -8799265.876 5  -6543498.83421
  19285843.8194   -8722372.02146  -6710898.68961
  16903147.5624  -31528200.74647 -24239025.76763
  17496887.9374  -28305606.10947 -21847202.37762
 92  5  5  4  1 29.9870000  0  5G 3G17G24G20G16
  18873707.0694  -17346949.40146 -13434565.26461
  19456705.312    -8859359.425 5  -6590324.90121
  19289114.5384   -8705184.13146  -6697505.51961
  16900385.4134  -31542712.29547 -24250333.46663
  17494420.1794  -28318580.54447 -21857312.31763
 92  5  5  4  1 44.9870000  0  5G 3G17G24G20G16
  18864009.1484  -17397919.13646 -13474281.90261
  19445284.694    -8919391.596 5  -6637103.19421
  19292390.4844   -8687982.18046  -6684101.40161
  16897653.4444  -31557071.28747 -24261522.28863
  17491976.6634  -28331409.96347 -21867309.25563
 92  5  5  4  1 59.9870000  0  5G 3G17G24G20G16
  18854312.6794  -17448882.23446 -13513993.37861
  19433866.132    -8979359.743 5  -6683831.55621
  19295665.4374   -8670766.95146  -6670686.92561
  16894949.7884  -31571277.08147 -24272591.74063
  17489563.538   -28344093.474 7 -21877192.50523
 92  5  5  4  2 14.9870000  0  5G 3G17G24G20G16
  18844615.1014  -17499842.42846 -13553702.57961
  19422472.952    -9039269.440 5  -6730514.40021
  19298943.8824   -8653542.38846  -6657265.18161
  16892276.7494  -31585333.56747 -24283544.84863
  17487176.8434  -28356636.25947 -21886966.09463
 92  5  5  4  2 29.9870000  0  5G 3G17G24G20G16
  18834918.2494  -17550798.87746 -13593408.86061
  19411078.9844   -9099121.39345  -6777152.24061
  19302222.2804   -8636307.03046  -6643835.02461
  16889628.8194  -31599239.94847 -24294380.99163
  17484815.9374  -28369038.41447 -21896630.10463
 92  5  5  4  2 44.9870000  0  5G 3G17G24G20G16
  18825222.2024  -17601745.00946 -13633107.11861
  19399703.390    -9158907.272 5  -6823738.59021
  19305507.1014   -8619052.70246  -6630390.09161
  16887012.5154  -31612989.58147 -24305094.98863
  17482485.3664  -28381293.13447 -21906179.23063
 92  5  5  4  2 59.9870000  0  5G 3G17G24G20G16
  18815527.2964  -17652685.03546 -13672800.61361
  19388336.2654   -9218630.68945  -6870276.27461
  19308788.5234   -8601785.72646  -6616935.29861
  16884427.3124  -31626587.20647 -24315690.54063
  17480177.843   -28393408.218 7 -21915619.54423
 92  5  5  4  3 14.9870000  0  5G 3G17G24G20G16
  18805832.9444  -17703619.17246 -13712489.51361
  19376983.3274   -9278293.21745  -6916766.51561
  19312078.3664   -8584505.87846  -6603470.47861
  16881868.1014  -31640032.97347 -24326167.75863
  17477898.452   -28405383.163 7 -21924950.66122
 92  5  5  4  3 29.9870000  0  5G 3G17G24G20G16
  18796144.5234  -17754554.42046 -13752179.28361
  19365640.093    -9337900.909 5  -6963214.00621
  19315371.7024   -8567219.24346  -6590000.37661
  16879338.5384  -31653333.76047 -24336532.00963
  17475643.8824  -28417223.31347 -21934176.74262
 92  5  5  4  3 44.9870000  0  5G 3G17G24G20G16
  18786451.6014  -17805477.41746 -13791859.51561
  19354316.1014   -9397442.96145  -7009610.36261
  19318660.9604   -8549914.02046  -6576515.78461
  16876837.3744  -31666476.60647 -24346773.18563
  17473421.3354  -28428912.83247 -21943285.45563
 92  5  5  4  3 59.9870000  0  5G 3G17G24G20G16
  18776766.4844  -17856390.06746 -13831531.67061
  19342993.866    -9456922.428 5  -7055957.95721
  19321960.9604   -8532594.47346  -6563020.03661
  16874367.2884  -31679463.28147 -24356892.67263
  17471224.1484  -28440453.58647 -21952278.24363
 92  5  5  4  4 14.9870000  0  5G 3G17G24G20G16
  18767080.3194  -17907293.04946 -13871196.30161
  19331680.2494   -9516340.70645  -7102257.86561
  19325257.0544   -8515263.05846  -6549515.03061
  16871923.9214  -31692294.74947 -24366891.21663
  17469057.2654  -28451846.81547 -21961156.07863
 92  5  5  4  4 29.9870000  0  5G 3G17G24G20G16
  18757394.1484  -17958192.84846 -13910858.45161
  19320385.7804   -9575705.97745  -7148516.46461
  19328557.7184   -8497926.40446  -6536005.95061
  16869509.7264  -31704977.42647 -24376773.81463
  17466917.2414  -28463098.41247 -21969923.54863
 92  5  5  4  4 44.9870000  0  5G 3G17G24G20G16
  18747708.1164  -18009086.74946 -13950516.00461
  19309101.585    -9635015.960 5  -7194731.98521
  19331854.7574   -8480582.67846  -6522491.35861
  16867126.0304  -31717509.03247 -24386538.70163
  17464805.3514  -28474205.49147 -21978578.40862
 92  5  5  4  4 59.9870000  0  5G 3G17G24G20G16
  18738022.8594  -18059973.57046 -13990168.04361
  19297826.804    -9694270.469 5  -7240904.28621
  19335157.1794   -8463229.07346  -6508969.05961
  16864766.8744  -31729888.08247 -24396184.71163
  17462719.1404  -28485168.59847 -21987121.08463
 92  5  5  4  5 14.9870000  0  5G 3G17G24G20G16
  18728339.429   -18110853.986 6 -14029815.09621
  19286561.882    -9753471.442 5  -7287034.86421
  19338461.0304   -8445866.11246  -6495439.48161
  16862439.5694  -31742115.56147 -24405712.61763
  17460661.5694  -28495988.72547 -21995552.34663
 92  5  5  4  5 29.9870000  0  5G 3G17G24G20G16
  18718660.2264  -18161733.45046 -14069461.39861
  19275301.890    -9812624.699 5  -7333128.27221
  19341768.9134   -8428497.72246  -6481905.67361
  16860140.5234  -31754197.12147 -24415126.82363
  17458629.1014  -28506668.57947 -22003874.30663
 92  5  5  4  5 44.9870000  0  5G 3G17G24G20G16
  18708976.6404  -18212600.25646 -14109097.84061
  19264063.523    -9871717.689 6  -7379174.69921
  19345077.8594   -8411111.98846  -6468358.35661
  16857871.5234  -31766121.12047 -24424418.24863
  17456625.0624  -28517194.18547 -22012076.07063
 92  5  5  4  5 59.9870000  0  5G 3G17G24G20G16
  18699301.546   -18263459.637 6 -14148728.49321
  19252821.2024   -9930756.40645  -7425178.85861
  19348386.1944   -8393712.92746  -6454800.64161
  16855631.2104  -31777892.85047 -24433591.03063
  17454649.4684  -28527569.29247 -22020160.56263
 92  5  5  4  6 14.9870000  0  5G 3G17G24G20G16
  18689623.655   -18314312.089 6 -14188353.76121
  19241601.710    -9989740.261 6  -7471140.25021
  19351703.5544   -8376300.55446  -6441232.56161
  16853422.8904  -31789512.99147 -24442645.68663
  17452702.7574  -28537794.20947 -22028128.02663
 92  5  5  4  6 29.9870000  0  5G 3G17G24G20G16
  18679948.593   -18365157.235 6 -14227973.32721
  19230385.0774  -10048668.25045  -7517058.12161
  19355012.8274   -8358874.67246  -6427653.94161
  16851241.5544  -31800981.68647 -24451582.33463
  17450785.2494  -28547869.33047 -22035978.76163
 92  5  5  4  6 44.9870000  0  5G 3G17G24G20G16
  18670272.2884  -18415998.67446 -14267590.01161
  19219184.015   -10107543.274 5  -7562934.72021
  19358336.1324   -8341438.63746  -6414067.42161
  16849087.2184  -31812302.09847 -24460403.43763
  17448894.8904  -28557799.21847 -22043716.33263
 92  5  5  4  6 59.9870000  0  5G 3G17G24G20G16
  18660601.819   -18466832.910 6 -14307201.07621
  19207988.9764  -10166360.95945  -7608766.64161
  19361654.0304   -8323988.12746  -6400469.61261
  16846962.3824  -31823471.17447 -24469106.61263
  17447034.0934  -28567580.16047 -22051337.83563
 92  5  5  4  7 14.9870000  0  5G 3G17G24G20G16
  18650929.015   -18517646.971 6 -14346796.42421
  19196809.038   -10225107.777 5  -7654543.33821
  19364981.1404   -8306512.34446  -6386852.11261
  16844866.5544  -31834476.02447 -24477681.81763
  17445204.5234  -28577199.10347 -22058833.10963
 92  5  5  4  7 29.9870000  0  5G 3G17G24G20G16
  18641263.655   -18568455.198 6 -14386387.22521
  19185646.1794  -10283797.62346  -7700275.65261
  19368305.8194   -8289026.69946  -6373226.93761
  16842800.1874  -31845331.06347 -24486140.29063
  17443404.6324  -28586668.56347 -22066211.90163
 92  5  5  4  7 44.9870000  0  5G 3G17G24G20G16
  18631595.4994  -18619255.94146 -14425972.19561
  19174483.523   -10342426.278 5  -7745960.26621
  19371639.9604   -8271529.19546  -6359592.51661
  16840761.5774  -31856034.76647 -24494480.83863
  17441630.8904  -28595989.50647 -22073474.96963
 92  5  5  4  7 59.9870000  0  5G 3G17G24G20G16
  18621927.7344  -18670050.42446 -14465552.28061
  19163341.687   -10400994.373 6  -7791597.70121
  19374971.4914   -8254019.93346  -6345948.93261
  16838752.1014  -31866588.64447 -24502704.63863
  17439886.2654  -28605167.32647 -22080626.51063
 92  5  5  4  8 14.9870000  0  5G 3G17G24G20G16
  18612264.819   -18720835.545 6 -14505125.08321
  19152205.663   -10459500.840 5  -7837187.11221
  19378304.7574   -8236497.19746  -6332294.85461
  16836774.0544  -31876989.67647 -24510809.34263
  17438165.6244  -28614202.54047 -22087666.93063
 92  5  5  4  8 29.9870000  0  5G 3G17G24G20G16
  18602599.3664  -18771612.84346 -14544691.78161
  19141087.054   -10517946.514 5  -7882729.14921
  19381641.5464   -8218965.16846  -6318633.53761
  16834824.4054  -31887239.16647 -24518795.96063
  17436470.1484  -28623098.33847 -22094598.71263
 92  5  5  4  8 44.9870000  0  5G 3G17G24G20G16
  18592942.062   -18822378.052 6 -14584249.06821
  19129974.609   -10576327.896 6  -7928221.09121
  19384978.2414   -8201421.44946  -6304963.09361
  16832906.0934  -31897333.76347 -24526661.88363
  17434803.7264  -28631853.31647 -22101420.76663
 92  5  5  4  8 59.9870000  0  5G 3G17G24G20G16
  18583278.7734  -18873140.96246 -14623804.55761
  19118875.2264  -10634653.62645  -7973669.67661
  19388315.3904   -8183875.91646  -6291291.25061
  16831014.8594  -31907283.07247 -24534414.59163
  17433162.1014  -28640475.56747 -22108139.39663
 92  5  5  4  9 14.9870000  0  5G 3G17G24G20G16
  18573626.398   -18923896.682 6 -14663354.43321
  19107791.7574  -10692916.78646  -8019069.50261
  19391656.9684   -8166325.23046  -6277615.38061
  16829148.2654  -31917082.17047 -24542050.25763
  17431548.3274  -28648959.20047 -22114750.01163
 92  5  5  4  9 29.9870000  0  5G 3G17G24G20G16
  18563965.851   -18974646.793 6 -14702899.96121
  19096713.1244  -10751118.10946  -8064421.13761
  19394998.1944   -8148771.14546  -6263936.87561
  16827308.7414  -31926732.99247 -24549570.37363
  17429961.1634  -28657307.00847 -22121254.79063
 92  5  5  4  9 44.9870000  0  5G 3G17G24G20G16
  18554310.2494  -19025385.05546 -14742436.24261
  19085652.8984  -10809251.77046  -8109720.05361
  19398339.1244   -8131207.59146  -6250250.98661
  16825501.1714  -31936229.52147 -24556970.26163
  17428401.2344  -28665513.98747 -22127649.82963
 92  5  5  4  9 59.9870000  0  5G 3G17G24G20G16
  18544658.5934  -19076119.41246 -14781969.47961
  19074598.9604  -10867327.32446  -8154973.69961
  19401680.210    -8113642.373 6  -6236563.79021
  16823722.2104  -31945579.61447 -24564256.04763
  17426865.6404  -28673586.66247 -22133940.22063
 92  5  5  4 10 14.9870000  0  5G 3G17G24G20G16
  18535006.390   -19126840.566 6 -14821492.43421
  19063564.609   -10925336.826 6  -8200175.85821
  19405025.210    -8096069.848 6  -6222870.89621
  16821974.3124  -31954774.37147 -24571420.79063
  17425354.2884  -28681512.75847 -22140116.38863
 92  5  5  4 10 29.9870000  0  5G 3G17G24G20G16
  18525351.7024  -19177554.61446 -14861009.83461
  19052535.0384  -10983286.05046  -8245331.06361
  19408370.8274   -8078498.86346  -6209179.22061
  16820254.9444  -31963820.02647 -24578469.35363
  17423870.4844  -28689298.65547 -22146183.31663
 92  5  5  4 10 44.9870000  0  5G 3G17G24G20G16
  18515704.202   -19228265.172 6 -14900524.53121
  19041518.054   -11041176.856 6  -8290440.74821
  19411710.6634   -8060930.90046  -6195489.89761
  16818559.2344  -31972720.25347 -24585404.59263
  17422416.9914  -28696945.94447 -22152142.23363
 92  5  5  4 10 59.9870000  0  5G 3G17G24G20G16
  18506053.296   -19278964.576 6 -14940030.53421
  19030515.5694  -11099001.15946  -8335498.60861
  19415054.4844   -8043355.63446  -6181794.89361
  16816894.0544  -31981467.80647 -24592220.86563
  17420992.7104  -28704446.17047 -22157986.55763
 92  5  5  4 11 14.9870000  0  5G 3G17G24G20G16
  18496409.5464  -19329658.68446 -14979532.40361
  19019519.624   -11156765.856 6  -8380510.02021
  19418401.5384   -8025776.36246  -6168096.75661
  16815255.7734  -31990068.52847 -24598922.72963
  17419592.6554  -28711803.10347 -22163719.22463
 92  5  5  4 11 29.9870000  0  5G 3G17G24G20G16
  18486764.3824  -19380341.02846 -15019025.11361
  19008545.8354  -11214467.83546  -8425472.56661
  19421749.6094   -8008187.62546  -6154391.25861
  16813648.8984  -31998516.24547 -24605505.36563
  17418219.7884  -28719009.41547 -22169334.52963
 92  5  5  4 11 44.9870000  0  5G 3G17G24G20G16
  18477124.140   -19431015.811 6 -15058511.92921
  18997573.538   -11272113.461 6  -8470391.19321
  19425097.648    -7990591.001 6  -6140679.58721
  16812072.5694  -32006815.37047 -24611972.21663
  17416873.5154  -28726070.15547 -22174836.39563
 92  5  5  4 11 59.9870000  0  5G 3G17G24G20G16
  18467481.8984  -19481685.42046 -15097994.71961
  18986612.335   -11329705.685 6  -8515268.21121
  19428449.2654   -7972987.61946  -6126962.66561
  16810521.6014  -32014968.32847 -24618325.16963
  17415557.3354  -28732988.66147 -22180227.43263
 92  5  5  4 12 14.9870000  0  5G 3G17G24G20G16
  18457841.187   -19532344.944 6 -15137469.64221
  18975664.6404  -11387237.31146  -8560098.00661
  19431800.0854   -7955372.57546  -6113236.64261
  16808995.9684  -32022970.18247 -24624560.37863
  17414272.5154  -28739761.49747 -22185504.95863
 92  5  5  4 12 29.9870000  0  5G 3G17G24G20G16
  18448204.499   -19582993.646 6 -15176936.13621
  18964728.9444  -11444707.45346  -8604879.89661
  19435152.9214   -7937745.72546  -6099501.42961
  16807500.4374  -32030820.58347 -24630677.57263
  17413010.3824  -28746391.30747 -22190671.03763
 92  5  5  4 12 44.9870000  0  5G 3G17G24G20G16
  18438559.7264  -19633636.63546 -15216398.17661
  18953803.304   -11502120.384 6  -8649617.20321
  19438509.4054   -7920108.28146  -6085757.96261
  16806036.4684  -32038524.76247 -24636680.82963
  17411773.7884  -28752880.78747 -22195727.76763
 92  5  5  4 12 59.9870000  0  5G 3G17G24G20G16
  18428924.046   -19684274.342 6 -15255856.10821
  18942888.437   -11559475.961 6  -8694309.82321
  19441869.788    -7902458.843 6  -6072005.16321
  16804600.9294  -32046083.40847 -24642570.67563
  17410563.8354  -28759229.45747 -22200674.78163
 92  5  5  4 13 14.9870000  0  5G 3G17G24G20G16
  18419294.4604  -19734902.47946 -15295306.57461
  18931984.890   -11616771.891 6  -8738955.96321
  19445228.9994   -7884793.92446  -6058240.29661
  16803189.0074  -32053492.67247 -24648344.12063
  17409384.3744  -28765436.44047 -22205511.38163
 92  5  5  4 13 29.9870000  0  5G 3G17G24G20G16
  18409663.5694  -19785522.38246 -15334750.62861
  18921093.3664  -11674009.47546  -8783556.64161
  19448596.9294   -7867117.98446  -6044466.83861
  16801803.8744  -32060753.78847 -24654002.12863
  17408231.5934  -28771503.89547 -22210239.25563
 92  5  5  4 13 44.9870000  0  5G 3G17G24G20G16
  18400030.523   -19836134.002 6 -15374188.23121
  18910215.101   -11731187.923 6  -8828111.22721
  19451963.6634   -7849430.34146  -6030684.25461
  16800450.8124  -32067866.88947 -24659544.79963
  17407102.3194  -28777435.91047 -22214861.60363
 92  5  5  4 13 59.9870000  0  5G 3G17G24G20G16
  18390401.5384  -19886739.24146 -15413620.85661
  18899344.538   -11788307.822 6  -8872620.20021
  19455328.9524   -7831733.03946  -6016894.15261
  16799128.2654  -32074834.38347 -24664974.01663
  17405994.6634  -28783235.81447 -22219381.00463
 92  5  5  4 14 14.9870000  0  5G 3G17G24G20G16
  18380771.069   -19937338.149 6 -15453048.55321
  18888485.429   -11845368.573 6  -8917083.08121
  19458698.7654   -7814031.23346  -6003100.53361
  16797829.6244  -32081656.37747 -24670289.85763
  17404918.9524  -28788902.83247 -22223796.85863
 92  5  5  4 14 29.9870000  0  5G 3G17G24G20G16
  18371149.7494  -19987926.47946 -15492467.99661
  18877638.4444  -11902367.31946  -8961497.65661
  19462067.1944   -7796323.01546  -5989301.91061
  16796557.5074  -32088328.79247 -24675489.14463
  17403868.8044  -28794430.27147 -22228103.94663
 92  5  5  4 14 44.9870000  0  5G 3G17G24G20G16
  18361523.116   -20038503.930 6 -15531878.97721
  18866802.577   -11959304.906 6  -9005864.55921
  19465438.929    -7778607.583 6  -5975497.68621
  16795317.2494  -32094851.67047 -24680571.90763
  17402843.6404  -28799816.58247 -22232301.06763
 92  5  5  4 14 59.9870000  0  5G 3G17G24G20G16
  18351898.288   -20089073.185 7 -15571283.57021
  18855977.7574  -12016183.84846  -9050185.77861
  19468809.4844   -7760888.58846  -5961690.66561
  16794106.8594  -32101227.94447 -24685540.42863
  17401841.4524  -28805067.71547 -22236392.85363
 92  5  5  4 15 14.9870000  0  5G 3G17G24G20G16
  18342276.0624  -20139633.70446 -15610681.35061
  18845170.9374  -12073005.87246  -9094462.65161
  19472182.2734   -7743167.42346  -5947881.96461
  16792920.5304  -32107456.93847 -24690394.19563
  17400867.8274  -28810187.41847 -22240382.22663
 92  5  5  4 15 29.9870000  0  5G 3G17G24G20G16
  18332657.382   -20190184.443 6 -15650071.51421
  18834363.4914  -12129769.89446  -9138694.32061
  19475552.351    -7725448.727 6  -5934075.18521
  16791760.4134  -32113537.98647 -24695132.66963
  17399921.3904  -28815173.76347 -22244267.68363
 92  5  5  4 15 44.9870000  0  5G 3G17G24G20G16
  18323040.085   -20240726.197 6 -15689454.68321
  18823576.452   -12186475.593 6  -9182880.53721
  19478923.6244   -7707733.96246  -5920271.46961
  16790634.2344  -32119472.24647 -24699756.77163
  17398995.3274  -28820025.63347 -22248048.35963
 92  5  5  4 15 59.9870000  0  5G 3G17G24G20G16
  18313425.546   -20291262.696 6 -15728833.75121
  18812793.5774  -12243124.69046  -9227022.65661
  19482294.7734   -7690025.52646  -5906472.68561
  16789532.9604  -32125263.66447 -24704269.56463
  17398096.4134  -28824747.92147 -22251728.05663
 92  5  5  4 16 14.9870000  0  5G 3G17G24G20G16
  18303805.202   -20341787.474 6 -15768203.69521
  18802025.6484  -12299708.70846  -9271114.05161
  19485664.898    -7672319.281 6  -5892675.60121
  16788456.9524  -32130905.81747 -24708666.04763
  17397226.4374  -28829333.24847 -22255301.03363
 92  5  5  4 16 29.9870000  0  5G 3G17G24G20G16
  18294196.0934  -20392296.97246 -15807561.71261
  18791270.3904  -12356223.90146  -9315151.83361
  19489031.2964   -7654609.46446  -5878875.74361
  16787410.9444  -32136395.42547 -24712943.66163
  17396379.4914  -28833778.06747 -22258764.52463
 92  5  5  4 16 44.9870000  0  5G 3G17G24G20G16
  18284586.773   -20442802.980 6 -15846917.03121
  18780530.4294  -12412683.33246  -9359146.15961
  19492402.179    -7636904.605 6  -5865079.73821
  16786395.8824  -32141744.60747 -24717111.85563
  17395556.6164  -28838096.14847 -22262129.26163
 92  5  5  4 16 59.9870000  0  5G 3G17G24G20G16
  18274973.171   -20493305.149 6 -15886269.34721
  18769794.0234  -12469085.28946  -9403095.69961
  19495773.4134   -7619203.10646  -5851286.37261
  16785402.1944  -32146952.95647 -24721170.30763
  17394762.1874  -28842289.80347 -22265397.04363
 92  5  5  4 17 14.9870000  0  5G 3G17G24G20G16
  18265371.6484  -20543797.58747 -15925614.07061
  18759071.2264  -12525425.53946  -9446997.15861
  19499141.8274   -7601498.90546  -5837490.89061
  16784441.7654  -32152015.27747 -24725114.97563
  17393985.9844  -28846351.81647 -22268562.24263
 92  5  5  4 17 29.9870000  0  5G 3G17G24G20G16
  18255762.390   -20594281.012 6 -15964951.79021
  18748364.2184  -12581704.97646  -9490851.22861
  19502512.7494   -7583792.93846  -5823694.02661
  16783507.1484  -32156932.28047 -24728946.40463
  17393238.0854  -28850276.89447 -22271620.74063
 92  5  5  4 17 44.9870000  0  5G 3G17G24G20G16
  18246146.6794  -20644760.70646 -16004286.60761
  18737667.296   -12637928.250 6  -9534661.53821
  19505880.8274   -7566086.71746  -5809896.98261
  16782594.0304  -32161709.44547 -24732668.86763
  17392520.0544  -28854068.62647 -22274575.33863
 92  5  5  4 17 59.9860000  0  5G 3G17G24G20G16
  18236551.666   -20695227.088 6 -16043611.02521
  18726981.846   -12694086.686 6  -9578421.31721
  19509250.1824   -7548371.44446  -5796092.88061
  16781715.5334  -32166340.47247 -24736277.46163
  17391821.2364  -28857722.64247 -22277422.61763
 92  5  5  4 18 14.9860000  0  5G 3G17G24G20G16
  18226950.502   -20745686.420 7 -16082929.97021
  18716302.0184  -12750188.79546  -9622137.21761
  19512620.7054   -7530644.83446  -5782279.93861
  16780861.4794  -32170825.92347 -24739772.61763
  17391152.6584  -28861239.23547 -22280162.81463
 92  5  5  4 18 29.9860000  0  5G 3G17G24G20G16
  18217349.838   -20796137.360 6 -16122242.36621
  18705639.6824  -12806236.42246  -9665810.66061
  19515996.8544   -7512910.67046  -5768461.10761
  16780032.2764  -32175167.69147 -24743155.81763
  17390513.9084  -28864617.74247 -22282795.41463
 92  5  5  4 18 44.9860000  0  5G 3G17G24G20G16
  18207753.3074  -20846576.98447 -16161545.93461
  18694983.0724  -12862230.88746  -9709442.68061
  19519374.276    -7495165.443 6  -5754633.64421
  16779237.6664  -32179363.00747 -24746424.89663
  17389893.1434  -28867853.71547 -22285316.94763
 92  5  5  4 18 59.9860000  0  5G 3G17G24G20G16
  18198150.744   -20897010.388 6 -16200844.68021
  18684334.6744  -12918177.41546  -9753037.34961
  19522753.213    -7477415.636 6  -5740802.61221
  16778463.1744  -32183417.33647 -24749584.11363
  17389306.2764  -28870952.65147 -22287731.69863
 92  5  5  4 19 14.9860000  0  5G 3G17G24G20G16
  18188550.338   -20947428.998 6 -16240131.88421
  18673701.6584  -12974065.36146  -9796586.36361
  19526135.8154   -7459654.34146  -5726962.63861
  16777720.4014  -32187322.28247 -24752626.93163
  17388745.4794  -28873903.31347 -22290030.91263
 92  5  5  4 19 29.9860000  0  5G 3G17G24G20G16
  18178962.151   -20997839.771 6 -16279412.97621
  18663076.1744  -13029900.58546  -9840094.30161
  19529515.0494   -7441889.55146  -5713119.94661
  16777007.8304  -32191085.14147 -24755559.03363
  17388208.0264  -28876711.19747 -22292218.86463
 92  5  5  4 19 44.9860000  0  5G 3G17G24G20G16
  18169376.8544  -21048236.28346 -16318682.94961
  18652465.5104  -13085675.68646  -9883555.39061
  19532897.127    -7424115.059 6  -5699269.69621
  16776316.0494  -32194699.57047 -24758375.47063
  17387705.2134  -28879373.76547 -22294293.58863
 92  5  5  4 19 59.9860000  0  5G 3G17G24G20G16
  18159781.705   -21098623.651 6 -16357945.81421
  18641860.1974  -13141395.55346  -9926973.43461
  19536273.2054   -7406337.28046  -5685416.89561
  16775659.2684  -32198171.07147 -24761080.54063
  17387220.5104  -28881899.67747 -22296261.82663
 92  5  5  4 20 14.9860000  0  5G 3G17G24G20G16
  18150198.658   -21149001.681 6 -16397201.40421
  18631264.0184  -13197060.02246  -9970348.32361
  19539663.7764   -7388559.05346  -5671563.73861
  16775024.0104  -32201499.59547 -24763674.19663
  17386768.4324  -28884288.46047 -22298123.20763
 92  5  5  4 20 29.9860000  0  5G 3G17G24G20G16
  18140618.486   -21199367.403 7 -16436447.40121
  18620684.4084  -13252666.03846 -10013677.65661
  19543042.0414   -7370777.30846  -5657707.83661
  16774415.5574  -32204682.64947 -24766154.49963
  17386340.6744  -28886535.83947 -22299874.40563
 92  5  5  4 20 44.9860000  0  5G 3G17G24G20G16
  18131036.2684  -21249719.88047 -16475683.07361
  18610112.6434  -13308213.17046 -10056961.10761
  19546430.065    -7352990.567 6  -5643848.01921
  16773841.6434  -32207719.21647 -24768520.65363
  17385938.1114  -28888640.93947 -22301514.73663
 92  5  5  4 20 59.9860000  0  5G 3G17G24G20G16
  18121451.651   -21300063.154 6 -16514911.58421
  18599556.5574  -13363701.87846 -10100199.03561
  19549812.4634   -7335202.44646  -5629987.15161
  16773285.6974  -32210613.81147 -24770776.18263
  17385567.7604  -28890611.51047 -22303050.24163
 92  5  5  4 21 14.9860000  0  5G 3G17G24G20G16
  18111872.190   -21350391.339 6 -16554128.32321
  18589007.6664  -13419123.85746 -10143384.96361
  19553199.0964   -7317407.40746  -5616120.88361
  16772767.0414  -32213360.86547 -24772916.74563
  17385215.3304  -28892443.20747 -22304477.53363
 92  5  5  4 21 29.9860000  0  5G 3G17G24G20G16
  18102302.408   -21400713.363 7 -16593340.26321
  18578475.3154  -13474489.57446 -10186527.05261
  19556589.8774   -7299614.05846  -5602255.93361
  16772270.0494  -32215969.65447 -24774949.56563
  17384891.8934  -28894144.98747 -22305803.59063
 92  5  5  4 21 44.9860000  0  5G 3G17G24G20G16
  18092728.002   -21451024.915 6 -16632544.04921
  18567947.8224  -13529798.09646 -10229624.57761
  19559969.315    -7281818.616 6  -5588389.35221
  16771800.2604  -32218435.98447 -24776871.37963
  17384594.4864  -28895715.95947 -22307027.71663
 92  5  5  4 21 59.9860000  0  5G 3G17G24G20G16
  18083159.752   -21501326.792 7 -16671740.30021
  18557429.111   -13585053.330 6 -10272680.58321
  19563357.8384   -7264021.86846  -5574521.75161
  16771361.1904  -32220760.92747 -24778683.02863
  17384316.9164  -28897158.54747 -22308151.80963
 92  5  5  4 22 14.9860000  0  5G 3G17G24G20G16
  18073584.455   -21551615.333 7 -16710926.14821
  18546928.0334  -13640251.57246 -10315692.17161
  19566748.2134   -7246221.24946  -5560651.13161
  16770941.2764  -32222941.26147 -24780381.99163
  17384071.1044  -28898467.38647 -22309171.67763
 92  5  5  4 22 29.9860000  0  5G 3G17G24G20G16
  18064018.377   -21601894.597 7 -16750104.77221
  18536435.3614  -13695396.08446 -10358661.89261
  19570134.971    -7228419.021 6  -5546779.25621
  16770558.4164  -32224981.34547 -24781971.66963
  17383842.7134  -28899645.55047 -22310089.72363
 92  5  5  4 22 44.9860000  0  5G 3G17G24G20G16
  18054451.221   -21652160.755 6 -16789273.18421
  18525958.9404  -13750482.57546 -10401586.40961
  19573520.424    -7210613.018 6  -5532904.44321
  16770193.2214  -32226877.25647 -24783449.00463
  17383648.6514  -28900691.79147 -22310904.97263
 92  5  5  4 22 59.9860000  0  5G 3G17G24G20G16
  18044888.916   -21702414.201 6 -16828431.68921
  18515481.7214  -13805511.00446 -10444465.67761
  19576916.4794   -7192805.84646  -5519028.72061
  16769862.3384  -32228629.97447 -24784814.75963
  17383469.4164  -28901609.02047 -22311619.68963
 92  5  5  4 23 14.9860000  0  5G 3G17G24G20G16
  18035325.729   -21752657.264 6 -16867582.10521
  18505022.354   -13860481.490 6 -10487299.80021
  19580297.6514   -7175000.80046  -5505154.65361
  16769554.3304  -32230242.06247 -24786070.93163
  17383322.3154  -28902399.33547 -22312235.51663
 92  5  5  4 23 29.9860000  0  5G 3G17G24G20G16
  18025766.9164  -21802893.19646 -16906726.96261
  18494568.838   -13915399.144 6 -10530092.75321
  19583688.6274   -7157203.34446  -5491286.49561
  16769274.0494  -32231717.22747 -24787220.41263
  17383192.8774  -28903063.95547 -22312753.39563
 92  5  5  4 23 44.9860000  0  5G 3G17G24G20G16
  18016214.361   -21853116.486 7 -16945861.96721
  18484128.5574  -13970258.12646 -10572839.97361
  19587073.2524   -7139409.78146  -5477421.39161
  16769018.6434  -32233050.18347 -24788259.08263
  17383095.4864  -28903599.30947 -22313170.55163
 92  5  5  4 23 59.9860000  0  5G 3G17G24G20G16
  18006655.151   -21903328.510 6 -16984988.19421
  18473701.4014  -14025056.04746 -10615539.63361
  19590458.3614   -7121621.27646  -5463560.21761
  16768792.8224  -32234242.43547 -24789188.11063
  17383016.2524  -28904006.53747 -22313487.86863
 92  5  5  4 24 14.9860000  0  5G 3G17G24G20G16
  17997101.479   -21953533.908 6 -17024109.26321
  18463284.2054  -14079792.39146 -10658191.29761
  19593841.2604   -7103841.97246  -5449706.22361
  16768592.2604  -32235299.01347 -24790011.42363
  17382960.1044  -28904288.50647 -22313707.57963
 92  5  5  4 24 29.9860000  0  5G 3G17G24G20G16
  17987549.744   -22003725.734 6 -17063219.75821
  18452885.307   -14134457.711 6 -10700787.62321
  19597223.1584   -7086065.11046  -5435854.12361
  16768417.7054  -32236213.27247 -24790723.84063
  17382931.3614  -28904438.13447
 92  5  5  4 24 44.9860000  0  5G 3G17G24G20G16
  17978007.127   -22053906.888 7 -17102321.93521
  18442496.682   -14189055.762 6 -10743331.51821
  19600607.1514   -7068293.25746  -5422005.92161
  16768270.4864  -32236988.73747 -24791328.10263
  17382929.4164  -28904458.89947
 92  5  5  4 24 59.9860000  0  5G 3G17G24G20G16
  17968450.276   -22104073.872 6 -17141413.06921
  18432120.6584  -14243584.33146 -10785821.28561
  19603988.3934   -7050523.46746  -5408159.33561
  16768150.9714  -32237621.74047 -24791821.35463
  17382949.4714  -28904348.29847
 92  5  5  4 25 14.9860000  0  5G 3G17G24G20G16
  17958908.752   -22154228.235 6 -17180494.37621
  18421760.7294  -14298043.33646 -10828256.84661
  19607369.6514   -7032755.60946  -5394314.25461
  16768056.0184  -32238114.21647 -24792205.10963
  17382996.3544  -28904106.54947
 92  5  5  4 25 29.9860000  0  5G 3G17G24G20G16
  17949372.846   -22204357.480 7 -17219556.09721
  18411409.2444  -14352420.68946 -10870628.77461
  19610749.4084   -7014975.57246  -5380459.68561
  16767991.5024  -32238453.93647 -24792469.82663
  17383066.0104  -28903721.68547
 92  5  5  4 25 44.9860000  0  5G 3G17G24G20G16
  17939831.361   -22254473.049 6 -17258607.16821
  18401069.0494  -14406729.55546 -10912947.33761
  19614133.6904   -6997193.16946  -5366603.26261
  16767951.0024  -32238652.82047
  17383170.3544  -28903207.47847 -22312865.19162
 92  5  5  4 25 59.9860000  0  5G 3G17G24G20G16
  17930304.7524  -22304578.77047 -17297650.55261
  18390749.447   -14460973.496 6 -10955215.31221
  19617521.6514   -6979409.56746  -5352745.91161
  16767943.1584  -32238714.72247
  17383285.6114  -28902568.58247 -22312367.34862
 92  5  5  4 26 14.9860000  0  5G 3G17G24G20G16
  17920768.979   -22354669.555 6 -17336682.31822
  18380444.3464  -14515150.83646 -10997431.37561
  19620906.0884   -6961618.38346  -5338882.66661
  16767953.3464  -32238635.27847
  17383436.7054  -28901798.63947 -22311767.38962
 92  5  5  4 26 29.9860000  0  5G 3G17G24G20G16
  17911241.588   -22404748.912 7 -17375705.15921
  18370143.3464  -14569268.86246 -11039601.23361
  19624291.8544   -6943823.73246  -5325016.70961
  16767999.8224  -32238417.94447
  17383604.7524  -28900902.34047 -22311068.97162
 92  5  5  4 26 44.9860000  0  5G 3G17G24G20G16
  17901715.7684  -22454810.94147 -17414714.50461
  18359860.5804  -14623324.66846 -11081722.60761
  19627684.7524   -6926019.11146  -5311142.97961
  16768064.7524  -32238057.57547
  17383803.1434  -28899875.20247 -22310268.59762
 92  5  5  4 26 59.9860000  0  5G 3G17G24G20G16
  17892186.322   -22504857.343 6 -17453711.67521
  18349580.7834  -14677321.60046 -11123798.08861
  19631068.1354   -6908206.23646  -5297262.81861
  16768164.0334  -32237556.00647 -24791770.16163
  17384020.4404  -28898718.71747 -22309367.43762
 92  5  5  4 27 14.9860000  0  5G 3G17G24G20G16
  17882665.236   -22554895.067 7 -17492702.08622
  18339314.7604  -14731264.69546 -11165831.64061
  19634459.8304   -6890391.94546  -5283381.54461
  16768283.0574  -32236920.34747 -24791274.84963
  17384264.1744  -28897440.02047 -22308371.04762
 92  5  5  4 27 29.9860000  0  5G 3G17G24G20G16
  17873144.1664  -22604915.81046 -17531679.25662
  18329062.799   -14785146.932 6 -11207817.75021
  19637850.9554   -6872568.10246  -5269492.84661
  16768428.4554  -32236142.54447 -24790668.77063
  17384534.8544  -28896032.19447 -22307274.03262
 92  5  5  4 27 44.9860000  0  5G 3G17G24G20G16
  17863633.580   -22654922.637 7 -17570645.58522
  18318820.7134  -14838975.16346 -11249761.79161
  19641241.1744   -6854739.05745  -5255600.08661
  16768607.6514  -32235226.35147 -24789954.85163
  17384822.9944  -28894496.38947 -22306077.29962
 92  5  5  4 27 59.9860000  0  5G 3G17G24G20G16
  17854119.190   -22704911.728 6 -17609598.10122
  18308589.6434  -14892746.61446 -11291661.58461
  19644637.1194   -6836902.83445  -5241701.73361
  16768803.9404  -32234168.00347 -24789130.16163
  17385144.4164  -28892827.55347 -22304776.90662
 92  5  5  4 28 14.9860000  0  5G 3G17G24G20G16
  17844611.3614  -22754888.11847 -17648540.70862
  18298366.0654  -14946466.18546 -11333520.94761
  19648030.7684   -6819067.86245  -5227804.35761
  16769036.0724  -32232973.04747 -24788199.03163
  17385484.4244  -28891027.96747 -22303374.62962
 92  5  5  4 28 29.9860000  0  5G 3G17G24G20G16
  17835104.393   -22804850.053 7 -17687472.06222
  18288155.908   -15000131.669 6 -11375338.16421
  19651424.2914   -6801235.86446  -5213909.29561
  16769290.2444  -32231639.99547 -24787160.29163
  17385852.2134  -28889097.28847 -22301870.19762
 92  5  5  4 28 44.9860000  0  5G 3G17G24G20G16
  17825597.861   -22854803.391 7 -17726396.70722
  18277948.057   -15053745.571 6 -11417115.18821
  19654820.0724   -6783412.96146  -5200021.32661
  16769565.1514  -32230175.05847 -24786018.78663
  17386245.7834  -28887041.30147 -22300268.12862
 92  5  5  4 28 59.9860000  0  5G 3G17G24G20G16
  17816101.1194  -22904739.12547 -17765307.64262
  18267761.182   -15107297.149 6 -11458843.64921
  19658206.682    -6765591.161 5  -5186134.20421
  16769875.1584  -32228569.62547 -24784767.80363
  17386659.4634  -28884850.41647 -22298560.94262
 92  5  5  4 29 14.9860000  0  5G 3G17G24G20G16
  17806596.5654  -22954658.44647 -17804205.77562
  18257580.174   -15160788.980 6 -11500525.54821
  19661599.8464   -6747772.34546  -5172249.41061
  16770203.2684  -32226825.00347 -24783408.35763
  17387102.0804  -28882526.04147 -22296749.73962
 92  5  5  4 29 29.9860000  0  5G 3G17G24G20G16
  17797097.4404  -23004558.27746 -17843088.73762
  18247410.299   -15214218.690 6 -11542159.04821
  19664990.0804   -6729953.64945  -5158364.71061
  16770564.7054  -32224938.49847 -24781938.35763
  17387571.7134  -28880068.03947 -22294834.41062
 92  5  5  4 29 44.9860000  0  5G 3G17G24G20G16
  17787603.0184  -23054436.94447 -17881955.19961
  18237259.9244  -15267585.95546 -11583743.89261
  19668376.6114   -6712134.08245  -5144479.34161
  16770952.3694  -32222908.93547 -24780356.88263
  17388062.2604  -28877473.13547 -22292812.40862
 92  5  5  4 29 59.9860000  0  5G 3G17G24G20G16
  17778118.2294  -23104294.86447 -17920805.49062
  18227114.6044  -15320888.74846 -11625278.49761
  19671772.6044   -6694312.21845  -5130592.17261
  16771362.6824  -32220737.05547 -24778664.51163
  17388585.6584  -28874743.73947 -22290685.60662
 92  5  5  4 30 14.9860000  0  5G 3G17G24G20G16
  17768638.6514  -23154138.52547 -17959644.67462
  18216985.096   -15374130.373 6 -11666765.42721
  19675162.6664   -6676494.04145  -5116707.88861
  16771803.3934  -32218429.63847 -24776866.53363
  17389127.2994  -28871890.17647 -22288462.04762
 92  5  5  4 30 29.9860000  0  5G 3G17G24G20G16
  17759155.6434  -23203957.08647 -17998464.28962
  18206866.3544  -15427298.87846 -11708195.40161
  19678556.9864   -6658667.10145  -5102816.77161
  16772270.5574  -32215976.16947 -24774954.74363
  17389694.6904  -28868901.95947 -22286133.56662
 92  5  5  4 30 44.9860000  0  5G 3G17G24G20G16
  17749675.7684  -23253756.16847 -18037268.74762
  18196760.549   -15480400.935 6 -11749573.57821
  19681948.2604   -6640834.11546  -5088920.93961
  16772759.4864  -32213382.62547 -24772933.80663
  17390291.4634  -28865786.85447 -22283706.21362
 92  5  5  4 30 59.9860000  0  5G 3G17G24G20G16
  17740203.7214  -23303540.43547 -18076061.64462
  18186666.1974  -15533444.04846 -11790905.84261
  19685343.2444   -6622998.26746  -5075022.87361
  16773281.9794  -32210654.15947 -24770807.72863
  17390903.0414  -28862549.95647 -22281183.95262
 92  5  5  4 31 14.9860000  0  5G 3G17G24G20G16
  17730734.3614  -23353299.95147 -18114835.26162
  18176583.2834  -15586420.34546 -11832186.03861
  19688740.643    -6605150.244 6  -5061115.33121
  16773830.8224  -32207780.95847 -24768568.87363
  17391542.8074  -28859183.82447 -22278560.99362
 92  5  5  4 31 29.9860000  0  5G 3G17G24G20G16
  17721267.7444  -23403038.16147 -18153592.28062
  18166519.3224  -15639332.10946 -11873415.94661
  19692137.2134   -6587294.35746  -5047201.65461
  16774400.7684  -32204767.02847 -24766220.36263
  17392210.2994  -28855693.88247 -22275841.55262
 92  5  5  4 31 44.9860000  0  5G 3G17G24G20G16
  17711810.6114  -23452757.34747 -18192334.46262
  18156462.174   -15692177.894 6 -11914594.43121
  19695535.3224   -6569431.44845  -5033282.49061
  16775002.1044  -32201615.06847 -24763764.29063
  17392896.9554  -28852082.72247 -22273027.66162
 92  5  5  4 31 59.9860000  0  5G 3G17G24G20G16
  17702354.3154  -23502449.06147 -18231055.25662
  18146419.0264  -15744948.16746 -11955714.08661
  19698938.611    -6551553.825 5  -5019351.87621
  16775632.5184  -32198316.98047 -24761194.35563
  17393606.9474  -28848341.09247 -22270112.10462
 92  5  5  4 32 14.9860000  0  5G 3G17G24G20G16
  17692897.4014  -23552120.22347 -18269760.02762
  18136388.1274  -15797650.21046 -11996780.57961
  19702343.6274   -6533669.83946  -5005416.30661
  16776282.6114  -32194879.80647 -24758516.04363
  17394345.0264  -28844475.70347 -22267100.10962
 92  5  5  4 32 29.9860000  0  5G 3G17G24G20G16
  17683449.1584  -23601768.29747 -18308446.80162
  18126374.5334  -15850284.89646 -12037794.58661
  19705743.1354   -6515781.10046  -4991477.01661
  16776963.6744  -32191301.74447 -24755727.95463
  17395106.8074  -28840480.71047 -22263987.12662
 92  5  5  4 32 44.9860000  0  5G 3G17G24G20G16
  17674006.479   -23651396.555 7 -18347118.14522
  18116368.994   -15902856.714 6 -12078759.60321
  19709151.0414   -6497891.61945  -4977537.16361
  16777673.4084  -32187586.02147 -24752832.59063
  17395887.2684  -28836359.47347 -22260775.77462
 92  5  5  4 32 59.9860000  0  5G 3G17G24G20G16
  17664567.205   -23701001.249 7 -18385771.12722
  18106375.5334  -15955362.38546 -12119673.07761
  19712553.776    -6479999.186 5  -4963595.02921
  16778407.4864  -32183729.34347 -24749827.39263
  17396694.7294  -28832108.85547 -22257463.60362
 92  5  5  4 33 14.9860000  0  5G 3G17G24G20G16
  17655130.643   -23750589.668 7 -18424411.42522
  18096398.510   -16007808.196 6 -12160539.90421
  19715958.3694   -6462112.03245  -4949656.98261
  16779161.3464  -32179739.43747 -24746718.38163
  17397530.8854  -28827736.12147 -22254056.28062
 92  5  5  4 33 29.9860000  0  5G 3G17G24G20G16
  17645706.0494  -23800158.20247 -18463036.22662
  18086429.1434  -16060187.43246 -12201354.85661
  19719363.9554   -6444227.03545  -4935720.63861
  16779948.2134  -32175613.12447 -24743503.07863
  17398385.6664  -28823237.21947 -22250550.63762
 92  5  5  4 33 44.9860000  0  5G 3G17G24G20G16
  17636270.643   -23849712.401 7 -18501649.86222
  18076476.2214  -16112506.04946 -12242122.58261
  19722761.7134   -6426349.45645  -4921790.05661
  16780760.4714  -32171356.40647 -24740186.15863
  17399264.9324  -28818614.71547 -22246948.68462
 92  5  5  4 33 59.9860000  0  5G 3G17G24G20G16
  17626837.088   -23899241.782 7 -18540244.18122
  18066533.3614  -16164756.94246 -12282837.53061
  19726165.565    -6408469.214 5  -4907857.40621
  16781599.5964  -32166959.12347 -24736759.71363
  17400168.8854  -28813855.19147 -22243239.95762
 92  5  5  4 34 14.9860000  0  5G 3G17G24G20G16
  17617427.385   -23948749.108 7 -18578821.28822
  18056597.4404  -16216946.56446 -12323504.73461
  19729567.8154   -6390591.74145  -4893926.90661
  16782459.5654  -32162424.48747 -24733226.24263
  17401102.1194  -28808962.20247 -22239427.23862
 92  5  5  4 34 29.9860000  0  5G 3G17G24G20G16
  17608011.088   -23998235.123 7 -18617381.79722
  18046678.6114  -16269076.14946 -12364125.15561
  19732973.6044   -6372718.67846  -4879999.82061
  16783345.9084  -32157753.42947 -24729586.46763
  17402060.5804  -28803936.75347 -22235511.29962
 92  5  5  4 34 44.9860000  0  5G 3G17G24G20G16
  17598594.3854  -24047703.69347 -18655928.71162
  18036768.6274  -16321147.46446 -12404700.17761
  19736369.065    -6354850.693 6  -4866076.71621
  16784261.6584  -32152950.19347 -24725843.69563
  17403038.0104  -28798785.31147 -22231497.18562
 92  5  5  4 34 59.9860000  0  5G 3G17G24G20G16
  17589186.6904  -24097148.53747 -18694457.15062
  18026873.4244  -16373153.53246 -12445224.35261
  19739769.4164   -6336980.19445  -4852151.64761
  16785204.8614  -32148009.07647 -24721993.48363
  17404042.6974  -28793501.77847 -22227380.14062
 92  5  5  4 35 14.9860000  0  5G 3G17G24G20G16
  17579784.0334  -24146569.37547 -18732966.86862
  18016989.0264  -16425093.43446 -12485696.96961
  19743170.5264   -6319106.16446  -4838223.85761
  16786169.4084  -32142930.24047 -24718035.95663
  17405072.0104  -28788085.03047 -22223159.29362
 92  5  5  4 35 29.9860000  0  5G 3G17G24G20G16
  17570381.049   -24195971.640 7 -18771462.11822
  18007119.6114  -16476971.36046 -12526121.29461
  19746571.6434   -6301233.23846  -4824296.90361
  16787159.3304  -32137719.15347 -24713975.37563
  17406129.5184  -28782541.25247 -22218839.46662
 92  5  5  4 35 44.9860000  0  5G 3G17G24G20G16
  17560986.7214  -24245352.73747 -18809940.86162
  17997256.4794  -16528786.38846 -12566496.61061
  19749970.8224   -6283359.68845  -4810369.45261
  16788177.0414  -32132374.07647 -24709810.38663
  17407212.3694  -28776868.82747 -22214419.38762
 92  5  5  4 35 59.9860000  0  5G 3G17G24G20G16
  17551591.994   -24294710.218 7 -18848401.22022
  17987410.6114  -16580538.62846 -12606822.99761
  19753372.6904   -6265482.48445  -4796439.17161
  16789222.3934  -32126892.56547 -24705539.08663
  17408314.1044  -28771066.77547 -22209898.30762
 92  5  5  4 36 14.9860000  0  5G 3G17G24G20G16
  17542206.7524  -24344040.98847 -18886840.74862
  17977576.3614  -16632224.26746 -12647097.48561
  19756775.7444   -6247597.81445  -4782503.06661
  16790292.4474  -32121272.30047 -24701159.66363
  17409440.4244  -28765135.99247 -22205276.91462
 92  5  5  4 36 29.9860000  0  5G 3G17G24G20G16
  17532822.088   -24393347.839 7 -18925261.64922
  17967748.7684  -16683843.64846 -12687320.35061
  19760181.893    -6229706.906 5  -4768562.10021
  16791386.2914  -32115516.18247 -24696674.38363
  17410593.0654  -28759081.40947 -22200559.06362
 92  5  5  4 36 44.9850000  0  5G 3G17G24G20G16
  17523440.114   -24442624.737 7 -18963659.21622
  17957941.5604  -16735392.39646 -12727488.16961
  19763590.4894   -6211807.01045  -4754614.13461
  16792506.3104  -32109622.42747 -24692081.84563
  17411771.0604  -28752900.90547 -22195743.08762
 92  5  5  4 36 59.9850000  0  5G 3G17G24G20G16
  17514070.6074  -24491880.02247 -19002039.93162
  17948146.8644  -16786878.83146 -12767607.43961
  19766996.3184   -6193897.04645  -4740658.30661
  16793652.8804  -32103592.36047 -24687383.09363
  17412970.8884  -28746597.36347 -22190831.23562
 92  5  5  4 37 14.9850000  0  5G 3G17G24G20G16
  17504697.653   -24541112.317 7 -19040402.74722
  17938355.4584  -16838303.95946 -12807678.93061
  19770405.8254   -6175981.80945  -4726698.37461
  16794828.4274  -32097428.58647 -24682580.16063
  17414192.1074  -28740174.42947 -22185826.34762
 92  5  5  4 37 29.9850000  0  5G 3G17G24G20G16
  17495335.794   -24590324.679 7 -19078750.01722
  17928583.0914  -16889670.82146 -12847705.02761
  19773814.9114   -6158064.40045  -4712736.75361
  16796027.4114  -32091134.61947 -24677675.77663
  17415435.1074  -28733637.95647 -22180732.99462
